[[{"header":{"parameterUnit":"m.s-1","parameterCategory":1,"la1":30.6,"la2":29.2853,"lo1":-89.7004,"lo2":-87.6739,"dx":0.0162,"dy":0.0183,"nx":112,"ny":82,"refTime":"2022-12-07T18:00:00:Z","depth":0,"parameterNumber":2,"parameterNumberName":"U-component_of_WINDS"},"data":[0.0,0.0,0.0,0.0,0.0,0.0,0.0,0.0,0.0,0.0,0.0,0.0,0.0,0.0,0.0,0.0,0.0,0.0,0.0,0.0,0.0,0.0,0.0,0.0,0.0,0.0,0.0,0.0,0.0,0.0,0.0,0.0,0.0,0.0,0.0,0.0,0.0,0.0,0.0,0.0,0.0,0.0,0.0,0.0,0.0,0.0,0.0,0.0,0.0,0.0,0.0,0.0,0.0,0.0,0.0,0.0,0.0,0.0,0.0,0.0,0.0,0.0,0.0,0.0,0.0,0.0,0.0,0.0,0.0,0.0,0.0,0.0,0.0,0.0,0.0,0.0,0.0,0.0,0.0,0.0,0.0,0.0,0.0,0.0,0.0,0.0,0.0,0.0,0.0,0.0,-1.3681,-1.3258,-1.4528,-1.5391,-1.5391,-1.5391,-1.3945,-1.0526,0.0,0.0,0.0,0.0,0.0,0.0,0.0,0.0,0.0,0.0,0.0,0.0,0.0,0.0,0.0,0.0,0.0,0.0,0.0,0.0,0.0,0.0,0.0,0.0,0.0,0.0,0.0,0.0,0.0,0.0,0.0,0.0,0.0,0.0,0.0,0.0,0.0,0.0,0.0,0.0,0.0,0.0,0.0,0.0,0.0,0.0,0.0,0.0,0.0,0.0,0.0,0.0,0.0,0.0,0.0,0.0,0.0,0.0,0.0,0.0,0.0,0.0,0.0,0.0,0.0,0.0,0.0,0.0,0.0,0.0,0.0,0.0,0.0,0.0,0.0,0.0,0.0,0.0,0.0,0.0,0.0,0.0,0.0,0.0,0.0,0.0,0.0,0.0,0.0,0.0,0.0,0.0,0.0,0.0,0.0,0.0,0.0,0.0,0.0,0.0,0.0,0.0,0.0,0.0,-1.5028,-1.5018,-1.5234,-1.5391,-1.5391,-1.5391,-1.3945,-1.0526,0.0,0.0,0.0,0.0,0.0,0.0,0.0,0.0,0.0,0.0,0.0,0.0,0.0,0.0,0.0,0.0,0.0,0.0,0.0,0.0,0.0,0.0,0.0,0.0,0.0,0.0,0.0,0.0,0.0,0.0,0.0,0.0,0.0,0.0,0.0,0.0,0.0,0.0,0.0,0.0,0.0,0.0,0.0,0.0,0.0,0.0,0.0,0.0,0.0,0.0,0.0,0.0,0.0,0.0,0.0,0.0,0.0,0.0,0.0,0.0,0.0,0.0,0.0,0.0,0.0,0.0,0.0,0.0,0.0,0.0,0.0,0.0,0.0,0.0,0.0,0.0,0.0,0.0,0.0,0.0,0.0,0.0,0.0,0.0,0.0,0.0,0.0,0.0,0.0,0.0,0.0,0.0,0.0,0.0,0.0,0.0,0.0,0.0,0.0,0.0,0.0,0.0,0.0,-1.4451,-1.5369,-1.539,-1.5391,-1.5391,-1.5391,-1.5391,-1.3945,-1.0527,-1.0781,0.0,0.0,0.0,0.0,0.0,0.0,0.0,0.0,0.0,0.0,0.0,0.0,0.0,0.0,0.0,0.0,0.0,0.0,0.0,0.0,0.0,0.0,0.0,0.0,0.0,0.0,0.0,0.0,0.0,0.0,0.0,0.0,0.0,0.0,0.0,0.0,0.0,0.0,0.0,0.0,0.0,0.0,0.0,0.0,0.0,0.0,0.0,0.0,0.0,0.0,0.0,0.0,0.0,0.0,0.0,0.0,0.0,0.0,0.0,0.0,0.0,0.0,0.0,0.0,0.0,0.0,0.0,0.0,0.0,0.0,0.0,0.0,0.0,0.0,0.0,0.0,0.0,0.0,0.0,0.0,0.0,0.0,0.0,0.0,0.0,0.0,0.0,0.0,0.0,0.0,0.0,0.0,0.0,0.0,0.0,0.0,0.0,0.0,0.0,0.0,0.0,0.0,-1.4509,-1.5397,-1.539,-1.5391,-1.5391,-1.5391,-1.5391,-1.3945,-1.0527,-1.0293,0.0,0.0,0.0,0.0,0.0,0.0,0.0,0.0,0.0,0.0,0.0,0.0,0.0,0.0,0.0,0.0,0.0,0.0,0.0,0.0,0.0,0.0,0.0,0.0,0.0,0.0,0.0,0.0,0.0,0.0,0.0,0.0,0.0,0.0,0.0,0.0,0.0,0.0,0.0,0.0,0.0,0.0,0.0,0.0,0.0,0.0,0.0,0.0,0.0,0.0,0.0,0.0,0.0,0.0,0.0,0.0,0.0,0.0,0.0,0.0,0.0,0.0,0.0,0.0,0.0,0.0,0.0,0.0,0.0,0.0,0.0,0.0,0.0,0.0,0.0,0.0,0.0,0.0,0.0,0.0,0.0,0.0,0.0,0.0,0.0,0.0,0.0,0.0,0.0,0.0,0.0,0.0,0.0,0.0,0.0,0.0,0.0,0.0,0.0,0.0,0.0,0.0,-1.4032,-1.5401,-1.5391,-1.5391,-1.5391,-1.5391,-1.5391,-1.3945,-1.0527,-1.0293,0.0,0.0,0.0,0.0,0.0,0.0,0.0,0.0,0.0,0.0,0.0,0.0,0.0,0.0,0.0,0.0,0.0,0.0,0.0,0.0,0.0,0.0,0.0,0.0,0.0,0.0,0.0,0.0,0.0,0.0,0.0,0.0,0.0,0.0,0.0,0.0,0.0,0.0,0.0,0.0,0.0,0.0,0.0,0.0,0.0,0.0,0.0,0.0,0.0,0.0,0.0,0.0,0.0,0.0,0.0,0.0,0.0,0.0,0.0,0.0,0.0,0.0,0.0,0.0,0.0,0.0,0.0,0.0,0.0,0.0,0.0,0.0,0.0,0.0,0.0,0.0,0.0,0.0,0.0,0.0,0.0,0.0,0.0,0.0,0.0,0.0,0.0,0.0,0.0,0.0,0.0,0.0,0.0,0.0,0.0,0.0,0.0,0.0,0.0,0.0,0.0,0.0,-1.3982,-1.5409,-1.5391,-1.5391,-1.5391,-1.5391,-1.5408,-1.4235,-1.1523,0.0,0.0,0.0,0.0,0.0,0.0,0.0,0.0,0.0,0.0,0.0,0.0,0.0,0.0,0.0,0.0,0.0,0.0,0.0,0.0,0.0,0.0,0.0,0.0,0.0,0.0,0.0,0.0,0.0,0.0,0.0,0.0,0.0,0.0,0.0,0.0,0.0,0.0,0.0,0.0,0.0,0.0,0.0,0.0,0.0,0.0,0.0,0.0,0.0,0.0,0.0,0.0,0.0,0.0,0.0,0.0,0.0,0.0,0.0,0.0,0.0,0.0,0.0,0.0,0.0,0.0,0.0,0.0,0.0,0.0,0.0,0.0,0.0,0.0,0.0,0.0,0.0,0.0,0.0,0.0,0.0,0.0,0.0,0.0,0.0,0.0,0.0,0.0,0.0,0.0,0.0,0.0,0.0,0.0,0.0,0.0,0.0,0.0,0.0,0.0,0.0,0.0,-1.1636,-1.3749,-1.5391,-1.5391,-1.5391,-1.5391,-1.5391,-1.5404,-1.4425,-1.2148,0.0,0.0,0.0,0.0,0.0,0.0,0.0,0.0,0.0,0.0,0.0,0.0,0.0,0.0,0.0,0.0,0.0,0.0,0.0,0.0,0.0,0.0,0.0,0.0,0.0,0.0,0.0,0.0,0.0,0.0,0.0,0.0,0.0,0.0,0.0,0.0,0.0,0.0,0.0,0.0,0.0,0.0,0.0,0.0,0.0,0.0,0.0,0.0,0.0,0.0,0.0,0.0,0.0,0.0,0.0,0.0,0.0,0.0,0.0,0.0,0.0,0.0,0.0,0.0,0.0,0.0,0.0,0.0,0.0,0.0,0.0,0.0,0.0,0.0,0.0,0.0,0.0,0.0,0.0,0.0,0.0,0.0,0.0,0.0,0.0,0.0,0.0,0.0,0.0,0.0,0.0,0.0,0.0,0.0,0.0,0.0,0.0,0.0,0.0,0.0,0.0,0.0,-1.0207,-1.3241,-1.5391,-1.5391,-1.5391,-1.5391,-1.5391,-1.5404,-1.4444,0.0,0.0,0.0,0.0,0.0,0.0,0.0,0.0,0.0,0.0,0.0,0.0,0.0,0.0,0.0,0.0,0.0,0.0,0.0,0.0,0.0,0.0,0.0,0.0,0.0,0.0,0.0,0.0,0.0,0.0,0.0,0.0,0.0,0.0,0.0,0.0,0.0,0.0,0.0,0.0,0.0,0.0,0.0,0.0,0.0,0.0,0.0,0.0,0.0,0.0,0.0,0.0,0.0,0.0,0.0,0.0,0.0,0.0,0.0,0.0,0.0,0.0,0.0,0.0,0.0,0.0,0.0,0.0,0.0,0.0,0.0,0.0,0.0,0.0,0.0,0.0,0.0,0.0,0.0,0.0,0.0,0.0,0.0,0.0,0.0,0.0,0.0,0.0,0.0,0.0,0.0,0.0,0.0,0.0,0.0,0.0,0.0,0.0,0.0,0.0,0.0,0.0,0.0,-1.0265,-1.3261,-1.5391,-1.5391,-1.5391,-1.541,-1.5403,-1.5366,-1.504,-1.4365,0.0,0.0,0.0,0.0,0.0,0.0,0.0,0.0,0.0,0.0,0.0,0.0,0.0,0.0,0.0,0.0,0.0,0.0,0.0,0.0,0.0,0.0,0.0,0.0,0.0,0.0,0.0,0.0,0.0,0.0,0.0,0.0,0.0,0.0,0.0,0.0,0.0,0.0,0.0,0.0,0.0,0.0,0.0,0.0,0.0,0.0,0.0,0.0,0.0,0.0,0.0,0.0,0.0,0.0,0.0,0.0,0.0,0.0,0.0,0.0,0.0,0.0,0.0,0.0,0.0,0.0,0.0,0.0,0.0,0.0,0.0,0.0,0.0,0.0,0.0,0.0,0.0,0.0,0.0,0.0,0.0,0.0,0.0,0.0,0.0,0.0,0.0,0.0,0.0,0.0,0.0,0.0,0.0,0.0,0.0,0.0,0.0,0.0,0.0,0.0,0.0,0.0,-1.0265,-1.3261,-1.5391,-1.5391,-1.5391,-1.5409,-1.5396,-1.5334,-1.5292,-1.5299,0.0,0.0,0.0,0.0,0.0,0.0,0.0,0.0,0.0,0.0,0.0,0.0,0.0,0.0,0.0,0.0,0.0,0.0,0.0,0.0,0.0,0.0,0.0,0.0,0.0,0.0,0.0,0.0,0.0,0.0,0.0,0.0,0.0,0.0,0.0,0.0,0.0,0.0,0.0,0.0,0.0,0.0,0.0,0.0,0.0,0.0,0.0,0.0,0.0,0.0,0.0,0.0,0.0,0.0,0.0,0.0,0.0,0.0,0.0,0.0,0.0,0.0,0.0,0.0,0.0,0.0,0.0,0.0,0.0,0.0,0.0,0.0,0.0,0.0,0.0,0.0,0.0,0.0,0.0,0.0,0.0,0.0,0.0,0.0,0.0,0.0,0.0,0.0,0.0,0.0,0.0,0.0,0.0,0.0,0.0,0.0,0.0,0.0,0.0,0.0,0.0,0.0,-1.0207,-1.3241,-1.5391,-1.5391,-1.5391,-1.5408,-1.5393,-1.533,-1.5297,-1.5297,0.0,0.0,0.0,0.0,0.0,0.0,0.0,0.0,0.0,0.0,0.0,0.0,0.0,0.0,0.0,0.0,0.0,0.0,0.0,0.0,0.0,0.0,0.0,0.0,0.0,0.0,0.0,0.0,0.0,0.0,0.0,0.0,0.0,0.0,0.0,0.0,0.0,0.0,0.0,0.0,0.0,0.0,0.0,0.0,0.0,0.0,0.0,0.0,0.0,0.0,0.0,0.0,0.0,0.0,0.0,0.0,0.0,0.0,0.0,0.0,-0.9193,-0.7351,0.0,0.0,0.0,0.0,0.0,0.0,0.0,0.0,0.0,0.0,0.0,0.0,0.0,0.0,0.0,0.0,0.0,0.0,0.0,0.0,0.0,0.0,0.0,0.0,0.0,0.0,0.0,0.0,0.0,0.0,0.0,0.0,0.0,0.0,0.0,0.0,0.0,0.0,0.0,0.0,-1.0207,-1.3241,-1.5391,-1.5391,-1.5406,-1.5374,-1.5329,-1.5308,-1.5274,-1.5229,-1.4187,0.0,0.0,0.0,0.0,0.0,0.0,0.0,0.0,0.0,0.0,0.0,0.0,0.0,0.0,0.0,0.0,0.0,0.0,0.0,0.0,0.0,0.0,0.0,0.0,0.0,0.0,0.0,0.0,0.0,0.0,0.0,0.0,0.0,0.0,0.0,0.0,0.0,0.0,0.0,0.0,0.0,0.0,0.0,0.0,0.0,0.0,0.0,0.0,0.0,0.0,0.0,0.0,0.0,0.0,0.0,0.0,0.0,0.0,0.0,-1.1339,-0.991,0.0,0.0,0.0,0.0,0.0,0.0,0.0,0.0,0.0,0.0,0.0,0.0,0.0,0.0,0.0,0.0,0.0,0.0,0.0,0.0,0.0,0.0,0.0,0.0,0.0,0.0,0.0,0.0,0.0,0.0,0.0,0.0,0.0,0.0,0.0,0.0,0.0,0.0,0.0,0.0,-1.0207,-1.3241,-1.5391,-1.5391,-1.5404,-1.5367,-1.5318,-1.5294,-1.5272,-1.5198,-1.5192,0.0,0.0,0.0,0.0,0.0,0.0,0.0,0.0,0.0,0.0,0.0,0.0,0.0,0.0,0.0,0.0,0.0,0.0,0.0,0.0,0.0,0.0,0.0,0.0,0.0,0.0,0.0,0.0,0.0,0.0,0.0,0.0,0.0,0.0,0.0,0.0,0.0,0.0,0.0,0.0,0.0,0.0,0.0,0.0,0.0,0.0,0.0,0.0,0.0,0.0,0.0,0.0,0.0,-1.365,-1.3796,-1.3802,-1.3866,-1.4572,-1.5659,-1.3755,-1.3016,-1.2871,-0.9843,0.0,0.0,0.0,0.0,0.0,0.0,0.0,0.0,0.0,0.0,0.0,0.0,0.0,0.0,0.0,0.0,0.0,0.0,0.0,0.0,0.0,0.0,-1.2062,-1.1276,-1.3092,-1.3453,-0.7848,0.0,0.0,0.0,0.0,0.0,0.0,0.0,0.0,0.0,0.0,0.0,-1.0638,-1.3437,-1.5391,-1.541,-1.5381,-1.536,-1.5308,-1.5297,-1.526,-1.5195,-1.5192,-1.4788,0.0,0.0,0.0,0.0,0.0,0.0,0.0,0.0,0.0,0.0,0.0,0.0,0.0,0.0,0.0,0.0,0.0,0.0,0.0,0.0,0.0,0.0,0.0,0.0,0.0,0.0,0.0,0.0,0.0,0.0,0.0,0.0,-1.1645,-1.1135,0.0,0.0,0.0,0.0,0.0,0.0,0.0,0.0,0.0,0.0,0.0,0.0,0.0,-1.2477,-1.2526,-1.4097,-1.5257,-1.6028,-1.7462,-1.8177,-1.8168,-1.8239,-1.8011,-1.7534,-1.7239,0.0,-1.3848,-1.2695,0.0,0.0,0.0,0.0,0.0,0.0,0.0,0.0,0.0,0.0,0.0,0.0,0.0,0.0,0.0,0.0,0.0,0.0,0.0,0.0,0.0,0.0,-1.388,-1.4475,-1.4396,-1.3901,-1.295,-1.2365,-1.2307,-1.3201,-0.9746,-0.5742,0.0,0.0,0.0,0.0,0.0,0.0,-1.24,-1.4179,-1.5409,-1.54,-1.536,-1.5307,-1.5297,-1.5253,-1.5204,-1.5192,-1.5192,-1.5135,-1.4981,-1.3019,0.0,0.0,0.0,0.0,0.0,0.0,0.0,0.0,0.0,0.0,0.0,0.0,0.0,0.0,0.0,0.0,0.0,0.0,0.0,0.0,0.0,0.0,0.0,0.0,0.0,0.0,0.0,0.0,0.0,-1.0919,-1.2368,-1.215,-1.1704,-1.0747,0.0,0.0,0.0,0.0,0.0,0.0,0.0,0.0,0.0,-1.4217,-1.5148,-1.5829,-1.6288,-1.7465,-1.8261,-1.8638,-1.9385,-1.9722,-1.9722,-1.9801,-1.9665,-1.9339,-1.8878,-1.8046,-1.6836,-1.4531,-1.1953,-0.9453,0.0,0.0,0.0,0.0,-0.9587,-0.9392,-1.1073,-1.2011,-1.2832,-1.4766,0.0,0.0,0.0,0.0,0.0,0.0,0.0,-1.0813,-1.3292,-1.3626,-1.3653,-1.4999,-1.5008,-1.4712,-1.4649,-1.4346,-1.4157,-1.4296,-1.3072,-1.1543,-1.0059,-0.8183,0.0,0.0,0.0,-1.3633,-1.291,-1.4314,-1.5381,-1.5359,-1.5324,-1.5307,-1.5302,-1.5237,-1.5174,-1.5092,-1.5088,-1.4851,-1.433,-1.3268,-1.0474,0.0,0.0,0.0,0.0,0.0,0.0,0.0,0.0,0.0,0.0,0.0,0.0,0.0,0.0,0.0,0.0,0.0,0.0,0.0,0.0,0.0,0.0,0.0,0.0,0.0,0.0,0.0,0.0,-1.1964,-1.3297,-1.3038,-1.3,-1.2177,0.0,0.0,0.0,0.0,0.0,0.0,-1.418,-1.4766,-1.5584,-1.6664,-1.7864,-1.88,-1.9432,-2.0031,-2.0327,-2.0327,-2.0327,-2.0321,-2.0322,-2.0404,-2.0446,-2.047,-1.9881,-1.9512,-1.9082,-1.6269,-1.4473,-1.3418,-1.2109,-1.1347,-1.1093,-1.2167,-1.2167,-1.1933,-1.4297,-1.4707,-1.4375,-1.5391,-1.5293,-1.4766,-1.4766,0.0,0.0,0.0,0.0,-1.1347,-1.3027,-1.3448,-1.3758,-1.5008,-1.5292,-1.526,-1.5204,-1.5034,-1.4709,-1.4073,-1.472,-1.5232,-1.4824,-1.2637,0.0,-1.0895,-1.3085,-1.4433,-1.3567,-1.4597,-1.5364,-1.5305,-1.5305,-1.5293,-1.5277,-1.5226,-1.5168,-1.5068,-1.5025,-1.4688,-1.3981,-1.3432,-1.2315,-1.0545,0.0,0.0,0.0,0.0,0.0,0.0,0.0,0.0,0.0,0.0,0.0,0.0,0.0,0.0,0.0,0.0,0.0,0.0,0.0,0.0,0.0,0.0,0.0,0.0,0.0,0.0,0.0,0.0,0.0,-1.4027,-1.5945,0.0,0.0,0.0,0.0,-1.3806,-1.3959,-1.5117,-1.7617,-1.7773,-1.8552,-2.0196,-2.0311,-2.0354,-2.0329,-2.0363,-2.0381,-2.0381,-2.0381,-2.0383,-2.0406,-2.0451,-2.0506,-2.0509,-2.0526,-2.0059,-1.9219,-1.8223,-1.6797,-1.5273,-1.5176,-1.418,-1.2969,-1.4609,-1.5176,-1.5391,-1.7187,-1.7773,-1.7617,-1.6875,-1.5,-1.3027,-1.3027,-1.1797,0.0,0.0,-1.2812,-1.3164,-1.4824,-1.5221,-1.52,-1.5277,-1.5242,-1.5198,-1.5192,-1.4594,-1.4287,-1.5051,-1.5258,-1.4812,-1.328,0.0,-1.2694,-1.2754,-1.2851,-1.3496,-1.5066,-1.5356,-1.5376,-1.5315,-1.5302,-1.5275,-1.5204,-1.5195,-1.5209,-1.5186,-1.5078,-1.4972,-1.4927,-1.333,-1.2194,-1.1634,-1.0442,0.0,0.0,0.0,0.0,0.0,0.0,0.0,0.0,0.0,0.0,0.0,0.0,0.0,0.0,0.0,0.0,0.0,0.0,0.0,0.0,0.0,0.0,0.0,0.0,0.0,0.0,0.0,0.0,-1.5705,-1.683,0.0,-1.4522,-1.5596,-1.6456,-1.6514,-1.7578,-1.8648,-1.9629,-1.9668,-1.9941,-2.0544,-2.0516,-2.0483,-2.0451,-2.0425,-2.0408,-2.0408,-2.0408,-2.0425,-2.0472,-2.0483,-2.0516,-2.0564,-2.0586,-2.043,-2.0117,-1.9805,-1.8652,-1.707,-1.707,-1.6719,-1.625,-1.6855,-1.707,-1.7168,-1.7773,-1.8008,-1.7949,-1.7637,-1.6914,-1.6074,-1.5527,-1.4902,-1.4551,-1.5176,-1.5352,-1.5488,-1.6074,-1.6198,-1.6002,-1.5434,-1.5257,-1.5192,-1.5192,-1.4962,-1.4888,-1.5222,-1.4875,-1.4514,-1.4519,-1.4484,-1.4486,-1.4501,-1.4457,-1.4637,-1.5261,-1.5265,-1.5173,-1.5117,-1.5075,-1.5022,-1.5004,-1.504,-1.5051,-1.5004,-1.4964,-1.4896,-1.4808,-1.3716,-1.2786,-1.2096,-1.128,-1.0621,0.0,0.0,0.0,0.0,0.0,0.0,0.0,0.0,0.0,0.0,0.0,0.0,0.0,0.0,0.0,0.0,0.0,0.0,0.0,0.0,0.0,0.0,0.0,0.0,0.0,-1.5742,-1.7286,-1.6481,-1.7694,-1.7907,-1.6215,-1.7628,-1.8659,-1.8703,-1.9825,-2.0515,-2.0564,-2.0586,-2.0605,-2.0605,-2.0563,-2.0538,-2.0538,-2.0484,-2.0474,-2.0474,-2.0474,-2.0484,-2.0538,-2.0538,-2.0563,-2.0605,-2.0605,-2.0605,-2.0605,-2.0605,-1.9922,-1.8887,-1.8887,-1.8887,-1.8887,-1.8887,-1.8887,-1.8887,-1.8887,-1.8672,-1.8437,-1.8437,-1.8242,-1.7891,-1.7305,-1.7148,-1.7148,-1.7148,-1.7148,-1.7148,-1.7148,-1.7095,-1.6819,-1.5943,-1.5687,-1.5552,-1.5216,-1.5155,-1.5163,-1.5171,-1.4814,-1.4695,-1.5279,-1.5361,-1.5265,-1.4969,-1.5101,-1.5123,-1.4835,-1.4973,-1.5073,-1.4973,-1.4946,-1.4928,-1.4904,-1.4449,-1.4384,-1.491,-1.4365,-1.4252,-1.478,-1.3396,-1.2406,-1.1931,-1.0986,-0.9987,-0.8981,0.0,0.0,0.0,0.0,0.0,0.0,0.0,0.0,0.0,0.0,0.0,0.0,0.0,0.0,0.0,0.0,0.0,0.0,0.0,0.0,0.0,0.0,0.0,-1.4893,-1.6385,-1.7261,-1.6415,-1.8696,-1.9673,-1.7988,-1.9355,-2.0346,-2.0387,-2.0482,-2.0544,-2.0584,-2.0641,-2.0664,-2.0644,-2.0664,-2.0644,-2.0605,-2.0625,-2.0625,-2.0605,-2.0605,-2.0605,-2.0605,-2.0605,-2.0605,-2.0605,-2.0605,-2.0605,-2.0605,-2.0605,-2.0605,-2.0605,-2.0605,-2.0605,-2.0605,-2.0605,-2.0605,-2.0605,-2.0605,-2.0059,-1.9336,-1.9336,-1.8769,-1.8086,-1.8047,-1.8047,-1.8047,-1.8047,-1.8047,-1.8047,-1.8047,-1.799,-1.7725,-1.6859,-1.658,-1.6266,-1.5299,-1.5111,-1.5082,-1.496,-1.5121,-1.5291,-1.5286,-1.5292,-1.5001,-1.4169,-1.463,0.0,-1.3934,-1.4571,-1.5024,-1.4888,-1.4927,-1.4928,-1.4871,-1.3436,-1.3249,-1.4892,-1.335,-1.3165,-1.493,-1.2448,-1.1113,-1.1278,-0.9776,-0.8322,-0.6963,0.0,0.0,0.0,0.0,0.0,0.0,0.0,0.0,0.0,0.0,0.0,0.0,0.0,0.0,0.0,0.0,0.0,0.0,0.0,0.0,0.0,-1.5314,-1.6596,-1.6515,-1.8049,-1.9103,-1.8973,-2.0184,-2.0871,-2.0496,-2.0893,-2.1459,-2.214,-2.1624,-2.1588,-2.2286,-2.2339,-2.2068,-2.1488,-2.2075,-2.1829,-2.0605,-2.123,-2.123,-2.0605,-2.0605,-2.0605,-2.0605,-2.0605,-2.0605,-2.0605,-2.0605,-2.0605,-2.0605,-2.0605,-2.0605,-2.0605,-2.0605,-2.0605,-2.0605,-2.0605,-2.0605,-2.0605,-2.0605,-2.0449,-2.0234,-2.0234,-2.0078,-1.9766,-1.9121,-1.8945,-1.8945,-1.8945,-1.8945,-1.8945,-1.8945,-1.8889,-1.8624,-1.7746,-1.7379,-1.714,-1.6863,-1.6284,-1.582,-1.577,-1.5352,-1.5035,-1.5066,-1.5045,-1.4928,-1.4694,-1.4832,-1.4871,-1.4635,-1.4802,-1.4698,-1.4034,-1.3961,-1.3936,-1.3812,-1.3507,-1.3769,-1.4856,-1.4363,-1.4337,-1.4965,-1.4235,-1.3568,-1.3096,-1.1613,-1.0719,0.0,0.0,0.0,0.0,0.0,0.0,0.0,0.0,0.0,0.0,0.0,0.0,0.0,0.0,0.0,0.0,0.0,0.0,0.0,0.0,0.0,0.0,-1.7062,-1.8312,-1.8445,-1.9465,-2.0371,-2.0796,-2.1403,-2.1835,-2.191,-2.1993,-2.226,-2.2821,-2.2413,-2.2375,-2.2921,-2.3015,-2.2838,-2.2355,-2.2838,-2.2632,-2.166,-2.2187,-2.2187,-2.1641,-2.1309,-2.1133,-2.1133,-2.0762,-2.0605,-2.0605,-2.0605,-2.0605,-2.0605,-2.0605,-2.0605,-2.0605,0.0,0.0,0.0,0.0,-2.0605,-2.0605,-2.0605,-2.0605,-2.0605,-2.0605,-2.0605,-2.0508,-2.0,-1.9844,-1.9844,-1.9844,-1.9844,-1.9844,-1.9802,-1.9758,-1.9474,-1.8611,-1.8223,-1.7931,-1.7506,-1.6931,-1.6506,-1.6452,-1.6068,0.0,-1.58,-1.5293,-1.4787,-1.4399,-1.4617,-1.4677,-1.4326,-1.4597,-1.4616,-1.411,-1.4117,-1.4117,-1.4031,-1.3476,0.0,0.0,0.0,-1.3726,-1.3772,-1.3798,0.0,0.0,0.0,-1.1595,-1.2007,-1.2453,0.0,0.0,-1.0235,-1.0787,0.0,0.0,0.0,0.0,0.0,0.0,0.0,0.0,0.0,0.0,0.0,0.0,0.0,0.0,0.0,0.0,-1.8772,-2.0354,-2.0445,-2.0801,-2.1276,-2.1916,-2.2355,-2.261,-2.2644,-2.2815,-2.2953,-2.3062,-2.3049,-2.3074,-2.3171,-2.3281,0.0,0.0,0.0,-2.328,-2.3105,-2.3262,-2.3262,-2.3086,-2.2383,-2.2031,-2.2012,-2.123,-2.0879,-2.0879,-2.0879,-2.0879,-2.0879,-2.0898,-2.0898,-2.0879,-2.0684,-2.0605,-2.0605,-2.0605,-2.0605,-2.0605,-2.0605,0.0,0.0,-2.0605,-2.0605,-2.0605,-2.0605,-2.0605,-2.0605,-2.0605,-2.0586,-2.0585,-2.0513,-2.044,-2.0191,-1.9392,-1.9058,-1.8664,-1.7763,-1.7375,-1.7188,-1.7064,-1.6963,-1.6908,-1.6908,-1.5843,-1.4738,-1.3941,-1.4321,-1.4406,-1.3624,-1.4207,-1.467,-1.4553,-1.4691,0.0,-1.4749,-1.3448,-1.3292,-1.4897,-1.3482,-1.2535,-1.2405,-1.251,-1.2226,-1.1525,-1.1491,-1.1839,-1.2575,-1.2709,-1.2773,-1.2788,-1.2792,-1.3105,0.0,0.0,0.0,0.0,0.0,0.0,0.0,0.0,0.0,0.0,0.0,0.0,0.0,0.0,0.0,-1.717,-1.9389,-2.1309,-2.1958,-2.2355,-2.2431,-2.2049,-2.2686,-2.3244,-2.3515,-2.3591,-2.3943,-2.476,-2.4239,-2.4152,-2.4797,-2.4857,-2.4587,-2.3938,-2.465,-2.4407,-2.3108,-2.3807,-2.3809,-2.3105,-2.2949,0.0,-2.2852,-2.2695,-2.2617,-2.2617,-2.2617,-2.2617,-2.2617,-2.2676,-2.2695,-2.2559,-2.1152,-2.0605,-2.0605,-2.0605,-2.0605,-2.0605,-2.0605,-2.0605,-2.0605,-2.0605,-2.0605,-2.0605,-2.0605,-2.0605,0.0,-2.0605,-2.0563,-2.0513,-2.0509,-2.0416,-2.0255,-1.9962,-1.9749,-1.9526,-1.9226,-1.8498,-1.7911,-1.7876,-1.733,-1.6908,-1.6908,-1.6159,-1.5488,-1.5329,-1.4863,-1.4478,-1.4307,-1.4532,-1.4431,-1.3732,-1.3881,-1.3959,-1.3861,-1.3563,-1.3833,-1.4858,-1.4587,-1.4329,-1.4203,-1.4227,-1.4162,-1.4008,-1.3908,-1.3963,-1.4242,-1.4377,-1.4492,-1.4569,-1.3356,-1.3177,0.0,0.0,0.0,0.0,0.0,0.0,0.0,0.0,0.0,0.0,0.0,-1.4721,-1.5634,0.0,-1.8157,-1.897,-2.0555,-2.1898,-2.2473,-2.3157,-2.3474,-2.3149,-2.3564,-2.3969,-2.412,-2.4309,-2.4614,-2.5108,-2.4869,-2.4889,-2.5288,-2.5326,-2.5166,-2.4764,-2.527,-2.5152,-2.4369,-2.4821,-2.4824,-2.4394,-2.3965,-2.375,-2.373,-2.332,-2.3144,-2.3144,-2.3144,-2.3125,-2.3105,-2.3164,-2.3184,-2.3066,-2.2187,-2.1602,-2.125,-2.125,-2.0977,-2.0605,-2.0605,-2.0605,-2.0605,-2.0605,-2.0605,-2.0605,-2.0605,-2.0605,-2.0586,-2.0563,-2.0536,-2.0482,-2.0422,-2.0302,-2.0171,-2.0071,-1.9863,-1.9682,-1.9609,-1.9135,-1.8702,-1.8702,-1.8372,-1.8089,-1.8089,-1.7436,-1.6757,-1.6365,-1.5961,-1.5557,-1.516,-1.5157,-1.491,-1.4132,-1.4161,-1.425,-1.4241,-1.4241,-1.4412,-1.478,-1.4799,-1.4742,-1.4622,-1.4592,-1.463,-1.4707,-1.4635,-1.463,-1.4707,-1.4833,-1.4893,-1.4882,-1.4253,-1.4181,0.0,0.0,0.0,0.0,0.0,0.0,0.0,-1.3063,-1.3326,-1.527,-1.6081,-1.6741,-1.7689,-1.8312,-1.9199,-2.0776,-2.1744,-2.2431,-2.2764,-2.3614,-2.4209,-2.4238,-2.4366,-2.4469,-2.4561,-2.4809,-2.4986,-2.5046,-2.5208,-2.5308,-2.5308,-2.5342,-2.5387,-2.5387,-2.5506,-2.5563,-2.5572,-2.5657,-2.5683,-2.5684,-2.498,-2.4648,-2.4629,-2.3984,-2.3691,-2.3691,-2.3691,-2.3652,-2.3613,-2.3652,-2.3652,-2.3613,-2.3613,-2.3105,-2.2363,-2.2207,-2.1699,-2.1094,-2.1094,-2.1113,-2.1074,-2.0918,-2.0859,-2.082,-2.0644,-2.0586,-2.0565,-2.0513,-2.048,-2.0435,-2.0322,-2.0201,-2.0067,-1.9984,-1.978,-1.9582,-1.9548,-1.9409,-1.9297,-1.9297,-1.9297,-1.9297,-1.9297,-1.8757,-1.8052,-1.7257,-1.7,-1.667,-1.6022,-1.5931,-1.5723,-1.5184,-1.5017,-1.491,-1.4864,-1.485,-1.4799,-1.4671,-1.4666,-1.4608,-1.4499,-1.4493,-1.4556,-1.4661,-1.4692,-1.4707,-1.4707,-1.4854,-1.4853,-1.4752,-1.5013,-1.5164,-1.4677,-1.4498,-1.5204,-1.5891,-1.6545,-1.7741,0.0,-1.9756,-1.8727,-1.993,-2.0186,-2.0068,-1.9612,-2.0404,-2.1196,-2.1479,-2.2406,-2.3181,-2.3534,-2.3941,-2.4275,-2.4454,-2.4339,-2.4375,-2.4731,-2.4804,-2.4942,-2.5248,-2.5298,-2.5308,-2.5308,-2.5317,-2.5308,-2.5308,-2.5376,-2.5453,-2.55,-2.559,-2.5636,-2.5703,-2.5605,-2.5547,-2.5547,-2.5469,-2.543,-2.543,-2.543,-2.543,-2.541,-2.543,-2.543,-2.541,-2.541,-2.4883,-2.4023,-2.332,-2.2969,-2.2832,-2.2891,-2.291,-2.2773,-2.2012,-2.1758,-2.1602,-2.082,-2.0563,-2.0511,-2.0509,-2.04,-2.0311,-2.0294,-2.0169,-1.9979,-1.9852,-1.9713,-1.9548,-1.9365,-1.9312,-1.9297,-1.9297,-1.9297,-1.9297,-1.9297,-1.9224,-1.8886,-1.8089,-1.7348,-1.6872,-1.678,-1.6762,-1.6732,-1.666,-1.6121,-1.5474,-1.4783,-1.4727,-1.4666,-1.4528,-1.4522,-1.4511,-1.4493,-1.4493,-1.4499,-1.4516,-1.464,-1.4707,-1.4707,-1.4898,-1.4969,-1.4962,-1.5127,-1.5161,-1.8865,-1.7782,-1.6937,-1.892,-1.9311,-1.9511,-2.0622,-2.0057,-1.9606,-2.0688,-2.1068,-2.112,-2.0889,-2.1583,-2.234,-2.2745,-2.3189,-2.3599,-2.3937,-2.4219,-2.441,-2.4486,-2.4537,-2.4615,-2.4782,-2.4864,-2.4981,-2.5105,-2.5224,-2.5308,-2.5308,-2.5308,-2.5308,-2.5308,-2.5363,-2.5428,-2.5491,-2.5563,-2.5634,-2.5703,-2.5703,-2.5703,-2.5703,-2.5703,-2.5703,-2.5703,-2.5703,-2.5703,-2.5703,-2.5703,-2.5703,-2.5703,-2.5703,-2.5488,-2.5059,-2.4219,-2.3553,-2.3097,-2.3136,-2.3126,-2.3011,-2.2659,-2.2192,-2.1727,-2.1355,-2.0879,-2.0434,-2.0385,-2.0337,-2.0298,-2.0308,-2.0081,-1.9874,-1.9807,-1.9612,-1.9394,-1.9312,-1.9297,-1.9297,-1.9297,-1.9297,-1.9297,-1.9297,-1.9297,-1.9187,-1.8849,-1.8519,-1.8133,-1.7667,-1.7594,-1.7422,-1.6945,-1.6655,-1.6343,-1.5999,-1.5549,-1.5249,-1.5203,-1.475,-1.4493,-1.4493,-1.4493,-1.4539,-1.4608,-1.4747,-1.478,-1.4707,-1.4891,-1.4931,-1.483,-1.4999,-1.5097,-1.9755,-1.911,-1.851,-2.0907,-2.1596,-2.1597,-2.1237,-2.0906,-2.0833,-2.1347,-2.1727,-2.1918,-2.178,-2.2397,-2.3112,-2.3681,-2.3826,-2.3984,-2.433,-2.4495,-2.4599,-2.4636,-2.4778,-2.4876,-2.4923,-2.4981,-2.5022,-2.5082,-2.5214,-2.5308,-2.5308,-2.5308,-2.5308,-2.5308,-2.5352,-2.5409,-2.5479,-2.5526,-2.5594,-2.5662,-2.5662,-2.5683,-2.5703,-2.5703,-2.5703,-2.5703,-2.5683,-2.5683,-2.5703,-2.566,-2.5661,-2.5703,-2.5683,-2.5683,-2.5625,-2.498,-2.4353,-2.3814,-2.3805,-2.3764,-2.3671,-2.3419,-2.2909,-2.2308,-2.1842,-2.1249,-2.0665,-2.0383,-2.0292,-2.0295,-2.0238,-2.0016,-1.9797,-1.9756,-1.9518,-1.9297,-1.9297,-1.9297,-1.9297,-1.9297,-1.9297,-1.9297,-1.9297,-1.9297,-1.9297,-1.9297,-1.9297,-1.9095,-1.85,-1.8427,-1.8126,-1.7312,-1.722,-1.7147,-1.6927,-1.6365,-1.5931,-1.5717,-1.516,-1.4732,-1.4512,-1.4493,-1.455,-1.4645,-1.4809,-1.4845,-1.4761,-1.4954,-1.4977,-1.4844,-1.4985,-1.5075,-1.5253,-1.6914,-1.9203,-2.1041,-2.3346,-2.51,-2.4881,-2.4488,-2.3896,-2.3017,-2.3,-2.2932,-2.2228,-2.2851,-2.3596,-2.3922,-2.4153,-2.4401,-2.4734,-2.479,-2.4842,-2.4974,-2.4998,-2.5077,-2.5264,-2.5105,-2.5088,-2.5274,-2.5303,-2.5308,-2.5308,-2.5308,-2.5308,-2.5308,-2.5288,-2.5335,-2.5402,-2.5406,-2.5477,-2.5603,-2.5603,-2.5635,-2.5703,-2.5703,-2.5703,-2.5703,-2.5633,-2.5636,-2.5683,-2.5559,-2.5573,-2.5683,-2.5633,-2.5636,-2.5703,-2.5664,-2.5644,-2.5605,-2.5552,-2.5523,-2.5379,-2.4451,-2.4158,-2.3828,-2.2192,-2.1643,-2.1394,-2.0542,-2.0308,-2.0253,-2.0064,-1.9912,-1.9768,-1.9642,-1.9456,-1.9297,-1.9297,-1.9297,-1.9297,-1.9297,-1.9297,-1.9297,-1.9297,-1.9297,-1.9297,-1.9297,-1.9297,-1.9297,-1.9279,-1.926,-1.8967,-1.8151,-1.8052,-1.7759,-1.6963,-1.689,-1.653,-1.5753,-1.568,-1.5307,-1.453,-1.4493,-1.4493,-1.4517,-1.4775,-1.49,-1.4895,-1.5106,-1.5186,-1.518,-1.5186,-1.5192,-1.7808,-1.9373,-2.1139,-2.3457,-2.4673,-2.5253,-2.504,-2.4639,-2.4178,-2.3712,-2.3055,-2.2532,-2.2504,-2.287,-2.3286,-2.3612,-2.4215,-2.4667,-2.4771,-2.4889,-2.4943,-2.4979,-2.5111,-2.5219,-2.5284,-2.5248,-2.5224,-2.5284,-2.5308,-2.5308,-2.5308,-2.5308,-2.5308,-2.5308,-2.5308,-2.5326,-2.5398,-2.5406,-2.5474,-2.5602,-2.5657,-2.5659,-2.5634,-2.5634,-2.5605,-2.5563,-2.5547,-2.5549,-2.5561,-2.5526,-2.5535,-2.5566,-2.5597,-2.5607,-2.5636,-2.5683,-2.5662,-2.5611,-2.5558,-2.5496,-2.5404,-2.5054,-2.4575,-2.4022,-2.3454,-2.2466,-2.1475,-2.1186,-2.0614,-2.0097,-2.0022,-1.983,-1.9669,-1.9603,-1.9456,-1.9297,-1.9297,-1.9297,-1.9297,-1.9297,-1.9297,-1.9297,-1.9297,-1.9297,-1.9251,-1.9117,-1.9204,-1.9297,-1.9297,-1.9297,-1.9205,-1.893,-1.8911,-1.8794,-1.8519,-1.7997,-1.7355,-1.6548,-1.6004,-1.5343,-1.453,-1.4493,-1.4493,-1.4493,-1.4677,-1.4771,-1.4771,-1.4962,-1.5075,-1.5075,-1.5168,-1.5221,-1.9552,-2.09,-2.2115,-2.4654,-2.5308,-2.5264,-2.5141,-2.4828,-2.4493,-2.4266,-2.3142,-2.2319,-2.2729,-2.2813,-2.2997,-2.353,-2.4391,-2.4987,-2.4987,-2.5041,-2.5105,-2.5105,-2.5219,-2.5308,-2.5308,-2.5308,-2.5308,-2.5308,-2.5308,-2.5308,-2.5308,-2.5308,-2.5308,-2.5308,-2.5308,-2.5327,-2.5363,-2.5367,-2.5415,-2.5533,-2.5599,-2.5604,-2.5563,-2.5563,-2.5545,-2.551,-2.5465,-2.5488,-2.5508,-2.5453,-2.5462,-2.5496,-2.5551,-2.5563,-2.5567,-2.5636,-2.561,-2.5558,-2.5505,-2.5462,-2.5391,-2.5312,-2.4947,-2.449,-2.4187,-2.3317,-2.235,-2.2043,-2.1234,-2.0455,-2.0415,-2.0,-1.9576,-1.9513,-1.9387,-1.9297,-1.9297,-1.9297,-1.9297,-1.9297,-1.9297,-1.9297,-1.9297,-1.9297,-1.9269,-1.9125,-1.9158,-1.9148,-1.9056,-1.9132,-1.9198,-1.9198,-1.9251,-1.9297,-1.9297,-1.8831,-1.8188,-1.7385,-1.6566,-1.5766,-1.4952,-1.4658,-1.4493,-1.4493,-1.463,-1.4727,-1.4771,-1.4931,-1.5028,-1.5078,-1.5168,-1.5221,-2.0299,-2.1425,-2.2269,-2.4692,-2.5308,-2.5308,-2.5308,-2.5141,-2.4892,-2.4556,-2.3234,-2.226,-2.264,-2.257,-2.2705,-2.3498,-2.4574,-2.5308,-2.5308,-2.5308,-2.5308,-2.5308,-2.5308,-2.5308,-2.5308,-2.5308,-2.5308,-2.5308,-2.5308,-2.5308,-2.5308,-2.5308,-2.5308,-2.5308,-2.5308,-2.5308,-2.5308,-2.5293,-2.5335,-2.5402,-2.5474,-2.5508,-2.5486,-2.5486,-2.5484,-2.5495,-2.5421,-2.5434,-2.549,-2.5346,-2.5364,-2.5481,-2.5484,-2.5486,-2.5493,-2.5566,-2.5554,-2.5486,-2.5486,-2.5456,-2.5383,-2.5327,-2.5308,-2.5154,-2.4394,-2.4129,-2.3937,-2.3105,-2.213,-2.1325,-2.1202,-2.0433,-1.9646,-1.9416,-1.9352,-1.9352,-1.9315,-1.9297,-1.9297,-1.9297,-1.9297,-1.9297,-1.9297,-1.9297,-1.9297,-1.9282,-1.9117,-1.8914,-1.8642,-1.8825,-1.8975,-1.8975,-1.9158,-1.9266,-1.9266,-1.9266,-1.8936,-1.813,-1.7316,-1.6517,-1.5735,-1.494,-1.4493,-1.4493,-1.4624,-1.4761,-1.4904,-1.4954,-1.5071,-1.5192,-1.5192,-1.5192,-2.16,-2.3133,-2.45,-2.5135,-2.5308,-2.5308,-2.5308,-2.5061,-2.4509,-2.3284,-2.2105,-2.0797,-1.9124,-2.0422,-2.1625,-2.1261,-2.3496,-2.5308,-2.5308,-2.5308,-2.5308,-2.5308,-2.5308,-2.5308,-2.5308,-2.5308,-2.5308,-2.5308,-2.5308,-2.5308,-2.5308,-2.5308,-2.5308,-2.5308,-2.5308,-2.5308,-2.5308,-2.5346,-2.5383,-2.5409,-2.5477,-2.5463,-2.5437,-2.5437,-2.5398,-2.5342,-2.533,-2.5335,-2.5361,-2.5313,-2.5327,-2.5354,-2.5409,-2.5421,-2.5438,-2.5491,-2.5473,-2.5425,-2.5441,-2.5404,-2.5391,-2.5312,-2.5308,-2.5269,-2.5058,-2.4586,-2.4052,-2.3841,-2.2944,-2.2048,-2.1991,-2.1614,-2.1062,-2.0362,-2.0181,-2.0034,-1.9426,-1.9297,-1.9297,-1.9297,-1.9297,-1.9297,-1.9297,-1.9297,-1.9243,-1.9111,-1.9026,-1.8984,-1.8914,-1.878,-1.8706,-1.8706,-1.8753,-1.8789,-1.8789,-1.8789,-1.8501,-1.7848,-1.7054,-1.6323,-1.5729,-1.494,-1.4493,-1.4493,-1.4533,-1.468,-1.4904,-1.4915,-1.5023,-1.5192,-1.5192,-1.5192,-2.3068,-2.4324,-2.5308,-2.5308,-2.5308,-2.5019,-2.3885,-2.3733,-2.3169,-2.0862,-1.9915,-1.9008,-1.7303,-1.918,-2.0827,-2.0365,-2.3115,-2.5308,-2.5308,-2.5308,-2.5308,-2.5308,-2.5308,-2.5308,-2.5308,-2.5308,-2.5308,-2.5308,-2.5308,-2.5308,-2.5308,-2.5308,-2.5308,-2.5308,-2.5308,-2.5308,-2.5308,-2.5344,-2.5359,-2.5359,-2.5398,-2.5391,-2.537,-2.537,-2.5335,-2.5308,-2.5308,-2.5308,-2.5308,-2.5308,-2.5308,-2.5317,-2.5379,-2.5376,-2.5352,-2.5434,-2.5408,-2.5359,-2.535,-2.5354,-2.5346,-2.5313,-2.5308,-2.5308,-2.5308,-2.4981,-2.4611,-2.4518,-2.3686,-2.2814,-2.2743,-2.2272,-2.1684,-2.1198,-2.0786,-2.0382,-1.9932,-1.9546,-1.9297,-1.9297,-1.9297,-1.9266,-1.919,-1.9166,-1.9092,-1.8852,-1.8725,-1.8659,-1.8659,-1.8725,-1.878,-1.878,-1.8851,-1.8904,-1.8904,-1.8904,-1.8757,-1.8427,-1.7656,-1.6918,-1.6248,-1.5447,-1.486,-1.4512,-1.4493,-1.4619,-1.4904,-1.4904,-1.4996,-1.5192,-1.5192,-1.5192,-2.44,-2.5037,-2.5269,-2.5284,-2.5308,-2.4654,-2.2235,-2.2044,-2.1479,-1.8216,-1.7367,-1.6976,-1.6141,-1.808,-1.9865,-2.0096,-2.2846,-2.5058,-2.5269,-2.5308,-2.5308,-2.5308,-2.5308,-2.5308,-2.5308,-2.5308,-2.5308,-2.5308,-2.5308,-2.5308,-2.5308,-2.5308,-2.5308,-2.5308,-2.5308,-2.5308,-2.5308,-2.5308,-2.5308,-2.5308,-2.5308,-2.5308,-2.5308,-2.5308,-2.5308,-2.5308,-2.5308,-2.5308,-2.5308,-2.5308,-2.5308,-2.5317,-2.5363,-2.5342,-2.5303,-2.5375,-2.5346,-2.5308,-2.5308,-2.5308,-2.5308,-2.5308,-2.5308,-2.5303,-2.5269,-2.5264,-2.5214,-2.5036,-2.4327,-2.3601,-2.3497,-2.2784,-2.2088,-2.1978,-2.1308,-2.0639,-2.0521,-1.9853,-1.9243,-1.9219,-1.9212,-1.9148,-1.8984,-1.8949,-1.8878,-1.865,-1.84,-1.8249,-1.8249,-1.8595,-1.8834,-1.8834,-1.9007,-1.9095,-1.9095,-1.9095,-1.9121,-1.9154,-1.8421,-1.7713,-1.7032,-1.626,-1.5527,-1.4824,-1.4714,-1.4775,-1.5024,-1.4934,-1.4976,-1.5177,-1.5177,-1.5183,-2.4685,-2.4917,-2.5094,-2.5264,-2.5308,-2.4827,-2.2985,-2.1942,-2.0486,-1.7353,-1.5952,-1.4883,-1.3591,-1.5448,-1.7603,-1.9011,-2.1489,-2.3716,-2.5115,-2.5308,-2.5308,-2.5308,-2.5308,-2.5308,-2.5308,-2.5308,-2.5308,-2.5308,-2.5308,-2.5308,-2.5308,-2.5308,-2.5308,-2.5308,-2.5308,-2.5308,-2.5308,-2.5308,-2.5308,-2.5308,-2.5308,-2.5308,-2.5308,-2.5308,-2.5308,-2.5308,-2.5308,-2.5308,-2.5308,-2.5308,-2.5308,-2.5308,-2.5313,-2.5308,-2.5308,-2.5313,-2.5308,-2.5308,-2.5308,-2.5308,-2.5308,-2.5308,-2.5308,-2.5269,-2.5099,-2.5046,-2.501,-2.4883,-2.4595,-2.4329,-2.4307,-2.4033,-2.3621,-2.296,-2.2171,-2.1382,-2.0658,-1.9749,-1.9001,-1.8762,-1.8725,-1.8716,-1.8688,-1.8678,-1.8642,-1.8622,-1.8556,-1.8528,-1.8528,-1.8218,-1.8014,-1.8014,-1.804,-1.8055,-1.8055,-1.8055,-1.8149,-1.8383,-1.7834,-1.752,-1.7563,-1.7001,-1.6633,-1.6487,-1.5833,-1.5575,-1.5738,-1.5068,-1.4849,-1.5035,-1.5035,-1.5092,-2.4746,-2.4897,-2.5022,-2.5111,-2.5219,-2.4361,-2.0762,-1.9887,-1.856,-1.4003,-1.333,-1.3097,-1.1571,-1.414,-1.6756,-1.7564,-2.0566,-2.324,-2.4505,-2.5038,-2.5308,-2.5308,-2.5308,-2.5308,-2.5308,-2.5308,-2.5308,-2.5308,-2.5308,-2.5308,-2.5308,-2.5308,-2.5308,-2.5308,-2.5308,-2.5308,-2.5308,-2.5308,-2.5308,-2.5308,-2.5308,-2.5308,-2.5308,-2.5308,-2.5327,-2.5346,-2.5317,-2.5327,-2.5346,-2.5317,-2.5308,-2.5308,-2.5308,-2.5308,-2.5308,-2.5308,-2.5308,-2.5308,-2.5308,-2.5224,-2.5146,-2.5146,-2.5146,-2.5135,-2.5028,-2.4949,-2.4857,-2.4682,-2.4567,-2.4478,-2.4366,-2.4135,-2.3836,-2.3454,-2.232,-2.1102,-2.0263,-1.9398,-1.8752,-1.8614,-1.8595,-1.8556,-1.842,-1.8391,-1.8341,-1.8198,-1.8177,-1.8177,-1.8177,-1.796,-1.7922,-1.8187,-1.8218,-1.8218,-1.8218,-1.8218,-1.827,-1.84,-1.8166,-1.7924,-1.7705,-1.7447,-1.7187,-1.6902,-1.653,-1.6386,-1.6512,-1.6133,-1.5846,-1.5617,-1.5617,-1.5463,-2.4678,-2.4836,-2.4955,-2.4955,-2.513,-2.3933,-1.8753,-1.8027,-1.6873,-1.132,-1.1074,-1.1535,-1.0461,-1.3084,-1.5698,-1.6603,-1.9546,-2.2278,-2.3879,-2.4639,-2.5115,-2.5288,-2.5308,-2.5308,-2.5308,-2.5308,-2.5308,-2.5308,-2.5308,-2.5308,-2.5308,-2.5308,-2.5308,-2.5308,-2.5308,-2.5308,-2.5308,-2.5308,-2.5308,-2.5308,-2.5308,-2.5308,-2.5308,-2.5308,-2.5339,-2.5406,-2.5326,-2.5344,-2.5383,-2.5321,-2.5308,-2.5308,-2.5308,-2.5308,-2.5308,-2.5308,-2.5308,-2.5308,-2.5308,-2.5163,-2.5004,-2.5004,-2.4986,-2.4949,-2.4911,-2.4816,-2.4693,-2.4495,-2.4445,-2.4374,-2.4143,-2.3896,-2.3646,-2.3401,-2.21,-2.0665,-1.9794,-1.9027,-1.8499,-1.844,-1.843,-1.8361,-1.8146,-1.8103,-1.8029,-1.7833,-1.78,-1.78,-1.78,-1.78,-1.796,-1.8381,-1.843,-1.843,-1.843,-1.843,-1.843,-1.843,-1.8479,-1.833,-1.7901,-1.7941,-1.7799,-1.7422,-1.7238,-1.7214,-1.7318,-1.7133,-1.6735,-1.6133,-1.6133,-1.5787,-2.4469,-2.467,-2.4825,-2.4825,-2.5068,-2.4101,-1.9511,-1.8037,-1.6377,-1.1983,-1.0568,-1.0343,-1.1046,-1.1566,-1.312,-1.6968,-1.7911,-1.9565,-2.3533,-2.4168,-2.449,-2.5212,-2.5308,-2.5308,-2.5308,-2.5308,-2.5308,-2.5308,-2.5308,-2.5308,-2.5308,-2.5308,-2.5308,-2.5308,-2.5308,-2.5308,-2.5308,-2.5308,-2.5308,-2.5308,-2.5308,-2.5308,-2.5308,-2.5308,-2.5339,-2.5406,-2.5326,-2.5344,-2.5383,-2.5321,-2.5308,-2.5308,-2.5308,-2.5308,-2.5308,-2.5308,-2.5308,-2.5308,-2.5308,-2.5163,-2.5004,-2.5004,-2.4923,-2.4778,-2.4607,-2.4534,-2.4486,-2.4284,-2.4228,-2.4152,-2.3827,-2.3714,-2.3448,-2.2389,-2.1518,-2.0622,-1.956,-1.8766,-1.8156,-1.7916,-1.7861,-1.7878,-1.7845,-1.7845,-1.7833,-1.78,-1.78,-1.78,-1.78,-1.78,-1.7822,-1.7861,-1.7861,-1.7861,-1.7861,-1.7861,-1.7861,-1.7861,-1.8093,-1.8316,-1.8507,-1.8753,-1.8939,-1.9069,-1.8353,-1.8005,-1.8008,-1.7259,-1.6577,-1.5937,-1.5937,-1.5567,-2.4305,-2.4569,-2.4615,-2.4615,-2.4417,-2.3183,-1.9201,-1.7427,-1.5536,-1.1785,-1.039,-1.0123,-1.1073,-1.128,-1.2412,-1.567,-1.6638,-1.7927,-2.0658,-2.1908,-2.2851,-2.3697,-2.4255,-2.4774,-2.525,-2.5308,-2.5308,-2.5308,-2.5308,-2.5308,-2.5308,-2.5308,-2.5308,-2.5308,-2.5308,-2.5308,-2.5308,-2.5308,-2.5308,-2.5308,-2.5308,-2.5308,-2.5308,-2.5308,-2.5339,-2.5398,-2.5321,-2.5344,-2.5383,-2.5321,-2.5308,-2.5308,-2.5308,-2.5308,-2.5308,-2.5308,-2.5308,-2.5308,-2.5308,-2.5126,-2.4871,-2.4871,-2.4682,-2.4462,-2.4486,-2.4419,-2.4303,-2.4218,-2.419,-2.4113,-2.3795,-2.3403,-2.2938,-2.2332,-2.1256,-2.0233,-1.9816,-1.8785,-1.7927,-1.7822,-1.78,-1.78,-1.78,-1.78,-1.78,-1.78,-1.78,-1.78,-1.78,-1.78,-1.78,-1.78,-1.78,-1.78,-1.78,-1.78,-1.78,-1.78,-1.7894,-1.8089,-1.8351,-1.846,-1.8642,-1.8869,-1.8708,-1.8629,-1.8629,-1.8433,-1.775,-1.6624,-1.6624,-1.5999,-2.4153,-2.4452,-2.4486,-2.4436,-2.3952,-2.2541,-1.8922,-1.7003,-1.5028,-1.1608,-1.0312,-1.0015,-1.0694,-1.0872,-1.1768,-1.4395,-1.5327,-1.6673,-1.9362,-2.0558,-2.1658,-2.3028,-2.3725,-2.4317,-2.4889,-2.5154,-2.5308,-2.5308,-2.5308,-2.5308,-2.5308,-2.5308,-2.5308,-2.5308,-2.5308,-2.5308,-2.5308,-2.5308,-2.5308,-2.5308,-2.5308,-2.5308,-2.5308,-2.5308,-2.5335,-2.5395,-2.5321,-2.5344,-2.5383,-2.5321,-2.5308,-2.5308,-2.5308,-2.5308,-2.5308,-2.5308,-2.5308,-2.5308,-2.5308,-2.5086,-2.4804,-2.4804,-2.4537,-2.4228,-2.4366,-2.4312,-2.419,-2.419,-2.4064,-2.3827,-2.35,-2.3002,-2.2523,-2.2349,-2.1299,-2.0352,-2.0352,-1.9169,-1.8132,-1.8132,-1.7952,-1.78,-1.78,-1.78,-1.78,-1.78,-1.78,-1.78,-1.78,-1.78,-1.78,-1.78,-1.78,-1.78,-1.78,-1.78,-1.78,-1.78,-1.78,-1.7916,-1.8187,-1.8198,-1.833,-1.8585,-1.8789,-1.8887,-1.8887,-1.9109,-1.8408,-1.6914,-1.6997,-1.6205,-2.3969,-2.4339,-2.4444,-2.4238,-2.3851,-2.2541,-1.8922,-1.7003,-1.5028,-1.1608,-1.0312,-0.9821,-0.99,-0.9963,-1.0878,-1.3487,-1.3918,-1.5689,-2.075,-2.0808,-2.1254,-2.3783,-2.4091,-2.411,-2.411,-2.4832,-2.5308,-2.5308,-2.5308,-2.5308,-2.5308,-2.5308,-2.5308,-2.5308,-2.5308,-2.5308,-2.5308,-2.5308,-2.5308,-2.5308,-2.5308,-2.5308,-2.5308,-2.5308,-2.5335,-2.5395,-2.5321,-2.5344,-2.5383,-2.5321,-2.5308,-2.5308,-2.5308,-2.5308,-2.5308,-2.5308,-2.5308,-2.5308,-2.5308,-2.5086,-2.4804,-2.4804,-2.4537,-2.419,-2.4199,-2.419,-2.419,-2.419,-2.3714,-2.3129,-2.2797,-2.2514,-2.231,-2.2296,-2.1735,-2.119,-2.119,-1.9989,-1.8888,-1.8888,-1.8302,-1.78,-1.78,-1.78,-1.78,-1.78,-1.78,-1.78,-1.78,-1.78,-1.78,-1.78,-1.78,-1.78,-1.78,-1.78,-1.78,-1.78,-1.78,-1.7916,-1.8187,-1.8198,-1.833,-1.8585,-1.8595,-1.8595,-1.8595,-1.8861,-1.8146,-1.652,-1.6775,-1.5932,-2.1593,-2.2158,-2.2357,-2.115,-2.0731,-2.0029,-1.7794,-1.6079,-1.4354,-1.2164,-1.0656,-0.9928,-1.0599,-1.0248,-1.1122,-1.4973,-1.5101,-1.6115,-2.0111,-2.0923,-2.1639,-2.3047,-2.4216,-2.4928,-2.4928,-2.5154,-2.5308,-2.5308,-2.5308,-2.5248,-2.5099,-2.5219,-2.5308,-2.5308,-2.5308,-2.5308,-2.5308,-2.5308,-2.5308,-2.5308,-2.5308,-2.5308,-2.5308,-2.5308,-2.5308,-2.5326,-2.5303,-2.5313,-2.5326,-2.5303,-2.5308,-2.5308,-2.5308,-2.5308,-2.5308,-2.5308,-2.5214,-2.5111,-2.5259,-2.4993,-2.4615,-2.476,-2.4537,-2.419,-2.419,-2.419,-2.4151,-2.3917,-2.3544,-2.3129,-2.2784,-2.25,-2.2296,-2.2296,-2.1735,-2.119,-2.119,-1.9989,-1.8894,-1.8894,-1.829,-1.78,-1.78,-1.78,-1.78,-1.78,-1.78,-1.78,-1.78,-1.78,-1.7704,-1.7474,-1.7467,-1.7549,-1.7789,-1.78,-1.78,-1.78,-1.78,-1.7845,-1.7916,-1.7927,-1.7971,-1.8057,-1.8229,-1.833,-1.833,-1.8612,-1.8244,-1.7301,-1.6703,-1.6184,-1.9887,-2.0666,-2.0978,-1.9646,-1.9297,-1.8801,-1.6878,-1.5191,-1.3581,-1.198,-1.0612,-0.9887,-1.0501,-1.0166,-1.0824,-1.3965,-1.4287,-1.5459,-1.9265,-2.0235,-2.1239,-2.3067,-2.4216,-2.4962,-2.5269,-2.5308,-2.5269,-2.5179,-2.5198,-2.5113,-2.4924,-2.5082,-2.5198,-2.5198,-2.5264,-2.5308,-2.5308,-2.5308,-2.5308,-2.5308,-2.5308,-2.5308,-2.5308,-2.5308,-2.5308,-2.5308,-2.5308,-2.5308,0.0,-2.5308,-2.5308,-2.5308,-2.5308,-2.5308,-2.5308,-2.5308,-2.5168,-2.5028,-2.5224,-2.4955,-2.4537,-2.4738,-2.4537,-2.419,-2.419,-2.419,-2.4103,-2.3649,-2.3357,-2.3093,-2.2652,-2.2426,-2.2296,-2.2296,-2.1955,-2.163,-2.163,-2.0649,-1.9769,-1.9769,-1.9164,-1.8628,-1.8628,-1.8391,-1.8171,-1.8054,-1.7779,-1.7577,-1.7432,-1.742,-1.7349,-1.7138,-1.7113,-1.7199,-1.7396,-1.7537,-1.767,-1.7789,-1.78,-1.7738,-1.7624,-1.7726,-1.7738,-1.7607,-1.7899,-1.8057,-1.8057,-1.8014,-1.7859,-1.7564,-1.6631,-1.6235,0.0,-1.9531,-2.0034,-1.9161,-1.9003,-1.8434,-1.6066,-1.4364,0.0,-1.1223,-1.026,-0.9762,-1.0012,-0.9915,-1.0231,-1.1598,-1.2406,-1.4354,-1.8677,-1.9377,-2.0646,-2.3898,-2.4225,-2.4509,-2.5308,-2.5317,-2.5203,-2.5016,-2.4998,-2.4936,-2.479,-2.4917,-2.4986,-2.4955,-2.5163,-2.5298,-2.5308,-2.5308,-2.5308,-2.5308,-2.5308,-2.5308,-2.5308,-2.5308,-2.5308,-2.5308,-2.5308,-2.5308,-2.5308,-2.5308,-2.5308,-2.5308,-2.5308,-2.5308,-2.5308,-2.5308,-2.5168,-2.5028,-2.5224,-2.4955,-2.4537,-2.47,-2.4503,-2.419,-2.419,-2.418,-2.4026,-2.338,-2.3177,-2.3038,-2.2457,-2.2296,-2.2296,-2.2296,-2.2296,-2.2296,-2.2296,-2.1718,-2.119,-2.119,-2.0538,-2.0002,-2.0002,-1.941,-1.8828,-1.8517,-1.7848,-1.7281,-1.6921,-1.6869,-1.6853,-1.6763,-1.6763,-1.6763,-1.6763,-1.7076,-1.7392,-1.7704,-1.7732,-1.7584,-1.7284,-1.7561,-1.7584,-1.7308,-1.7635,-1.78,-1.78,-1.7295,-1.7192,-1.7444,-1.6659,-1.6229,-1.4419,0.0,-1.7403,-1.5979,-1.6096,-1.6084,0.0,-1.3574,-1.2839,-1.1223,-1.026,-1.0276,-1.2133,-1.0963,-1.1295,-1.6097,-1.6565,-1.7637,-2.138,-2.3004,-2.437,-2.5832,-2.5428,-2.5346,-2.6212,-2.5546,-2.5046,-2.4991,-2.4904,-2.4763,-2.4575,-2.4741,-2.4778,-2.462,-2.4911,-2.5146,-2.5303,-2.5308,-2.5308,-2.5308,-2.5308,-2.5308,-2.5308,-2.5308,-2.5308,-2.5308,-2.5308,-2.5308,-2.5308,-2.5308,-2.5308,-2.5308,-2.5308,-2.5308,-2.5308,-2.5308,-2.5168,-2.5028,-2.5224,-2.4955,-2.4478,-2.4375,-2.4275,-2.419,-2.419,-2.4016,-2.3724,-2.3323,-2.3021,-2.2738,-2.2388,-2.2296,-2.2296,-2.2296,-2.2296,-2.2296,-2.2296,-2.1718,-2.119,-2.119,-2.0538,-2.0002,-2.0002,-1.9603,-1.9247,-1.918,-1.8748,-1.8221,-1.7638,-1.7561,-1.7259,-1.6497,-1.6423,-1.6423,-1.6423,-1.6709,-1.6939,-1.703,-1.7043,-1.7005,-1.693,-1.6993,-1.713,-1.7296,-1.7635,-1.78,-1.78,-1.7669,-1.7751,-1.8001,-1.7611,-1.7514,-1.2519,-1.4742,-1.6921,-1.5354,-1.5892,-1.6279,-1.4303,-1.3275,-1.2283,-1.0682,-1.0007,-1.0213,-1.1898,-1.1732,-1.2539,-1.6167,-1.738,-1.913,-2.2756,-2.4706,-2.5931,-2.6408,-2.5969,-2.5653,-2.5767,-2.5254,-2.4877,-2.4769,-2.4704,-2.4567,-2.4375,-2.4543,-2.4607,-2.4503,-2.4824,-2.5046,-2.5157,-2.5259,-2.5308,-2.5308,-2.5308,-2.5308,-2.5308,-2.5308,-2.5308,-2.5308,-2.5308,-2.5308,-2.5284,-2.5203,-2.5214,-2.5279,-2.5203,-2.5163,-2.5163,-2.5163,-2.4999,-2.4804,-2.5065,-2.493,-2.4583,-2.4294,-2.4094,-2.3996,-2.4161,-2.3746,-2.3242,-2.32,-2.296,-2.2634,-2.236,-2.2296,-2.2296,-2.2296,-2.2296,-2.2296,-2.2296,-2.1989,-2.1643,-2.1429,-2.1207,-2.0938,-2.053,-2.0148,-1.9794,-1.945,-1.8911,-1.8232,-1.74,-1.7294,-1.6973,-1.6157,-1.6081,-1.6081,-1.6081,-1.6232,-1.6461,-1.6776,-1.6802,-1.6725,-1.6581,-1.6725,-1.6892,-1.7064,-1.7408,-1.7572,-1.7572,-1.7715,-1.7861,-1.8014,-1.7861,-1.7872,-1.2102,-1.4774,-1.7289,-1.5531,-1.6481,-1.7208,-1.4824,-1.3235,-1.1861,-1.0378,-1.0066,-1.0466,-1.1755,-1.2811,-1.3974,-1.5477,-1.7504,-2.0082,-2.3479,-2.5171,-2.6122,-2.6244,-2.5991,-2.5605,-2.5042,-2.485,-2.4685,-2.452,-2.4469,-2.4384,-2.4199,-2.4357,-2.4452,-2.4452,-2.4754,-2.4943,-2.4968,-2.5192,-2.5308,-2.5308,-2.5308,-2.5308,-2.5308,-2.5308,-2.5279,-2.5259,-2.5259,-2.5248,-2.5217,-2.5041,-2.5065,-2.5217,-2.5041,-2.4968,-2.4968,-2.4968,-2.4795,-2.4583,-2.4838,-2.485,-2.4693,-2.433,-2.3976,-2.3746,-2.4044,-2.3466,-2.2759,-2.3045,-2.2885,-2.2586,-2.2363,-2.2296,-2.2296,-2.2296,-2.2296,-2.2282,-2.2209,-2.2194,-2.2063,-2.1598,-2.184,-2.1871,-2.1134,-2.0695,-2.0261,-1.9623,-1.8902,-1.8051,-1.6997,-1.6845,-1.6577,-1.5888,-1.5799,-1.5799,-1.5799,-1.5799,-1.6039,-1.6607,-1.6646,-1.6514,-1.6232,-1.6541,-1.6751,-1.6802,-1.7076,-1.726,-1.7308,-1.7526,-1.7647,-1.7647,-1.7692,-1.7715,-1.3031,-1.5167,-1.6642,-1.3898,-1.4949,-1.6062,-1.375,-1.3165,-1.2858,-1.1916,-1.1732,-1.2811,-1.6346,-1.5521,-1.5735,-2.007,-2.1237,-2.2315,-2.4353,-2.4877,-2.5274,-2.5962,-2.5423,-2.5193,-2.5767,-2.504,-2.4537,-2.4503,-2.433,-2.4237,-2.419,-2.4228,-2.4256,-2.4256,-2.4469,-2.4651,-2.4821,-2.5143,-2.5308,-2.5308,-2.5308,-2.5308,-2.5308,-2.5308,-2.5208,-2.504,-2.504,-2.4981,-2.4862,-2.4835,-2.4842,-2.4862,-2.4835,-2.4828,-2.4828,-2.4828,-2.4804,-2.4738,-2.4623,-2.4559,-2.4512,-2.4294,-2.3976,-2.3703,-2.3764,-2.3271,-2.2708,-2.2759,-2.2577,-2.2349,-2.231,-2.2296,-2.2296,-2.2296,-2.2296,-2.2194,-2.1794,-2.1703,-2.1583,-2.1166,-2.115,-2.1166,-2.1007,-2.0636,-2.0278,-2.0176,-1.9756,-1.8996,-1.7713,-1.7548,-1.7101,-1.5933,-1.5799,-1.5799,-1.5799,-1.5799,-1.5842,-1.5941,-1.5941,-1.5926,-1.5885,-1.6205,-1.6501,-1.6789,-1.6853,-1.7014,-1.7308,-1.7064,-1.6955,-1.6968,-1.7248,-1.738,-1.1121,-1.3008,-1.4813,-1.3465,-1.5966,-1.8393,-1.6903,-1.6107,-1.532,-1.4046,-1.3925,-1.4738,-1.7025,-1.7264,-1.8412,-2.2479,-2.3318,-2.3877,-2.5115,-2.5287,-2.541,-2.578,-2.542,-2.5111,-2.5026,-2.4605,-2.4348,-2.4348,-2.4256,-2.419,-2.419,-2.419,-2.419,-2.419,-2.4401,-2.4534,-2.4631,-2.4968,-2.5198,-2.5308,-2.5308,-2.5308,-2.5308,-2.5308,-2.5253,-2.5157,-2.504,-2.4968,-2.4897,-2.4712,-2.47,-2.479,-2.4678,-2.4639,-2.4623,-2.452,-2.4534,-2.4607,-2.441,-2.4419,-2.4444,-2.4039,-2.3703,-2.3426,-2.3426,-2.2995,-2.2514,-2.266,-2.2514,-2.2296,-2.2296,-2.2296,-2.2237,-2.1988,-2.1913,-2.1794,-2.1385,-2.1275,-2.115,-2.0699,-2.0829,-2.0845,-2.0379,-2.0296,-2.0229,-2.0017,-1.9836,-1.9211,-1.7878,-1.7713,-1.7205,-1.5948,-1.5799,-1.5799,-1.5799,-1.5799,-1.5799,-1.5799,-1.5799,-1.5799,-1.5799,-1.5941,-1.6094,-1.626,-1.645,-1.6607,-1.676,-1.6789,-1.6892,-1.7076,-1.7236,-1.7392,-1.0161,-1.1635,-1.3515,-1.404,-1.6932,-1.9587,-1.9311,-1.8305,-1.719,-1.6256,-1.6316,-1.6848,-1.7869,-1.9363,-2.128,-2.3786,-2.4339,-2.4631,-2.5261,-2.5355,-2.5337,-2.5354,-2.5198,-2.4879,-2.4263,-2.419,-2.419,-2.419,-2.419,-2.419,-2.419,-2.419,-2.419,-2.419,-2.4339,-2.4444,-2.4503,-2.4747,-2.5011,-2.5224,-2.5274,-2.5274,-2.5224,-2.5224,-2.5187,-2.5096,-2.4943,-2.4865,-2.4785,-2.4543,-2.4528,-2.4639,-2.4486,-2.4436,-2.4419,-2.4266,-2.4294,-2.441,-2.4238,-2.4247,-2.4238,-2.384,-2.3414,-2.3081,-2.3081,-2.2708,-2.2349,-2.255,-2.2378,-2.2135,-2.2135,-2.2135,-2.2017,-2.1568,-2.146,-2.1337,-2.0926,-2.0845,-2.0715,-2.0261,-2.0448,-2.0481,-1.9818,-1.9962,-2.0037,-1.9747,-1.9708,-1.9271,-1.8087,-1.7803,-1.7265,-1.6129,-1.5888,-1.5755,-1.5653,-1.5741,-1.5755,-1.5639,-1.5741,-1.5799,-1.5799,-1.5799,-1.5842,-1.5927,-1.608,-1.6219,-1.6301,-1.6474,-1.6712,-1.6948,-1.7023,-1.7199,-1.2719,-1.3227,-1.3887,-1.5954,-1.637,-1.6603,-1.7911,-1.7418,-1.7044,-1.8357,-1.8845,-1.9536,-2.1151,-2.2767,-2.3914,-2.4153,-2.4209,-2.4237,-2.4301,-2.431,-2.431,-2.432,-2.4301,-2.4263,-2.4208,-2.419,-2.419,-2.419,-2.419,-2.419,-2.419,-2.419,-2.419,-2.419,-2.4209,-2.4312,-2.4503,-2.4518,-2.47,-2.5022,-2.5214,-2.5208,-2.5022,-2.5022,-2.4852,-2.4551,-2.4534,-2.4426,-2.4257,-2.4237,-2.4228,-2.4247,-2.4228,-2.4218,-2.4218,-2.4218,-2.4209,-2.4218,-2.4218,-2.4006,-2.3756,-2.3714,-2.3259,-2.2733,-2.2733,-2.2541,-2.231,-2.2307,-2.2001,-2.1658,-2.1658,-2.1658,-2.1553,-2.1134,-2.1039,-2.0926,-2.0449,-2.0348,-2.0229,-1.9836,-1.9764,-1.9764,-1.9708,-1.9711,-1.9729,-1.9693,-1.9708,-1.9453,-1.8732,-1.8087,-1.7428,-1.6696,-1.6129,-1.5624,-1.5195,-1.5551,-1.561,-1.518,-1.5566,-1.5799,-1.5799,-1.5799,-1.5956,-1.626,-1.5983,-1.5983,-1.6301,-1.6011,-1.587,-1.5912,-1.6232,-1.638,-1.1248,-1.2322,-1.3709,-1.5003,-1.6214,-1.7509,-1.9216,-1.9808,-2.0362,-2.163,-2.1725,-2.1785,-2.2428,-2.3456,-2.419,-2.419,-2.419,-2.419,-2.419,-2.419,-2.419,-2.419,-2.419,-2.419,-2.419,-2.419,-2.419,-2.419,-2.419,-2.419,-2.419,-2.419,-2.419,-2.419,-2.419,-2.4237,-2.4312,-2.4445,-2.4567,-2.4693,-2.4896,-2.4949,-2.4889,-2.4889,-2.4814,-2.4678,-2.4543,-2.4452,-2.4375,-2.4256,-2.419,-2.419,-2.419,-2.419,-2.419,-2.419,-2.419,-2.417,-2.3947,-2.3806,-2.3621,-2.3212,-2.291,-2.2673,-2.25,-2.2374,-2.2237,-2.1943,-2.1733,-2.1597,-2.1597,-2.1414,-2.1118,-2.0666,-2.0566,-2.0449,-2.0017,-1.9927,-1.9874,-1.9744,-1.9708,-1.9708,-1.9708,-1.9708,-1.9708,-1.9708,-1.9424,-1.8954,-1.8293,-1.7687,-1.7038,-1.633,-1.5995,-1.5741,-1.5551,-1.5433,-1.5404,-1.5536,-1.5712,-1.5799,-1.5799,-1.5799,-1.5856,-1.5983,-1.587,-1.587,-1.5983,-1.587,-1.5913,-1.6108,-1.6246,-1.6407,-1.1275,-1.2381,-1.398,-1.4952,-1.6339,-1.8018,-2.0174,-2.1147,-2.1963,-2.3274,-2.345,-2.3354,-2.3232,-2.3765,-2.419,-2.419,-2.419,-2.419,-2.419,-2.419,-2.419,-2.419,-2.419,-2.419,-2.419,-2.4103,-2.4036,-2.4036,-2.4036,-2.3996,-2.3896,-2.3986,-2.4036,-2.4036,-2.4036,-2.4094,-2.419,-2.4348,-2.441,-2.441,-2.4534,-2.4639,-2.4708,-2.4708,-2.467,-2.4599,-2.4461,-2.441,-2.4401,-2.4266,-2.419,-2.419,-2.419,-2.419,-2.419,-2.419,-2.4123,-2.4006,-2.3785,-2.3555,-2.3311,-2.2878,-2.2665,-2.2537,-2.2363,-2.2194,-2.2017,-2.1688,-2.1398,-2.1197,-2.1197,-2.0991,-2.0665,-2.0227,-2.0106,-2.0035,-1.9764,-1.9708,-1.9708,-1.9708,-1.9708,-1.9708,-1.9708,-1.9708,-1.9708,-1.9708,-1.9387,-1.899,-1.8535,-1.7963,-1.7256,-1.6327,-1.6036,-1.5802,-1.5595,-1.527,-1.518,-1.5389,-1.5653,-1.5799,-1.5799,-1.5799,-1.5799,-1.5799,-1.5799,-1.5799,-1.5799,-1.5799,-1.5912,-1.6136,-1.6136,-1.6274,-1.3574,-1.3921,-1.4858,-1.6316,-1.6716,-1.75,-2.0353,-2.0743,-2.1028,-2.2841,-2.3742,-2.4094,-2.3774,-2.3986,-2.419,-2.4208,-2.419,-2.419,-2.419,-2.4208,-2.419,-2.4208,-2.419,-2.419,-2.4208,-2.3896,-2.3692,-2.3692,-2.3692,-2.3555,-2.3212,-2.3522,-2.3692,-2.3703,-2.3703,-2.3847,-2.4208,-2.419,-2.419,-2.419,-2.419,-2.4303,-2.4495,-2.4495,-2.4393,-2.419,-2.419,-2.419,-2.419,-2.419,-2.419,-2.4208,-2.419,-2.419,-2.4208,-2.4208,-2.3986,-2.3692,-2.3692,-2.3265,-2.2708,-2.276,-2.2561,-2.2296,-2.2296,-2.1974,-2.1582,-2.1582,-2.0975,-2.0297,-2.0297,-2.0297,-2.0177,-1.98,-1.9708,-1.9708,-1.9708,-1.9708,-1.9708,-1.9708,-1.9708,-1.9708,-1.9708,-1.9708,-1.9708,-1.9708,-1.9708,-1.969,-1.969,-1.9089,-1.8192,-1.6845,-1.6339,-1.5827,-1.5162,-1.5089,-1.4922,-1.4533,-1.5314,-1.5784,-1.5784,-1.5799,-1.5799,-1.5799,-1.5799,-1.5799,-1.5799,-1.5799,-1.5799,-1.5799,-1.5799,-1.5799,-1.2,-1.3481,-1.5375,-1.5825,-1.8302,-2.0734,-2.1053,-2.1599,-2.2489,-2.4005,-2.4529,-2.4558,-2.4125,-2.4123,-2.4113,-2.3886,-2.4054,-2.4044,-2.3566,-2.3907,-2.4103,-2.3886,-2.4064,-2.4103,-2.3876,-2.3764,-2.3599,-2.3369,-2.3357,-2.3294,-2.32,-2.3282,-2.3466,-2.3692,-2.3703,-2.3847,-2.4208,-2.419,-2.419,-2.419,-2.419,-2.4228,-2.4284,-2.4284,-2.4266,-2.419,-2.419,-2.419,-2.419,-2.419,-2.4064,-2.3876,-2.4103,-2.4064,-2.3837,-2.3837,-2.3785,-2.3621,-2.3153,-2.2873,-2.2673,-2.2508,-2.2161,-2.1809,-2.1809,-2.1522,-2.1118,-2.0781,-2.0501,-2.0229,-1.9947,-1.9874,-1.9839,-1.9744,-1.9708,-1.9708,-1.9708,-1.9708,-1.9708,-1.9708,-1.9708,-1.9708,-1.9708,-1.9708,-1.9708,-1.9708,-1.9387,-1.8855,-1.8125,-1.8091,-1.7658,-1.6413,-1.6165,-1.5827,-1.5162,-1.458,-1.4454,-1.4891,-1.4627,-1.4721,-1.527,-1.5624,-1.5799,-1.5799,-1.5799,-1.5799,-1.5799,-1.5799,-1.5799,-1.5799,-1.5799,-1.5799,-1.4166,-1.5747,-1.7495,-1.8115,-1.9828,-2.1502,-2.1972,-2.2407,-2.2911,-2.3641,-2.4029,-2.4107,-2.3678,-2.3714,-2.3753,-2.3533,-2.3671,-2.366,-2.3265,-2.3555,-2.3724,-2.3533,-2.3682,-2.3714,-2.3522,-2.338,-2.3212,-2.3021,-2.3009,-2.2947,-2.2862,-2.294,-2.3093,-2.33,-2.3426,-2.3671,-2.3996,-2.4006,-2.4006,-2.3996,-2.3876,-2.3806,-2.3806,-2.4084,-2.419,-2.419,-2.419,-2.419,-2.418,-2.4064,-2.3886,-2.3714,-2.3917,-2.3795,-2.3522,-2.366,-2.3533,-2.3236,-2.2848,-2.2512,-2.2244,-2.207,-2.172,-2.1353,-2.1353,-2.1055,-2.0666,-2.0382,-2.0177,-2.0017,-1.9764,-1.9708,-1.9708,-1.9708,-1.9708,-1.9708,-1.9708,-1.9708,-1.9708,-1.9708,-1.9708,-1.9708,-1.9708,-1.9708,-1.9708,-1.9708,-1.9424,-1.8912,-1.8046,-1.8153,-1.7923,-1.6924,-1.6466,-1.6143,-1.5846,-1.5219,-1.4968,-1.5253,-1.5153,-1.5253,-1.5564,-1.5378,-1.5448,-1.5784,-1.5624,-1.561,-1.5799,-1.5799,-1.5799,-1.5799,-1.5799,-1.5712,-1.8059,-1.9118,-2.0238,-2.1721,-2.1147,-2.0758,-2.2835,-2.2966,-2.2616,-2.249,-2.2825,-2.3069,-2.2797,-2.2996,-2.3189,-2.3153,-2.3177,-2.3177,-2.3135,-2.3183,-2.3189,-2.3153,-2.3177,-2.3189,-2.3153,-2.2885,-2.2682,-2.2673,-2.2656,-2.2563,-2.2307,-2.2523,-2.2669,-2.2708,-2.2996,-2.3323,-2.366,-2.366,-2.366,-2.366,-2.3346,-2.32,-2.3212,-2.3827,-2.4103,-2.4103,-2.4103,-2.4103,-2.4084,-2.3785,-2.3649,-2.361,-2.3649,-2.3448,-2.3189,-2.35,-2.3224,-2.2695,-2.263,-2.2158,-2.1582,-2.1552,-2.1275,-2.0943,-2.0943,-2.06,-2.0246,-2.0246,-1.9982,-1.9708,-1.9708,-1.9708,-1.9708,-1.9708,-1.9708,-1.9708,-1.9708,-1.9708,-1.9708,-1.9708,-1.9708,-1.9708,-1.9708,-1.9657,-1.9621,-1.9621,-1.9672,-1.9512,-1.8968,-1.8893,-1.8629,-1.7906,-1.7025,-1.6567,-1.6771,-1.6403,-1.5973,-1.5541,-1.6261,-1.6596,-1.635,-1.5241,-1.5023,-1.5874,-1.5403,-1.5359,-1.5741,-1.5741,-1.5726,-1.5668,-1.5668,-1.5448,-1.4657,-1.6807,-1.9367,-2.0268,-2.1164,-2.1924,-2.2415,-2.2468,-2.2596,-2.3385,-2.3163,-2.2873,-2.3057,-2.3153,-2.3117,-2.286,-2.3033,-2.3026,-2.2558,-2.2895,-2.3105,-2.2848,-2.3045,-2.3093,-2.2835,-2.2746,-2.2612,-2.2398,-2.2388,-2.236,-2.231,-2.2346,-2.2473,-2.2695,-2.2772,-2.2972,-2.3294,-2.3311,-2.3311,-2.3311,-2.3224,-2.32,-2.32,-2.3357,-2.3414,-2.3414,-2.3414,-2.3414,-2.3403,-2.3335,-2.3153,-2.2947,-2.32,-2.3105,-2.2822,-2.2898,-2.2822,-2.2617,-2.2031,-2.1729,-2.1536,-2.1228,-2.0813,-2.0449,-2.0449,-2.0158,-1.9836,-1.9836,-1.9764,-1.9708,-1.9708,-1.9708,-1.9708,-1.9708,-1.9708,-1.9708,-1.9708,-1.9708,-1.9708,-1.9708,-1.9708,-1.9708,-1.9708,-1.935,-1.9062,-1.9062,-1.9424,-1.9512,-1.8968,-1.8893,-1.8479,-1.7395,-1.6809,-1.6313,-1.5826,-1.5429,-1.5291,-1.5485,-1.5391,-1.5768,-1.6732,-1.6075,-1.5932,-1.6502,-1.5936,-1.5522,-1.524,-1.524,-1.5089,-1.4783,-1.4783,-1.4737,-1.5656,-1.7693,-1.9693,-2.0826,-2.1705,-2.2296,-2.2296,-2.2296,-2.2454,-2.3024,-2.2791,-2.2567,-2.2734,-2.276,-2.2708,-2.2541,-2.2673,-2.266,-2.2335,-2.2571,-2.2695,-2.2527,-2.2656,-2.2695,-2.2527,-2.2514,-2.245,-2.231,-2.2296,-2.2296,-2.2296,-2.2296,-2.236,-2.25,-2.2634,-2.2784,-2.296,-2.296,-2.296,-2.296,-2.2832,-2.276,-2.2773,-2.3075,-2.32,-2.32,-2.32,-2.32,-2.3189,-2.3033,-2.286,-2.2721,-2.2898,-2.2776,-2.251,-2.266,-2.2625,-2.2433,-2.1805,-2.1476,-2.1244,-2.0797,-2.0381,-2.0017,-2.0017,-1.9874,-1.9708,-1.9708,-1.9708,-1.9708,-1.9708,-1.9708,-1.9708,-1.9708,-1.9708,-1.9621,-1.9369,-1.9332,-1.9244,-1.8987,-1.9151,-1.9332,-1.9332,-1.9095,-1.8817,-1.8554,-1.8746,-1.8727,-1.8204,-1.8145,-1.7883,-1.7255,-1.6783,-1.6464,-1.6363,-1.6172,-1.6033,-1.5973,-1.6013,-1.6356,-1.7073,-1.6478,-1.6479,-1.7174,-1.6184,-1.5629,-1.5581,-1.5315,-1.4968,-1.4501,-1.4501,-1.4406,-1.6773,-1.856,-2.0052,-2.184,-2.2296,-2.2296,-2.2296,-2.2296,-2.2296,-2.2296,-2.2296,-2.2296,-2.2296,-2.2296,-2.2296,-2.2296,-2.2296,-2.2296,-2.2296,-2.2296,-2.2296,-2.2296,-2.2296,-2.2296,-2.2296,-2.2296,-2.2296,-2.2296,-2.2296,-2.2296,-2.2296,-2.2296,-2.2296,-2.2296,-2.2514,-2.2621,-2.2621,-2.2621,-2.2621,-2.2621,-2.2415,-2.2296,-2.2324,-2.2824,-2.3038,-2.3038,-2.3038,-2.3038,-2.3026,-2.2751,-2.2621,-2.2621,-2.2621,-2.2487,-2.2338,-2.255,-2.2446,-2.2106,-2.166,-2.1228,-2.0813,-2.0364,-1.9965,-1.9708,-1.9708,-1.9708,-1.9708,-1.9708,-1.9621,-1.9566,-1.9566,-1.9479,-1.9424,-1.9424,-1.9424,-1.9332,-1.8987,-1.8836,-1.8631,-1.8204,-1.8458,-1.8727,-1.8631,-1.8688,-1.8574,-1.8046,-1.8046,-1.7947,-1.7504,-1.7374,-1.7312,-1.7312,-1.6816,-1.668,-1.7105,-1.7146,-1.6972,-1.6543,-1.6909,-1.7188,-1.7312,-1.6682,-1.6786,-1.7743,-1.6335,-1.5725,-1.6,-1.5551,-1.5012,-1.4428,-1.4428,-1.4208,-1.2203,-1.5044,-1.8763,-2.1586,-2.2296,-2.2296,-2.2296,-2.2296,-2.2296,-2.2296,-2.2296,-2.2296,-2.2296,-2.2296,-2.2296,-2.2296,-2.2296,-2.2296,-2.2296,-2.2296,-2.2296,-2.2296,-2.2296,-2.2296,-2.2296,-2.2296,-2.2296,-2.2296,-2.2296,-2.2296,-2.2296,-2.2296,-2.2296,-2.2296,-2.2335,-2.2346,-2.2346,-2.2346,-2.2346,-2.2346,-2.2324,-2.2296,-2.231,-2.2391,-2.2415,-2.2415,-2.2415,-2.2415,-2.2432,-2.2377,-2.2346,-2.2346,-2.2346,-2.2335,-2.231,-2.2335,-2.2058,-2.1628,-2.1213,-2.0781,-2.0331,-1.9909,-1.9747,-1.9708,-1.9708,-1.9708,-1.9708,-1.9708,-1.9369,-1.9006,-1.9006,-1.865,-1.8322,-1.8322,-1.8322,-1.8419,-1.8817,-1.8535,-1.8204,-1.8125,-1.8165,-1.8066,-1.7585,-1.7907,-1.8027,-1.7483,-1.7807,-1.8066,-1.8007,-1.7585,-1.7312,-1.7312,-1.6816,-1.6543,-1.6595,-1.6616,-1.6573,-1.65,-1.6573,-1.6816,-1.7271,-1.676,-1.6961,-1.8026,-1.6706,-1.5874,-1.5575,-1.5515,-1.5024,-1.4139,-1.4139,-1.3849,-1.3642,-1.6272,-1.9046,-2.1637,-2.2296,-2.2296,-2.2296,-2.2296,-2.2296,-2.2296,-2.2296,-2.2296,-2.2296,-2.2296,-2.2296,-2.2296,-2.2296,-2.2296,-2.2296,-2.2296,-2.2296,-2.2296,-2.2296,-2.2296,-2.2296,-2.2296,-2.2296,-2.2296,-2.2296,-2.2296,-2.2296,-2.2296,-2.2296,-2.2296,-2.2296,-2.2296,-2.2296,-2.2296,-2.2296,-2.2296,-2.2296,-2.2296,-2.2296,-2.2296,-2.2296,-2.2296,-2.2296,-2.2296,-2.2296,-2.2296,-2.2296,-2.2296,-2.2296,-2.2296,-2.2268,-2.2003,-2.1779,-2.1506,-2.0846,-2.0466,-2.0229,-1.9821,-1.9708,-1.9708,-1.9708,-1.9708,-1.9708,-1.9708,-1.9314,-1.8893,-1.8893,-1.8496,-1.8106,-1.8106,-1.7867,-1.7727,-1.7947,-1.7827,-1.7646,-1.7646,-1.7646,-1.7585,-1.7353,-1.7504,-1.7463,-1.693,-1.7055,-1.7188,-1.7188,-1.6993,-1.6858,-1.6858,-1.6637,-1.65,-1.65,-1.65,-1.65,-1.65,-1.65,-1.6616,-1.6837,-1.6637,-1.671,-1.7188,-1.6609,-1.6245,-1.6052,-1.5757,-1.5067,-1.4043,-1.4043,-1.3902,-1.4116,-1.5944,-1.7405,-2.0636,-2.1448,-2.16,-2.2161,-2.2296,-2.2296,-2.2296,-2.2296,-2.2296,-2.2296,-2.2296,-2.2296,-2.2296,-2.2296,-2.2296,-2.2296,-2.2296,-2.2296,-2.2296,-2.2296,-2.2296,-2.2296,-2.2296,-2.2296,-2.2296,-2.2296,-2.2296,-2.2296,-2.2296,-2.2296,-2.2296,-2.2296,-2.2296,-2.2296,-2.2296,-2.2296,-2.2296,-2.2296,-2.2296,-2.2296,-2.2296,-2.2296,-2.2296,-2.2296,-2.2296,-2.2296,-2.2296,-2.2296,-2.2282,-2.218,-2.212,-2.2077,-2.1613,-2.1368,-2.1181,-2.0533,-2.0229,-2.0089,-1.98,-1.9708,-1.9672,-1.9548,-1.9497,-1.946,-1.9332,-1.8912,-1.8496,-1.8496,-1.8106,-1.7686,-1.7686,-1.7394,-1.7097,-1.7097,-1.7097,-1.7097,-1.7097,-1.7097,-1.7097,-1.7097,-1.7097,-1.6951,-1.6552,-1.65,-1.65,-1.65,-1.65,-1.65,-1.65,-1.65,-1.65,-1.65,-1.65,-1.65,-1.65,-1.65,-1.65,-1.65,-1.65,-1.65,-1.65,-1.65,-1.6498,-1.6499,-1.5931,-1.5175,-1.4198,-1.4044,-1.388,-1.0375,-1.0944,-1.185,-1.7625,-1.9092,-1.9638,-2.1806,-2.2296,-2.2296,-2.2296,-2.2296,-2.2296,-2.2296,-2.2296,-2.2296,-2.2296,-2.2296,-2.2296,-2.2296,-2.2296,-2.2296,-2.2296,-2.2296,-2.2296,-2.2296,-2.2296,-2.2296,-2.2296,-2.2296,-2.2296,-2.2296,-2.2296,-2.2296,-2.2296,-2.2296,-2.2296,-2.2296,-2.2296,-2.2296,-2.2296,-2.2296,-2.2296,-2.2296,-2.2296,-2.2296,-2.2296,-2.2296,-2.2296,-2.2296,-2.2296,-2.2296,-2.2268,-2.1809,-2.1643,-2.1598,-2.1181,-2.0764,-2.0365,-2.0314,-2.0037,-1.9744,-1.9708,-1.9708,-1.9603,-1.9114,-1.8949,-1.8836,-1.8341,-1.7807,-1.7394,-1.7394,-1.6993,-1.6573,-1.6573,-1.6552,-1.6531,-1.6531,-1.6531,-1.6531,-1.6531,-1.6531,-1.6531,-1.6531,-1.6531,-1.6543,-1.65,-1.65,-1.65,-1.65,-1.65,-1.65,-1.65,-1.65,-1.65,-1.65,-1.65,-1.65,-1.65,-1.65,-1.65,-1.65,-1.65,-1.65,-1.65,-1.65,-1.6509,-1.6493,-1.5894,-1.5312,-1.4751,-1.4174,-1.3614,-0.977,-1.092,-1.2229,-1.5308,-1.7507,-1.9113,-1.9925,-2.1262,-2.2296,-2.2296,-2.2296,-2.2296,-2.2296,-2.2296,-2.2296,-2.2296,-2.2296,-2.2296,-2.2296,-2.2296,-2.2296,-2.2296,-2.2296,-2.2296,-2.2296,-2.2296,-2.218,-2.1884,-2.212,-2.218,-2.1869,-2.2135,-2.2296,-2.2296,-2.2296,-2.2296,-2.2296,-2.2296,-2.2149,-2.1838,-2.1838,-2.1838,-2.1838,-2.1838,-2.2017,-2.2296,-2.2296,-2.2296,-2.2296,-2.2296,-2.212,-2.1823,-2.1673,-2.143,-2.1166,-2.0715,-2.0449,-2.0263,-2.0,-1.9836,-1.9708,-1.9708,-1.946,-1.9151,-1.8968,-1.865,-1.8361,-1.8165,-1.7706,-1.7312,-1.7312,-1.6888,-1.65,-1.65,-1.65,-1.65,-1.65,-1.65,-1.65,-1.65,-1.65,-1.65,-1.65,-1.65,-1.65,-1.65,-1.65,-1.65,-1.65,-1.65,-1.65,-1.65,-1.65,-1.65,-1.65,-1.65,-1.65,-1.65,-1.65,-1.65,-1.65,-1.6129,-1.5908,-1.5908,-1.5533,-1.5545,-1.5908,-1.5698,-1.5093,-1.4146,-1.3941,-1.373,-0.8254,-0.9449,-1.1028,-1.3515,-1.5206,-1.6891,-1.9159,-2.0433,-2.1366,-2.2144,-2.2296,-2.2296,-2.2296,-2.2296,-2.2296,-2.2296,-2.218,-2.212,-2.2282,-2.2049,-2.1915,-2.2063,-2.2077,-2.2003,-2.1886,-2.1988,-2.1884,-2.143,-2.1809,-2.1928,-2.1628,-2.2063,-2.2296,-2.2296,-2.2296,-2.2296,-2.2296,-2.2296,-2.2061,-2.1597,-2.1597,-2.1521,-2.1399,-2.1399,-2.1628,-2.2077,-2.2077,-2.2149,-2.2296,-2.2296,-2.2017,-2.1582,-2.1445,-2.115,-2.0715,-2.0261,-2.0089,-2.0054,-1.98,-1.9708,-1.9672,-1.9479,-1.9188,-1.8836,-1.8477,-1.8125,-1.7787,-1.7605,-1.7312,-1.7034,-1.7034,-1.6774,-1.65,-1.65,-1.65,-1.65,-1.65,-1.6337,-1.6259,-1.6457,-1.6337,-1.6259,-1.6466,-1.65,-1.65,-1.65,-1.65,-1.65,-1.65,-1.65,-1.65,-1.65,-1.6315,-1.6281,-1.6466,-1.6303,-1.6281,-1.65,-1.65,-1.6402,-1.6216,-1.582,-1.5499,-1.5298,-1.4903,-1.4812,-1.5005,-1.5005,-1.4584,-1.3792,-1.36,-1.3505,0.0,0.0,0.0,-1.2111,-1.2118,-1.2787,-1.9396,-1.9786,-1.9401,-2.1721,-2.2178,-2.2195,-2.2265,-2.2282,-2.2282,-2.2268,-2.1899,-2.1764,-2.2209,-2.1539,-2.1134,-2.1553,-2.1582,-2.143,-2.1039,-2.1353,-2.1414,-2.1007,-2.1353,-2.1582,-2.1567,-2.2003,-2.2268,-2.2282,-2.2282,-2.2282,-2.2282,-2.2282,-2.2032,-2.1567,-2.1567,-2.1353,-2.0975,-2.0975,-2.1197,-2.1582,-2.1582,-2.1838,-2.2268,-2.2265,-2.2003,-2.1521,-2.1134,-2.0682,-2.0212,-1.9839,-1.969,-1.969,-1.969,-1.969,-1.9584,-1.9062,-1.8874,-1.865,-1.7626,-1.7291,-1.7167,-1.6659,-1.65,-1.65,-1.65,-1.65,-1.6466,-1.6466,-1.6457,-1.6457,-1.6457,-1.5974,-1.5732,-1.6358,-1.6008,-1.5798,-1.638,-1.65,-1.65,-1.65,-1.65,-1.65,-1.65,-1.65,-1.6488,-1.6479,-1.5964,-1.582,-1.6402,-1.5908,-1.582,-1.6402,-1.6457,-1.6194,-1.561,-1.5565,-1.5276,-1.4675,-1.4663,-1.4352,-1.3768,-1.3802,-1.3802,-1.3755,-1.3176,-1.2905,-0.5505,0.0,0.0,0.0,0.0,0.0,-1.3156,-1.4318,-1.5829,-1.9047,-1.9349,-1.9605,-2.1456,-2.1794,-2.1705,-2.14,-2.1492,-2.1658,-2.1779,-2.1338,-2.1039,-2.115,-2.1166,-2.1118,-2.1007,-2.1102,-2.0991,-2.0533,-2.091,-2.1023,-2.0667,-2.1102,-2.1492,-2.1794,-2.1794,-2.1794,-2.1794,-2.1794,-2.1414,-2.065,-2.065,-2.0601,-2.05,-2.05,-2.0732,-2.1166,-2.1166,-2.1245,-2.1369,-2.1658,-2.1353,-2.065,-2.0533,-2.0006,-1.9325,-1.9588,-1.9442,-1.9188,-1.9566,-1.9442,-1.9114,-1.8949,-1.838,-1.7686,-1.7394,-1.7034,-1.6701,-1.6531,-1.65,-1.65,-1.65,-1.6173,-1.5842,-1.5842,-1.5511,-1.5197,-1.5197,-1.471,-1.4618,-1.5666,-1.572,-1.5654,-1.582,-1.6216,-1.65,-1.65,-1.65,-1.65,-1.65,-1.65,-1.6324,-1.5908,-1.5698,-1.5499,-1.522,-1.5039,-1.5017,-1.5186,-1.5197,-1.513,-1.4971,-1.4526,-1.4226,-1.405,-1.3634,-1.332,-1.3152,-1.36,-1.3576,-1.3152,-1.2968,-1.2905,-0.5863,-0.658,-0.7594,-0.7636,0.0,0.0,-1.2606,-1.361,-1.4956,-1.8851,-1.9498,-1.9797,-2.1121,-2.1353,-2.1275,-2.1039,-2.1023,-2.1134,-2.1322,-2.0829,-2.0515,-2.0698,-2.0715,-2.0633,-2.0465,-2.0615,-2.0516,-2.0072,-2.0465,-2.0666,-2.06,-2.0845,-2.1102,-2.1337,-2.1353,-2.1353,-2.1353,-2.1353,-2.1007,-2.0297,-2.0297,-2.0212,-2.0052,-2.0052,-2.0296,-2.0715,-2.0715,-2.0715,-2.0731,-2.0959,-2.0749,-2.0297,-2.0297,-1.9864,-1.9244,-1.9332,-1.9169,-1.8912,-1.9006,-1.8836,-1.8535,-1.8322,-1.7807,-1.725,-1.7034,-1.6752,-1.65,-1.65,-1.65,-1.65,-1.65,-1.6051,-1.561,-1.561,-1.5141,-1.4698,-1.4698,-1.4236,-1.4073,-1.505,-1.5028,-1.4926,-1.5186,-1.5511,-1.5744,-1.5744,-1.5964,-1.603,-1.5788,-1.5964,-1.5898,-1.5276,-1.5005,-1.4801,-1.4698,-1.4468,-1.4422,-1.4675,-1.4698,-1.4594,-1.4329,-1.398,-1.3684,-1.342,-1.3079,-1.2905,-1.2905,-1.3238,-1.3238,-1.2905,-1.2905,-1.2905,-0.6526,-0.6836,-0.7702,-0.8911,-0.7893,0.0,-1.4293,-1.4597,-1.4752,-1.8867,-1.9957,-2.0183,-2.0172,-2.0175,-2.0176,-2.0193,-2.0031,-2.015,-2.083,-2.0208,-1.9821,-2.0177,-2.0229,-2.0089,-1.9729,-2.0019,-2.0089,-1.9744,-2.0035,-2.0431,-2.0829,-2.0861,-2.0878,-2.0926,-2.0926,-2.0926,-2.0926,-2.0926,-2.0682,-2.0229,-2.0229,-2.0052,-1.9708,-1.9708,-1.9892,-2.0229,-2.0229,-2.0229,-2.0229,-2.0229,-2.0229,-2.0229,-2.0229,-1.9932,-1.946,-1.9043,-1.8817,-1.865,-1.8243,-1.8066,-1.7927,-1.7463,-1.725,-1.7105,-1.6637,-1.65,-1.65,-1.65,-1.65,-1.6466,-1.6423,-1.5964,-1.5477,-1.5432,-1.4937,-1.4502,-1.4502,-1.4084,-1.3873,-1.441,-1.412,-1.3956,-1.4514,-1.4663,-1.4698,-1.4698,-1.5163,-1.5298,-1.4766,-1.5163,-1.5276,-1.4652,-1.412,-1.398,-1.4456,-1.4014,-1.392,-1.4479,-1.4502,-1.426,-1.3732,-1.3708,-1.3443,-1.2905,-1.2905,-1.2905,-1.2905,-1.2905,-1.2905,-1.2905,-1.2905,-1.2905,-0.729,-0.7413,-0.7985,-0.7531,-0.7583,0.0,-0.8008,-0.7929,-0.8576,-1.1195,-1.145,-1.198,-1.4497,-1.4948,-1.5018,-1.5176,-1.6441,-1.8109,-2.0149,-2.0,-1.9744,-1.9818,-1.9836,-1.9782,-1.9708,-1.9764,-1.9782,-1.9708,-1.9764,-1.9856,-1.996,-1.9945,-2.0104,-2.0433,-2.0449,-2.0449,-2.0449,-2.0449,-2.0227,-1.9836,-1.9836,-1.9782,-1.9708,-1.9708,-1.9729,-1.9836,-1.9836,-1.9836,-1.9836,-1.9836,-1.9836,-1.9836,-1.9836,-1.9247,-1.8458,-1.8779,-1.8361,-1.7666,-1.7987,-1.7827,-1.7442,-1.7333,-1.7013,-1.6637,-1.6543,-1.65,-1.65,-1.65,-1.65,-1.6402,-1.5908,-1.532,-1.4744,-1.4272,-1.3695,-1.3248,-1.3248,-1.3152,-1.3104,-1.3224,-1.3552,-1.3849,-1.3956,-1.4376,-1.4698,-1.4698,-1.4789,-1.4835,-1.4732,-1.4789,-1.4652,-1.405,-1.3862,-1.3637,-1.3272,-1.3128,-1.3128,-1.3248,-1.3248,-1.32,-1.3079,-1.3079,-1.3017,-1.2905,-1.2905,-1.2905,-1.2905,-1.2905,-1.2905,-1.2905,-1.2905,-1.2905,-0.7973,-0.7741,-0.8069,-0.7935,-0.7726,0.0,0.0,-0.8352,-0.8609,-1.1126,-1.1075,-1.1117,-1.2835,-1.3155,-1.3172,-1.329,-1.5203,-1.6773,-1.7014,-1.8584,-1.9708,-1.9708,-1.9708,-1.9708,-1.9708,-1.9708,-1.9708,-1.9708,-1.9708,-1.9708,-1.9708,-1.9708,-1.98,-2.0,-2.0,-2.0,-2.0,-2.0,-1.9909,-1.9708,-1.9708,-1.9708,-1.9708,-1.9708,-1.9708,-1.9708,-1.9708,-1.9708,-1.9708,-1.9708,-1.9708,-1.9708,-1.9708,-1.9207,-1.8496,-1.8496,-1.7987,-1.7312,-1.7312,-1.7126,-1.6888,-1.6888,-1.671,-1.65,-1.65,-1.65,-1.65,-1.65,-1.65,-1.6358,-1.5754,-1.5141,-1.4537,-1.3933,-1.3334,-1.2905,-1.2905,-1.2905,-1.2905,-1.2905,-1.3152,-1.3348,-1.3348,-1.361,-1.38,-1.38,-1.4061,-1.4143,-1.3836,-1.4061,-1.4014,-1.342,-1.3348,-1.3238,-1.2929,-1.2905,-1.2905,-1.2905,-1.2905,-1.2905,-1.2905,-1.2905,-1.2905,-1.2905,-1.2905,-1.2725,-1.2344,-1.2725,-1.2905,-1.2905,-1.2905,-1.2905,-0.888,-0.8469,-0.8694,-0.886,-0.8402,-0.844,0.0,0.0,0.0,-1.1861,-1.1713,-1.1315,-1.1604,-1.1561,-1.1516,-1.1636,-1.3752,-1.4845,-1.3259,-1.6114,-1.842,-1.8555,-1.9243,-1.9558,-1.9151,-1.9019,-1.9154,-1.9663,-1.9228,-1.9169,-1.9678,-1.9708,-1.9708,-1.9708,-1.9708,-1.9708,-1.9708,-1.9708,-1.9639,-1.9548,-1.9639,-1.9639,-1.9548,-1.9639,-1.9708,-1.9708,-1.9708,-1.9639,-1.9548,-1.9548,-1.9479,-1.9406,-1.9512,-1.9225,-1.8669,-1.8145,-1.7605,-1.7076,-1.6659,-1.65,-1.65,-1.65,-1.65,-1.65,-1.65,-1.65,-1.6479,-1.6358,-1.6337,-1.6173,-1.5432,-1.4892,-1.4376,-1.3779,-1.3262,-1.2905,-1.2905,-1.2905,-1.2905,-1.2905,-1.2905,-1.2905,-1.2905,-1.2905,-1.2905,-1.2905,-1.331,-1.3443,-1.2968,-1.3334,-1.3443,-1.2954,-1.2905,-1.2905,-1.2905,-1.2905,-1.2905,-1.2905,-1.2905,-1.2905,-1.2905,-1.2905,-1.2905,-1.2905,-1.2905,-1.2427,-1.1491,-1.2255,-1.2642,-1.2691,-1.2822,-1.2905,-1.0518,-1.0488,-1.0962,-0.9302,-1.0097,-1.0588,-0.8034,0.0,-0.785,-0.6981,0.0,-0.6842,-0.7458,0.0,0.0,-0.7474,-0.9321,-1.0593,-1.0369,-1.2205,-1.3807,-1.4408,-1.7565,-1.9001,-1.7219,-1.6563,-1.7192,-1.9528,-1.7536,-1.7237,-1.9588,-1.9708,-1.9708,-1.9708,-1.9708,-1.9708,-1.9708,-1.9708,-1.946,-1.9006,-1.946,-1.9442,-1.9006,-1.9479,-1.9708,-1.9708,-1.9708,-1.9424,-1.8987,-1.8987,-1.8708,-1.8341,-1.8817,-1.865,-1.8145,-1.7585,-1.7055,-1.6573,-1.6522,-1.65,-1.65,-1.65,-1.65,-1.65,-1.65,-1.65,-1.6402,-1.5842,-1.5698,-1.5432,-1.4295,-1.3956,-1.3755,-1.3152,-1.2954,-1.2905,-1.2905,-1.2905,-1.2905,-1.2905,-1.2905,-1.2905,-1.2905,-1.2905,-1.2905,-1.2905,-1.2968,-1.2968,-1.2905,-1.2968,-1.2968,-1.2905,-1.2905,-1.2905,-1.2905,-1.2905,-1.2905,-1.2905,-1.2905,-1.2905,-1.2905,-1.2905,-1.2905,-1.2905,-1.2905,-1.2082,-1.0389,-1.1233,-1.1758,-1.1947,-1.2608,-1.2905,-1.0348,-1.0455,-1.0894,-0.9066,-0.9426,-0.9638,-0.7412,-0.6816,-0.6697,-0.6511,0.0,0.0,0.0,0.0,0.0,0.0,-0.8012,-0.8919,-0.7743,-1.0264,-1.2475,-1.3148,-1.4333,-1.5396,-1.6114,-1.5949,-1.6877,-1.9498,-1.7282,-1.6937,-1.9558,-1.9406,-1.9387,-1.969,-1.9114,-1.893,-1.9225,-1.893,-1.865,-1.8438,-1.865,-1.865,-1.8438,-1.8669,-1.8765,-1.8765,-1.8765,-1.8631,-1.8438,-1.8438,-1.8302,-1.8086,-1.8007,-1.7827,-1.7605,-1.7394,-1.6951,-1.65,-1.65,-1.65,-1.65,-1.65,-1.65,-1.65,-1.65,-1.6259,-1.593,-1.5676,-1.5343,-1.4869,-1.4027,-1.3792,-1.3637,-1.3041,-1.2905,-1.2905,-1.2905,-1.2905,-1.2905,-1.2905,-1.2905,-1.2905,-1.2905,-1.2905,-1.2905,-1.2905,-1.2905,-1.2905,-1.2905,-1.2905,-1.2905,-1.2905,-1.2905,-1.2905,-1.2905,-1.2905,-1.2905,-1.2905,-1.2905,-1.2905,-1.2905,-1.2905,-1.2905,-1.2905,-1.2098,-1.1183,-1.0192,-1.1082,-1.14,-1.1241,-1.2387,-1.2905,-1.1373,-1.1313,-1.1341,-0.8987,-0.8785,-0.8729,-0.6996,-0.6562,-0.6572,-0.6727,-0.6741,0.0,0.0,0.0,-0.6055,-0.5922,0.0,-0.7489,-0.5849,-0.808,-1.0131,-1.0827,-1.0962,-1.198,0.0,-1.406,-1.5019,-1.8375,-1.6188,-1.6099,-1.9301,-1.9114,-1.9006,-1.9244,-1.8516,-1.8302,-1.8669,-1.8302,-1.8027,-1.7887,-1.8027,-1.8027,-1.7887,-1.8027,-1.8106,-1.8106,-1.8106,-1.8027,-1.7887,-1.7887,-1.7787,-1.7626,-1.7229,-1.7076,-1.7076,-1.7076,-1.6837,-1.65,-1.65,-1.65,-1.65,-1.65,-1.65,-1.6466,-1.6303,-1.5964,-1.5543,-1.5197,-1.4801,-1.4306,-1.3708,-1.3552,-1.3443,-1.2992,-1.2905,-1.2905,-1.2905,-1.2905,-1.2905,-1.2905,-1.2905,-1.2905,-1.2905,-1.2905,-1.2905,-1.2905,-1.2905,-1.2905,-1.2905,-1.2905,-1.2905,-1.2905,-1.2905,-1.2905,-1.2905,-1.2905,-1.2905,-1.2905,-1.2905,-1.2905,-1.2905,-1.2905,-1.2725,-1.2329,-1.12,-1.0364,-0.9814,-1.0956,-1.125,-1.0838,-1.223,-1.2905,-1.4785,-1.4163,-1.3265,-0.9377,-0.889,-0.8758,-0.638,-0.702,-0.7801,-0.6652,-0.7692,-0.8562,-0.773,-0.7034,0.0,0.0,0.0,0.0,0.0,-0.4982,-0.5296,-0.6026,-0.7817,0.0,0.0,-0.9644,-1.0313,0.0,-1.3448,-1.3987,-1.8689,-1.8912,-1.8669,-1.8185,-1.8125,-1.8125,-1.8145,-1.8125,-1.7847,-1.7333,-1.7847,-1.7827,-1.7353,-1.7867,-1.8106,-1.8106,-1.8106,-1.7807,-1.7333,-1.7333,-1.7013,-1.6552,-1.6543,-1.6543,-1.6543,-1.6543,-1.6522,-1.65,-1.65,-1.65,-1.65,-1.65,-1.65,-1.6402,-1.582,-1.561,-1.5365,-1.4179,-1.3839,-1.3684,-1.3089,-1.2929,-1.2929,-1.2905,-1.2905,-1.2905,-1.2905,-1.2905,-1.2905,-1.2905,-1.2905,-1.2905,-1.2905,-1.2905,-1.2905,-1.2905,-1.2905,-1.2905,-1.2905,-1.2905,-1.2905,-1.2905,-1.2905,-1.2905,-1.2905,-1.2905,-1.2905,-1.2905,-1.2905,-1.2905,-1.2905,-1.2905,-1.2255,-1.0889,-1.044,-0.9762,-0.8857,-1.0626,-1.125,-1.0838,-1.223,-1.2905,-1.5413,-1.5553,-1.512,-1.1057,-1.0213,-0.9539,-0.6215,-0.651,-0.7146,-0.598,-0.7425,-0.8578,-0.7533,-0.682,0.0,0.0,0.0,0.0,0.0,-0.4275,-0.413,-0.4473,0.0,0.0,0.0,0.0,0.0,0.0,-1.464,0.0,-1.8724,-1.8243,-1.7927,-1.8086,-1.7415,-1.7209,-1.7565,-1.7209,-1.6951,-1.6774,-1.6951,-1.6951,-1.6774,-1.6951,-1.7034,-1.7034,-1.7034,-1.693,-1.6774,-1.6774,-1.6659,-1.65,-1.65,-1.65,-1.65,-1.65,-1.65,-1.65,-1.65,-1.65,-1.6423,-1.603,-1.5908,-1.5798,-1.5197,-1.4732,-1.4318,-1.3909,-1.3505,-1.3152,-1.2954,-1.2905,-1.2905,-1.2905,-1.2905,-1.2905,-1.2905,-1.2905,-1.2905,-1.2905,-1.2905,-1.2905,-1.2905,-1.2905,-1.2905,-1.2905,-1.2905,-1.2905,-1.2905,-1.2476,-1.2178,-1.2178,-1.1783,-1.1509,-1.1509,-1.1509,-1.1509,-1.1509,-1.194,-1.2178,-1.2178,-1.2039,-1.1742,-1.1275,-0.9943,-0.9106,-0.8804,-0.9865,-1.0295,-1.0167,-1.1534,-1.2427,-1.6692,-1.678,-1.6278,-1.2689,-1.178,-1.0852,-0.7236,-0.7468,-0.8066,-0.6711,-0.7636,-0.8724,-0.8852,-0.7587,0.0,0.0,0.0,0.0,0.0,-0.3829,-0.3628,0.0,0.0,0.0,0.0,0.0,0.0,0.0,0.0,0.0,0.0,-1.7686,-1.7374,-1.7524,-1.6858,-1.668,-1.7013,-1.668,-1.65,-1.65,-1.65,-1.65,-1.65,-1.65,-1.65,-1.65,-1.65,-1.65,-1.65,-1.65,-1.65,-1.65,-1.65,-1.65,-1.65,-1.65,-1.65,-1.6466,-1.6259,-1.6194,-1.6073,-1.5488,-1.5276,-1.5163,-1.456,-1.412,-1.3755,-1.3552,-1.32,-1.2905,-1.2905,-1.2905,-1.2905,-1.2905,-1.2905,-1.2832,-1.2559,-1.2715,-1.2822,-1.2559,-1.2725,-1.2822,-1.2559,-1.2501,-1.2608,-1.2847,-1.2905,-1.2798,-1.2535,-1.208,-1.1715,-1.1466,-1.1065,-1.0788,-1.0788,-1.0788,-1.0737,-1.0593,-1.099,-1.1291,-1.1441,-1.1174,-1.088,-1.055,-0.9614,-0.9035,-0.8804,-0.9458,-0.9788,-0.984,-1.1191,-1.2055]},{"header":{"parameterUnit":"m.s-1","parameterCategory":1,"la1":30.6,"la2":29.2853,"lo1":-89.7004,"lo2":-87.6739,"dx":0.0162,"dy":0.0183,"nx":112,"ny":82,"refTime":"2022-12-07T18:00:00:Z","depth":0,"parameterNumber":3,"parameterNumberName":"V-component_of_WINDS"},"data":[0.0,0.0,0.0,0.0,0.0,0.0,0.0,0.0,0.0,0.0,0.0,0.0,0.0,0.0,0.0,0.0,0.0,0.0,0.0,0.0,0.0,0.0,0.0,0.0,0.0,0.0,0.0,0.0,0.0,0.0,0.0,0.0,0.0,0.0,0.0,0.0,0.0,0.0,0.0,0.0,0.0,0.0,0.0,0.0,0.0,0.0,0.0,0.0,0.0,0.0,0.0,0.0,0.0,0.0,0.0,0.0,0.0,0.0,0.0,0.0,0.0,0.0,0.0,0.0,0.0,0.0,0.0,0.0,0.0,0.0,0.0,0.0,0.0,0.0,0.0,0.0,0.0,0.0,0.0,0.0,0.0,0.0,0.0,0.0,0.0,0.0,0.0,0.0,0.0,0.0,-0.0912,-0.0782,-0.0301,0.0,0.0,0.0,-0.0061,-0.0195,0.0,0.0,0.0,0.0,0.0,0.0,0.0,0.0,0.0,0.0,0.0,0.0,0.0,0.0,0.0,0.0,0.0,0.0,0.0,0.0,0.0,0.0,0.0,0.0,0.0,0.0,0.0,0.0,0.0,0.0,0.0,0.0,0.0,0.0,0.0,0.0,0.0,0.0,0.0,0.0,0.0,0.0,0.0,0.0,0.0,0.0,0.0,0.0,0.0,0.0,0.0,0.0,0.0,0.0,0.0,0.0,0.0,0.0,0.0,0.0,0.0,0.0,0.0,0.0,0.0,0.0,0.0,0.0,0.0,0.0,0.0,0.0,0.0,0.0,0.0,0.0,0.0,0.0,0.0,0.0,0.0,0.0,0.0,0.0,0.0,0.0,0.0,0.0,0.0,0.0,0.0,0.0,0.0,0.0,0.0,0.0,0.0,0.0,0.0,0.0,0.0,0.0,0.0,0.0,-0.0952,-0.0213,-0.005,0.0,0.0,0.0,-0.0061,-0.0195,0.0,0.0,0.0,0.0,0.0,0.0,0.0,0.0,0.0,0.0,0.0,0.0,0.0,0.0,0.0,0.0,0.0,0.0,0.0,0.0,0.0,0.0,0.0,0.0,0.0,0.0,0.0,0.0,0.0,0.0,0.0,0.0,0.0,0.0,0.0,0.0,0.0,0.0,0.0,0.0,0.0,0.0,0.0,0.0,0.0,0.0,0.0,0.0,0.0,0.0,0.0,0.0,0.0,0.0,0.0,0.0,0.0,0.0,0.0,0.0,0.0,0.0,0.0,0.0,0.0,0.0,0.0,0.0,0.0,0.0,0.0,0.0,0.0,0.0,0.0,0.0,0.0,0.0,0.0,0.0,0.0,0.0,0.0,0.0,0.0,0.0,0.0,0.0,0.0,0.0,0.0,0.0,0.0,0.0,0.0,0.0,0.0,0.0,0.0,0.0,0.0,0.0,0.0,-0.109,-0.0805,-0.0084,0.0,0.0,0.0,0.0,-0.003,-0.0092,-0.0118,0.0,0.0,0.0,0.0,0.0,0.0,0.0,0.0,0.0,0.0,0.0,0.0,0.0,0.0,0.0,0.0,0.0,0.0,0.0,0.0,0.0,0.0,0.0,0.0,0.0,0.0,0.0,0.0,0.0,0.0,0.0,0.0,0.0,0.0,0.0,0.0,0.0,0.0,0.0,0.0,0.0,0.0,0.0,0.0,0.0,0.0,0.0,0.0,0.0,0.0,0.0,0.0,0.0,0.0,0.0,0.0,0.0,0.0,0.0,0.0,0.0,0.0,0.0,0.0,0.0,0.0,0.0,0.0,0.0,0.0,0.0,0.0,0.0,0.0,0.0,0.0,0.0,0.0,0.0,0.0,0.0,0.0,0.0,0.0,0.0,0.0,0.0,0.0,0.0,0.0,0.0,0.0,0.0,0.0,0.0,0.0,0.0,0.0,0.0,0.0,0.0,0.0,-0.0808,-0.0639,-0.0067,0.0,0.0,0.0,0.0,0.0,0.0,0.0,0.0,0.0,0.0,0.0,0.0,0.0,0.0,0.0,0.0,0.0,0.0,0.0,0.0,0.0,0.0,0.0,0.0,0.0,0.0,0.0,0.0,0.0,0.0,0.0,0.0,0.0,0.0,0.0,0.0,0.0,0.0,0.0,0.0,0.0,0.0,0.0,0.0,0.0,0.0,0.0,0.0,0.0,0.0,0.0,0.0,0.0,0.0,0.0,0.0,0.0,0.0,0.0,0.0,0.0,0.0,0.0,0.0,0.0,0.0,0.0,0.0,0.0,0.0,0.0,0.0,0.0,0.0,0.0,0.0,0.0,0.0,0.0,0.0,0.0,0.0,0.0,0.0,0.0,0.0,0.0,0.0,0.0,0.0,0.0,0.0,0.0,0.0,0.0,0.0,0.0,0.0,0.0,0.0,0.0,0.0,0.0,0.0,0.0,0.0,0.0,0.0,0.0,-0.0567,-0.0538,-0.005,0.0,0.0,0.0,0.0,0.0,0.0,0.0,0.0,0.0,0.0,0.0,0.0,0.0,0.0,0.0,0.0,0.0,0.0,0.0,0.0,0.0,0.0,0.0,0.0,0.0,0.0,0.0,0.0,0.0,0.0,0.0,0.0,0.0,0.0,0.0,0.0,0.0,0.0,0.0,0.0,0.0,0.0,0.0,0.0,0.0,0.0,0.0,0.0,0.0,0.0,0.0,0.0,0.0,0.0,0.0,0.0,0.0,0.0,0.0,0.0,0.0,0.0,0.0,0.0,0.0,0.0,0.0,0.0,0.0,0.0,0.0,0.0,0.0,0.0,0.0,0.0,0.0,0.0,0.0,0.0,0.0,0.0,0.0,0.0,0.0,0.0,0.0,0.0,0.0,0.0,0.0,0.0,0.0,0.0,0.0,0.0,0.0,0.0,0.0,0.0,0.0,0.0,0.0,0.0,0.0,0.0,0.0,0.0,0.0,-0.0275,-0.0202,-0.0017,0.0,0.0,0.0,0.0269,0.0311,0.0013,0.0,0.0,0.0,0.0,0.0,0.0,0.0,0.0,0.0,0.0,0.0,0.0,0.0,0.0,0.0,0.0,0.0,0.0,0.0,0.0,0.0,0.0,0.0,0.0,0.0,0.0,0.0,0.0,0.0,0.0,0.0,0.0,0.0,0.0,0.0,0.0,0.0,0.0,0.0,0.0,0.0,0.0,0.0,0.0,0.0,0.0,0.0,0.0,0.0,0.0,0.0,0.0,0.0,0.0,0.0,0.0,0.0,0.0,0.0,0.0,0.0,0.0,0.0,0.0,0.0,0.0,0.0,0.0,0.0,0.0,0.0,0.0,0.0,0.0,0.0,0.0,0.0,0.0,0.0,0.0,0.0,0.0,0.0,0.0,0.0,0.0,0.0,0.0,0.0,0.0,0.0,0.0,0.0,0.0,0.0,0.0,0.0,0.0,0.0,0.0,0.0,0.0,-0.0317,-0.0135,0.0,0.0,0.0,0.0,0.0,0.0437,0.0504,0.0027,0.0,0.0,0.0,0.0,0.0,0.0,0.0,0.0,0.0,0.0,0.0,0.0,0.0,0.0,0.0,0.0,0.0,0.0,0.0,0.0,0.0,0.0,0.0,0.0,0.0,0.0,0.0,0.0,0.0,0.0,0.0,0.0,0.0,0.0,0.0,0.0,0.0,0.0,0.0,0.0,0.0,0.0,0.0,0.0,0.0,0.0,0.0,0.0,0.0,0.0,0.0,0.0,0.0,0.0,0.0,0.0,0.0,0.0,0.0,0.0,0.0,0.0,0.0,0.0,0.0,0.0,0.0,0.0,0.0,0.0,0.0,0.0,0.0,0.0,0.0,0.0,0.0,0.0,0.0,0.0,0.0,0.0,0.0,0.0,0.0,0.0,0.0,0.0,0.0,0.0,0.0,0.0,0.0,0.0,0.0,0.0,0.0,0.0,0.0,0.0,0.0,0.0,-0.0401,-0.0159,0.0,0.0,0.0,0.0,0.0,0.0437,0.0504,0.0,0.0,0.0,0.0,0.0,0.0,0.0,0.0,0.0,0.0,0.0,0.0,0.0,0.0,0.0,0.0,0.0,0.0,0.0,0.0,0.0,0.0,0.0,0.0,0.0,0.0,0.0,0.0,0.0,0.0,0.0,0.0,0.0,0.0,0.0,0.0,0.0,0.0,0.0,0.0,0.0,0.0,0.0,0.0,0.0,0.0,0.0,0.0,0.0,0.0,0.0,0.0,0.0,0.0,0.0,0.0,0.0,0.0,0.0,0.0,0.0,0.0,0.0,0.0,0.0,0.0,0.0,0.0,0.0,0.0,0.0,0.0,0.0,0.0,0.0,0.0,0.0,0.0,0.0,0.0,0.0,0.0,0.0,0.0,0.0,0.0,0.0,0.0,0.0,0.0,0.0,0.0,0.0,0.0,0.0,0.0,0.0,0.0,0.0,0.0,0.0,0.0,0.0,-0.0403,-0.0159,0.0,0.0,0.0,0.0134,0.0471,0.0873,0.1068,0.0926,0.0,0.0,0.0,0.0,0.0,0.0,0.0,0.0,0.0,0.0,0.0,0.0,0.0,0.0,0.0,0.0,0.0,0.0,0.0,0.0,0.0,0.0,0.0,0.0,0.0,0.0,0.0,0.0,0.0,0.0,0.0,0.0,0.0,0.0,0.0,0.0,0.0,0.0,0.0,0.0,0.0,0.0,0.0,0.0,0.0,0.0,0.0,0.0,0.0,0.0,0.0,0.0,0.0,0.0,0.0,0.0,0.0,0.0,0.0,0.0,0.0,0.0,0.0,0.0,0.0,0.0,0.0,0.0,0.0,0.0,0.0,0.0,0.0,0.0,0.0,0.0,0.0,0.0,0.0,0.0,0.0,0.0,0.0,0.0,0.0,0.0,0.0,0.0,0.0,0.0,0.0,0.0,0.0,0.0,0.0,0.0,0.0,0.0,0.0,0.0,0.0,0.0,-0.0403,-0.0159,0.0,0.0,0.0,0.0185,0.0655,0.1072,0.1355,0.149,0.0,0.0,0.0,0.0,0.0,0.0,0.0,0.0,0.0,0.0,0.0,0.0,0.0,0.0,0.0,0.0,0.0,0.0,0.0,0.0,0.0,0.0,0.0,0.0,0.0,0.0,0.0,0.0,0.0,0.0,0.0,0.0,0.0,0.0,0.0,0.0,0.0,0.0,0.0,0.0,0.0,0.0,0.0,0.0,0.0,0.0,0.0,0.0,0.0,0.0,0.0,0.0,0.0,0.0,0.0,0.0,0.0,0.0,0.0,0.0,0.0,0.0,0.0,0.0,0.0,0.0,0.0,0.0,0.0,0.0,0.0,0.0,0.0,0.0,0.0,0.0,0.0,0.0,0.0,0.0,0.0,0.0,0.0,0.0,0.0,0.0,0.0,0.0,0.0,0.0,0.0,0.0,0.0,0.0,0.0,0.0,0.0,0.0,0.0,0.0,0.0,0.0,-0.0401,-0.0159,0.0,0.0,0.0034,0.0252,0.0723,0.1122,0.1507,0.1861,0.0,0.0,0.0,0.0,0.0,0.0,0.0,0.0,0.0,0.0,0.0,0.0,0.0,0.0,0.0,0.0,0.0,0.0,0.0,0.0,0.0,0.0,0.0,0.0,0.0,0.0,0.0,0.0,0.0,0.0,0.0,0.0,0.0,0.0,0.0,0.0,0.0,0.0,0.0,0.0,0.0,0.0,0.0,0.0,0.0,0.0,0.0,0.0,0.0,0.0,0.0,0.0,0.0,0.0,0.0,0.0,0.0,0.0,0.0,0.0,-0.0683,-0.0425,0.0,0.0,0.0,0.0,0.0,0.0,0.0,0.0,0.0,0.0,0.0,0.0,0.0,0.0,0.0,0.0,0.0,0.0,0.0,0.0,0.0,0.0,0.0,0.0,0.0,0.0,0.0,0.0,0.0,0.0,0.0,0.0,0.0,0.0,0.0,0.0,0.0,0.0,0.0,0.0,-0.0401,-0.0159,0.0,0.0,0.0336,0.0722,0.1139,0.1592,0.2045,0.248,0.2438,0.0,0.0,0.0,0.0,0.0,0.0,0.0,0.0,0.0,0.0,0.0,0.0,0.0,0.0,0.0,0.0,0.0,0.0,0.0,0.0,0.0,0.0,0.0,0.0,0.0,0.0,0.0,0.0,0.0,0.0,0.0,0.0,0.0,0.0,0.0,0.0,0.0,0.0,0.0,0.0,0.0,0.0,0.0,0.0,0.0,0.0,0.0,0.0,0.0,0.0,0.0,0.0,0.0,0.0,0.0,0.0,0.0,0.0,0.0,-0.0805,-0.0476,0.0,0.0,0.0,0.0,0.0,0.0,0.0,0.0,0.0,0.0,0.0,0.0,0.0,0.0,0.0,0.0,0.0,0.0,0.0,0.0,0.0,0.0,0.0,0.0,0.0,0.0,0.0,0.0,0.0,0.0,0.0,0.0,0.0,0.0,0.0,0.0,0.0,0.0,0.0,0.0,-0.0401,-0.0159,0.0,0.0,0.042,0.0856,0.1273,0.1726,0.2197,0.2663,0.2696,0.0,0.0,0.0,0.0,0.0,0.0,0.0,0.0,0.0,0.0,0.0,0.0,0.0,0.0,0.0,0.0,0.0,0.0,0.0,0.0,0.0,0.0,0.0,0.0,0.0,0.0,0.0,0.0,0.0,0.0,0.0,0.0,0.0,0.0,0.0,0.0,0.0,0.0,0.0,0.0,0.0,0.0,0.0,0.0,0.0,0.0,0.0,0.0,0.0,0.0,0.0,0.0,0.0,-0.233,-0.2402,-0.2372,-0.1657,-0.1291,-0.1181,-0.0962,-0.054,-0.0014,-0.0118,0.0,0.0,0.0,0.0,0.0,0.0,0.0,0.0,0.0,0.0,0.0,0.0,0.0,0.0,0.0,0.0,0.0,0.0,0.0,0.0,0.0,0.0,0.1069,0.1086,0.1855,0.2327,0.1384,0.0,0.0,0.0,0.0,0.0,0.0,0.0,0.0,0.0,0.0,0.0,-0.0371,-0.0147,0.0034,0.0118,0.0537,0.0973,0.139,0.1861,0.2281,0.2679,0.2696,0.2624,0.0,0.0,0.0,0.0,0.0,0.0,0.0,0.0,0.0,0.0,0.0,0.0,0.0,0.0,0.0,0.0,0.0,0.0,0.0,0.0,0.0,0.0,0.0,0.0,0.0,0.0,0.0,0.0,0.0,0.0,0.0,0.0,0.2422,0.1602,0.0,0.0,0.0,0.0,0.0,0.0,0.0,0.0,0.0,0.0,0.0,0.0,0.0,-0.1243,-0.1942,-0.2264,-0.2553,-0.279,-0.3099,-0.3205,-0.3142,-0.2563,-0.2032,-0.1495,-0.096,0.0,0.0,-0.0014,0.0,0.0,0.0,0.0,0.0,0.0,0.0,0.0,0.0,0.0,0.0,0.0,0.0,0.0,0.0,0.0,0.0,0.0,0.0,0.0,0.0,0.0,0.1704,0.1825,0.1975,0.2124,0.2254,0.2083,0.1538,0.0245,0.0,0.0,0.0,0.0,0.0,0.0,0.0,0.0,-0.023,-0.0093,0.0151,0.0571,0.0973,0.1406,0.1861,0.2331,0.263,0.2696,0.2696,0.2686,0.2658,0.231,0.0,0.0,0.0,0.0,0.0,0.0,0.0,0.0,0.0,0.0,0.0,0.0,0.0,0.0,0.0,0.0,0.0,0.0,0.0,0.0,0.0,0.0,0.0,0.0,0.0,0.0,0.0,0.0,0.0,0.271,0.2685,0.1816,0.1762,0.1558,0.0,0.0,0.0,0.0,0.0,0.0,0.0,0.0,0.0,-0.0776,-0.1192,-0.1681,-0.2271,-0.2844,-0.3179,-0.3286,-0.344,-0.3322,-0.2948,-0.2365,-0.1785,-0.1183,-0.0577,-0.0197,0.0,0.0,0.0,-0.001,0.0,0.0,0.0,0.0,-0.0251,-0.0195,-0.0145,-0.0079,0.0,0.0,0.0,0.0,0.0,0.0,0.0,0.0,0.0,0.0389,0.0479,0.0848,0.1255,0.1543,0.181,0.2117,0.2517,0.2546,0.2258,0.1503,0.0614,0.0,0.0,-0.0098,0.0,0.0,0.0,-0.0059,0.0113,0.0281,0.0554,0.099,0.1425,0.1778,0.1981,0.243,0.2795,0.3019,0.3035,0.3123,0.3308,0.2866,0.2107,0.0,0.0,0.0,0.0,0.0,0.0,0.0,0.0,0.0,0.0,0.0,0.0,0.0,0.0,0.0,0.0,0.0,0.0,0.0,0.0,0.0,0.0,0.0,0.0,0.0,0.0,0.0,0.0,0.279,0.2917,0.208,0.2073,0.1901,0.0,0.0,0.0,0.0,0.0,0.0,0.0,0.0,-0.0238,-0.0728,-0.1288,-0.181,-0.2321,-0.286,-0.3129,-0.3129,-0.3129,-0.2901,-0.245,-0.1852,-0.1318,-0.0871,-0.026,0.0,0.0,0.0,0.0,-0.0015,-0.0106,-0.0149,-0.0145,-0.0146,-0.0146,-0.013,-0.0031,0.0,0.0,0.0,0.0,0.0,0.0,0.0,0.0,0.0,0.0,0.0149,0.0142,0.0499,0.0932,0.1231,0.1742,0.2281,0.263,0.2583,0.2395,0.2166,0.1158,0.0266,0.0032,-0.0028,0.0,-0.0273,-0.0157,0.0079,0.0429,0.0605,0.0906,0.1423,0.1795,0.2047,0.2164,0.2497,0.2828,0.3134,0.3245,0.3408,0.3665,0.3287,0.2744,0.205,0.0,0.0,0.0,0.0,0.0,0.0,0.0,0.0,0.0,0.0,0.0,0.0,0.0,0.0,0.0,0.0,0.0,0.0,0.0,0.0,0.0,0.0,0.0,0.0,0.0,0.0,0.0,0.0,0.0,0.2552,0.2812,0.0,0.0,0.0,0.0,0.1071,0.0411,0.0,0.0,0.0,-0.0283,-0.0882,-0.0931,-0.1223,-0.1823,-0.1871,-0.1895,-0.1895,-0.1895,-0.1873,-0.183,-0.1228,-0.094,-0.0873,-0.0269,0.0,0.0,0.0,0.0,0.0,0.0,-0.0015,-0.0014,-0.0016,-0.0017,-0.0017,0.0,0.0,0.0,0.0,0.0,0.0,0.0,0.0013,0.0,0.0,0.0014,0.0014,0.0016,0.0631,0.128,0.1303,0.199,0.2663,0.2696,0.2246,0.1754,0.1416,0.1285,0.0971,0.0145,0.0,-0.0152,-0.0042,-0.0112,0.0015,0.0608,0.0687,0.1025,0.188,0.1981,0.2181,0.263,0.2679,0.2716,0.2729,0.3085,0.3302,0.3326,0.3293,0.3083,0.2659,0.2065,0.0,0.0,0.0,0.0,0.0,0.0,0.0,0.0,0.0,0.0,0.0,0.0,0.0,0.0,0.0,0.0,0.0,0.0,0.0,0.0,0.0,0.0,0.0,0.0,0.0,0.0,0.0,0.0,0.2822,0.2968,0.0,0.2561,0.214,0.1693,0.1263,0.0825,0.0407,0.0021,0.0,-0.0109,-0.0314,-0.0694,-0.1006,-0.1228,-0.1607,-0.1808,-0.1808,-0.1808,-0.1607,-0.1207,-0.1006,-0.0694,-0.0314,-0.009,0.0,0.0,0.0,0.0,0.0,0.0,0.0,0.0,0.0,0.0,0.0,0.0,0.0,0.0,0.0,0.0,0.0,0.0,0.0,0.0,0.0,0.0,0.0,0.0,0.0654,0.1295,0.1299,0.2026,0.2696,0.2696,0.2537,0.2258,0.1835,0.1187,0.0697,0.0602,0.0474,0.0427,0.0554,0.0679,0.0959,0.147,0.1807,0.22,0.2785,0.3101,0.3348,0.3516,0.3266,0.3216,0.3516,0.3679,0.387,0.4124,0.3965,0.3666,0.3227,0.254,0.2065,0.0,0.0,0.0,0.0,0.0,0.0,0.0,0.0,0.0,0.0,0.0,0.0,0.0,0.0,0.0,0.0,0.0,0.0,0.0,0.0,0.0,0.0,0.0,0.0,0.0,0.3616,0.3596,0.3241,0.324,0.3158,0.2859,0.2556,0.2208,0.1801,0.1234,0.0716,0.0314,0.0112,0.0,0.0,-0.0381,-0.0605,-0.0605,-0.0984,-0.1185,-0.1185,-0.1185,-0.0984,-0.0605,-0.0605,-0.0381,0.0,0.0,0.0,0.0,0.0,0.0,0.0,0.0,0.0,0.0,0.0,0.0,0.0,0.0,0.0,0.0,0.0,0.0,0.0,0.0,0.0,0.0,0.0,0.0,0.0,0.0,0.069,0.1379,0.1307,0.2048,0.2795,0.2889,0.2792,0.2639,0.2471,0.1622,0.0963,0.1018,0.0956,0.0917,0.0965,0.1288,0.1673,0.2085,0.2472,0.2913,0.3474,0.3674,0.3826,0.3993,0.3486,0.3337,0.3735,0.3816,0.3936,0.4151,0.408,0.3778,0.3239,0.2511,0.1953,0.1594,0.0,0.0,0.0,0.0,0.0,0.0,0.0,0.0,0.0,0.0,0.0,0.0,0.0,0.0,0.0,0.0,0.0,0.0,0.0,0.0,0.0,0.0,0.0,0.466,0.4276,0.3985,0.3827,0.3719,0.3491,0.3151,0.2893,0.2724,0.2707,0.1634,0.0964,0.0944,0.0383,0.0068,0.0045,0.0045,0.0023,0.0,0.0,0.0,0.0,0.0,0.0,0.0,0.0,0.0,0.0,0.0,0.0,0.0,0.0,0.0,0.0,0.0,0.0,0.0,0.0,0.0,0.0,0.0,0.0,0.0,0.0,0.0,0.0,0.0,0.0,0.0,0.0,0.0,0.0,0.0,0.0805,0.1551,0.1364,0.2146,0.3015,0.3269,0.3023,0.2863,0.3265,0.2649,0.1911,0.1421,0.1355,0.1312,0.1193,0.1683,0.0,0.241,0.2618,0.3057,0.3902,0.3584,0.3498,0.3967,0.335,0.3043,0.3302,0.3452,0.3466,0.331,0.3569,0.3398,0.2721,0.2011,0.1505,0.1228,0.0,0.0,0.0,0.0,0.0,0.0,0.0,0.0,0.0,0.0,0.0,0.0,0.0,0.0,0.0,0.0,0.0,0.0,0.0,0.0,0.0,0.5198,0.5674,0.5168,0.5005,0.4763,0.4293,0.4336,0.4199,0.366,0.3543,0.3351,0.3013,0.2583,0.2198,0.1852,0.1685,0.135,0.0821,0.0795,0.0548,0.0,0.0,0.0,0.0,0.0,0.0,0.0,0.0,0.0,0.0,0.0,0.0,0.0,0.0,0.0,0.0,0.0,0.0,0.0,0.0,0.0,0.0,0.0,0.0,0.0,0.0,0.0,0.0,0.0,0.0,0.0,0.0,0.0,0.0,0.0,0.0804,0.1588,0.1533,0.2636,0.3721,0.3796,0.3872,0.3963,0.4078,0.3739,0.3196,0.2386,0.2518,0.2733,0.2707,0.3119,0.3484,0.3547,0.3605,0.3699,0.3843,0.3741,0.3832,0.4256,0.3841,0.3625,0.379,0.4118,0.3993,0.3335,0.3698,0.362,0.3008,0.2748,0.2364,0.0,0.0,0.0,0.0,0.0,0.0,0.0,0.0,0.0,0.0,0.0,0.0,0.0,0.0,0.0,0.0,0.0,0.0,0.0,0.0,0.0,0.0,0.64,0.696,0.66,0.6137,0.5769,0.5548,0.5139,0.4741,0.4383,0.4051,0.3775,0.3487,0.3175,0.2871,0.2586,0.2039,0.1547,0.1123,0.0798,0.0444,0.0,0.0,0.0,0.0,0.0,0.0,0.0,0.0,0.0,0.0,0.0,0.0,0.0,0.0,0.0,0.0,0.0,0.0,0.0,0.0,0.0,0.0,0.0,0.0,0.0,0.0,0.0,0.0,0.0,0.0,0.0,0.0,0.0,0.0065,0.0302,0.1035,0.1725,0.1936,0.305,0.4119,0.4223,0.4576,0.4929,0.5108,0.5028,0.0,0.4197,0.3813,0.3584,0.3523,0.3934,0.4226,0.4176,0.422,0.4226,0.4146,0.3981,0.3981,0.4206,0.3737,0.0,0.0,0.0,0.4001,0.369,0.3745,0.0,0.0,0.0,0.2985,0.2689,0.1903,0.0,0.0,-0.0884,-0.1408,0.0,0.0,0.0,0.0,0.0,0.0,0.0,0.0,0.0,0.0,0.0,0.0,0.0,0.0,0.0,0.0,0.7656,0.8379,0.8416,0.7494,0.6887,0.7068,0.6068,0.5298,0.515,0.4538,0.4125,0.4066,0.3548,0.3243,0.3256,0.2139,0.0,0.0,0.0,0.0203,0.0126,0.0051,0.0,0.0,0.0,0.0,0.0,0.0,0.0,0.0,0.0,0.0,0.0,0.0,0.0,0.0,0.0,0.0,0.0,0.0,0.0,0.0,0.0,0.0,0.0,0.0,0.0,0.0,0.0,0.0,0.0,0.0,0.0045,0.0225,0.0761,0.1407,0.2033,0.2488,0.3489,0.4416,0.4718,0.5229,0.5751,0.6169,0.6216,0.6196,0.6196,0.509,0.4156,0.403,0.4395,0.4646,0.4525,0.4565,0.459,0.4571,0.4178,0.0,0.3969,0.3384,0.3115,0.3371,0.3487,0.3758,0.4226,0.384,0.3563,0.3455,0.3499,0.3563,0.3621,0.2861,0.2353,0.204,0.0112,-0.1017,0.0,0.0,0.0,0.0,0.0,0.0,0.0,0.0,0.0,0.0,0.0,0.0,0.0,0.0,0.0,0.7915,0.8456,0.8881,0.9152,0.8525,0.7806,0.7164,0.6963,0.6446,0.5375,0.5122,0.4871,0.4449,0.4138,0.4069,0.4233,0.3993,0.3565,0.2966,0.2184,0.1493,0.0883,0.0286,0.0,0.0,0.0,0.0,0.0,0.0,0.0,0.0,0.0,0.0,0.0,0.0,0.0,0.0,0.0,0.0,0.0,0.0,0.0,0.0,0.0,0.0,0.0,0.0,0.0,0.0,0.0,0.0,0.0,0.0,0.0359,0.0761,0.0873,0.1719,0.2667,0.3184,0.422,0.5232,0.5786,0.6145,0.6409,0.6506,0.635,0.6196,0.6196,0.5742,0.5352,0.5334,0.5245,0.5163,0.5119,0.4827,0.4567,0.4445,0.3736,0.3432,0.3811,0.3714,0.369,0.386,0.3892,0.4092,0.4512,0.4435,0.4381,0.435,0.4721,0.474,0.4388,0.3535,0.2932,0.252,0.0788,-0.0431,0.0,0.0,0.0,0.0,0.0,0.0,0.0,0.0,0.0,0.0,0.0,0.5577,0.6656,0.0,0.8661,0.8998,0.9341,0.9493,0.9337,0.8889,0.8428,0.7999,0.7685,0.7242,0.6576,0.5836,0.5288,0.5023,0.4609,0.4389,0.4487,0.4153,0.3789,0.3425,0.2266,0.1483,0.1117,0.0379,0.0,0.0,0.0,0.0,0.0,0.0,0.0,0.0,0.0,0.0,0.0,0.0,0.0,0.0,0.0,0.0,0.0,0.0,0.0,0.0,0.0,0.0,0.0,0.0,0.0,0.0,0.0,0.0,0.0067,0.0359,0.0672,0.1029,0.1652,0.2448,0.324,0.3811,0.486,0.583,0.6136,0.6519,0.6807,0.6807,0.6687,0.6606,0.6606,0.6346,0.6099,0.5976,0.5829,0.5682,0.5518,0.5293,0.4989,0.4541,0.4111,0.3868,0.3899,0.3899,0.4014,0.4291,0.4296,0.4489,0.4928,0.4953,0.4842,0.4602,0.4826,0.4842,0.4602,0.3957,0.3644,0.3607,0.2146,0.0728,0.0,0.0,0.0,0.0,0.0,0.0,0.0,0.347,0.4042,0.5614,0.6497,0.7344,0.8508,0.9533,1.0154,1.0021,1.0168,1.0075,0.94,0.9006,0.8752,0.8613,0.8182,0.7803,0.7509,0.6416,0.5597,0.5324,0.4814,0.4491,0.4491,0.3929,0.3624,0.3624,0.2259,0.148,0.1312,0.0588,0.014,0.0,0.0,0.0,0.0,0.0,0.0,0.0,0.0,0.0,0.0,0.0,0.0,0.0,0.0,0.0,0.0,0.0,0.0,0.0,0.0,0.0,0.0,0.0,0.0,0.0,0.0,0.009,0.0269,0.0761,0.1073,0.1474,0.245,0.3177,0.3833,0.443,0.5416,0.6221,0.6328,0.6683,0.7,0.7,0.7,0.7,0.7,0.6827,0.6593,0.6324,0.623,0.6109,0.5832,0.5798,0.5568,0.497,0.4789,0.4541,0.414,0.4118,0.4296,0.4714,0.473,0.4906,0.5277,0.5293,0.5119,0.4746,0.465,0.4602,0.4602,0.4102,0.4032,0.4317,0.3208,0.1828,0.536,0.4484,0.3685,0.2999,0.2899,0.3308,0.0,0.5502,0.6563,0.823,0.9067,0.9869,1.1068,1.1252,1.1181,1.1062,1.0868,1.0503,0.9838,0.919,0.8566,0.7916,0.8321,0.8156,0.6858,0.6588,0.5959,0.4708,0.4546,0.4491,0.4491,0.4436,0.4377,0.4377,0.3566,0.2788,0.2091,0.1341,0.0643,0.0,0.0,0.0,0.0,0.0,0.0,0.0,0.0,0.0,0.0,0.0,0.0,0.0,0.0,0.0,0.0,0.0,0.0,0.0,0.0,0.0,0.0,0.0,0.0,0.0,0.0,0.0381,0.0806,0.0873,0.1673,0.2539,0.2672,0.3488,0.4452,0.5065,0.5723,0.6328,0.681,0.6958,0.7,0.7,0.7,0.7,0.7,0.6973,0.6874,0.6606,0.6357,0.6182,0.6149,0.6142,0.611,0.6022,0.5433,0.4897,0.4555,0.4538,0.473,0.5198,0.5214,0.5246,0.5293,0.5293,0.5277,0.523,0.481,0.4602,0.4602,0.3784,0.3404,0.3437,0.294,0.2148,0.5767,0.4723,0.3735,0.3485,0.3405,0.3726,0.5046,0.5941,0.7064,0.8995,1.0134,1.0906,1.1342,1.1536,1.1352,1.0516,1.0294,0.9987,0.9309,0.8606,0.8049,0.775,0.7589,0.7262,0.6669,0.6199,0.571,0.5136,0.4732,0.4491,0.4491,0.4491,0.4491,0.4491,0.379,0.301,0.2202,0.148,0.0727,0.0,0.0,0.0,0.0,0.0,0.0,0.0,0.0,0.0,0.0,0.0,0.0,0.0,0.0,0.0,0.0,0.0,0.0283,0.063,0.0631,0.0934,0.1281,0.1287,0.1236,0.1162,0.1166,0.1277,0.1496,0.1851,0.2317,0.2785,0.3126,0.4063,0.4978,0.5238,0.5996,0.6725,0.6958,0.7,0.7,0.7,0.7,0.7,0.7,0.7,0.696,0.686,0.674,0.66,0.6452,0.6425,0.6384,0.6209,0.5918,0.5687,0.5548,0.5354,0.5325,0.5515,0.5387,0.5293,0.5293,0.5293,0.5166,0.4906,0.4473,0.4361,0.4602,0.373,0.3567,0.4043,0.336,0.256,0.5432,0.4566,0.385,0.3804,0.3832,0.4149,0.5246,0.6168,0.7403,0.9532,1.0656,1.1319,1.1581,1.1412,1.0839,0.9688,0.9325,0.8967,0.8289,0.7723,0.7316,0.7122,0.661,0.6231,0.6041,0.571,0.5433,0.5246,0.4787,0.4491,0.4491,0.4491,0.4491,0.4491,0.3987,0.3317,0.2538,0.2009,0.1257,0.0308,0.0308,0.0196,0.0,0.0,0.0,0.0,0.0224,0.0196,0.0028,0.0448,0.0364,0.0028,0.0224,0.0168,0.0,0.0,0.0345,0.0832,0.1039,0.1453,0.1941,0.2126,0.213,0.205,0.2007,0.2046,0.2195,0.2593,0.2829,0.3078,0.366,0.4552,0.5351,0.5502,0.6295,0.7,0.7,0.7,0.7,0.7,0.7,0.7,0.7,0.7,0.7,0.7,0.7,0.6926,0.6734,0.6707,0.662,0.6344,0.631,0.6283,0.6203,0.5976,0.5798,0.5701,0.5518,0.538,0.53,0.5293,0.5135,0.4794,0.4264,0.4134,0.4425,0.3556,0.3458,0.4064,0.3425,0.2794,0.4123,0.3924,0.3972,0.3829,0.4143,0.4652,0.5345,0.6561,0.817,1.0248,1.0756,1.1215,1.2512,1.1114,0.9533,0.8855,0.814,0.7431,0.6772,0.6642,0.6367,0.5651,0.5542,0.5273,0.4625,0.5136,0.5218,0.457,0.4519,0.4491,0.4491,0.4491,0.4491,0.4491,0.4487,0.4098,0.3372,0.3345,0.2565,0.1062,0.1062,0.0699,0.0,0.0,0.0,0.0028,0.0755,0.0671,0.0112,0.1535,0.1284,0.0084,0.0783,0.0643,0.0,0.0,0.0028,0.014,0.0864,0.1114,0.1247,0.1978,0.2193,0.2163,0.2039,0.2418,0.284,0.2727,0.3126,0.3685,0.4242,0.4826,0.5459,0.6029,0.6605,0.7,0.7,0.7,0.7,0.7,0.7,0.7,0.7,0.7,0.7,0.7,0.7,0.7,0.6993,0.6986,0.688,0.6607,0.6593,0.6486,0.6216,0.6189,0.6037,0.5714,0.5688,0.5571,0.5306,0.5293,0.5293,0.5284,0.4447,0.401,0.4026,0.3142,0.2729,0.2762,0.2729,0.2696,0.4543,0.4206,0.3942,0.4189,0.4378,0.468,0.5351,0.6602,0.7943,0.9132,0.9668,0.9944,0.996,0.898,0.7961,0.7275,0.7029,0.687,0.6637,0.6177,0.5787,0.5538,0.5109,0.4759,0.4515,0.4708,0.4732,0.4515,0.4491,0.4491,0.4491,0.4491,0.4491,0.4491,0.4491,0.4153,0.34,0.3345,0.2593,0.109,0.0616,0.0504,0.0727,0.0727,0.1006,0.148,0.173,0.1703,0.1507,0.2009,0.1898,0.1424,0.1202,0.095,0.0671,0.0168,0.0308,0.0838,0.1563,0.2147,0.2698,0.3465,0.3645,0.351,0.3479,0.3483,0.3497,0.345,0.3774,0.418,0.4347,0.5151,0.5943,0.6157,0.6605,0.7,0.7,0.7,0.7,0.7,0.7,0.7,0.7,0.7,0.7126,0.753,0.7252,0.7,0.7,0.7,0.6966,0.6867,0.686,0.684,0.674,0.6573,0.6338,0.6043,0.5825,0.5585,0.5306,0.5293,0.5293,0.5293,0.4698,0.4393,0.4393,0.3523,0.3101,0.3101,0.2828,0.253,0.4898,0.4442,0.3924,0.4375,0.4491,0.4625,0.5058,0.6018,0.7052,0.7797,0.8138,0.8289,0.8133,0.7275,0.6459,0.6058,0.5912,0.5855,0.5855,0.5437,0.5136,0.5136,0.4759,0.4491,0.4491,0.4491,0.4491,0.4491,0.4491,0.4491,0.4491,0.4491,0.4491,0.4491,0.4491,0.4267,0.379,0.3763,0.3121,0.1925,0.1146,0.1034,0.148,0.148,0.1758,0.2204,0.248,0.2454,0.2232,0.2788,0.2704,0.2147,0.1675,0.148,0.1396,0.0671,0.0866,0.1563,0.2035,0.2704,0.3456,0.4236,0.4399,0.4291,0.421,0.4085,0.3941,0.3887,0.4176,0.4558,0.4737,0.5499,0.6243,0.6435,0.6747,0.7,0.7,0.7,0.7,0.7,0.7,0.7,0.7,0.7,0.7133,0.751,0.7426,0.7398,0.7579,0.744,0.7321,0.7321,0.7126,0.7,0.7,0.6854,0.662,0.6371,0.605,0.5738,0.5461,0.5353,0.5293,0.5293,0.4842,0.4538,0.4393,0.3653,0.3229,0.3085,0.2828,0.253,0.5132,0.4603,0.3952,0.4382,0.4491,0.4491,0.4491,0.5058,0.5747,0.6379,0.6334,0.6409,0.7111,0.6021,0.506,0.5182,0.4804,0.4491,0.4491,0.4491,0.4491,0.4491,0.4491,0.4491,0.4491,0.4491,0.4491,0.4491,0.4491,0.4491,0.4491,0.4491,0.4491,0.4491,0.4491,0.4491,0.4491,0.446,0.4098,0.3372,0.2593,0.2232,0.2258,0.2258,0.2286,0.2371,0.3065,0.2954,0.2426,0.3901,0.3649,0.2313,0.2286,0.2258,0.2174,0.1424,0.1619,0.2258,0.2258,0.276,0.3511,0.4267,0.4491,0.4464,0.4274,0.42,0.4167,0.4048,0.4377,0.4874,0.5385,0.5907,0.6407,0.6899,0.702,0.702,0.7006,0.7,0.7,0.7,0.7,0.7,0.7,0.7,0.7,0.7042,0.753,0.8077,0.8594,0.8234,0.7933,0.7933,0.7426,0.7084,0.7084,0.7084,0.6963,0.6666,0.6388,0.6073,0.5708,0.5438,0.5293,0.5293,0.4858,0.4425,0.3993,0.3556,0.3118,0.2696,0.2696,0.2696,0.5561,0.5023,0.4348,0.446,0.4491,0.4491,0.4491,0.5441,0.6168,0.559,0.5794,0.5841,0.5147,0.4527,0.4106,0.4036,0.4302,0.4491,0.4491,0.4491,0.4491,0.4491,0.4491,0.4491,0.4491,0.4491,0.4491,0.4491,0.4491,0.4491,0.4491,0.4491,0.4491,0.4491,0.4491,0.4491,0.4491,0.3901,0.3511,0.3317,0.2565,0.2508,0.3095,0.3095,0.34,0.3929,0.4125,0.4098,0.3932,0.4349,0.4267,0.3846,0.3317,0.3065,0.2926,0.2202,0.2397,0.3037,0.3067,0.3204,0.3456,0.4236,0.4491,0.4484,0.4447,0.4308,0.4187,0.415,0.4877,0.5702,0.5841,0.666,0.7458,0.7386,0.737,0.7316,0.7046,0.7,0.7,0.7,0.7,0.7,0.7,0.7,0.7147,0.76,0.7808,0.7961,0.8077,0.8337,0.85,0.85,0.8349,0.8267,0.8267,0.8267,0.7949,0.7234,0.6955,0.6471,0.5725,0.5438,0.5293,0.5293,0.5182,0.4752,0.3993,0.3875,0.3434,0.2696,0.2696,0.2696,0.6046,0.5337,0.4491,0.4491,0.4491,0.444,0.4238,0.5018,0.5482,0.4434,0.4644,0.4739,0.3796,0.3685,0.3696,0.3614,0.4102,0.4491,0.4491,0.4491,0.4491,0.4491,0.4491,0.4491,0.4491,0.4491,0.4491,0.4491,0.4491,0.4491,0.4491,0.4491,0.4491,0.4491,0.4491,0.4491,0.4491,0.4042,0.3818,0.3818,0.34,0.3456,0.3876,0.3876,0.4098,0.4491,0.4491,0.4491,0.4491,0.4491,0.4491,0.4436,0.368,0.3566,0.3732,0.2954,0.3176,0.3818,0.3873,0.3846,0.3901,0.4349,0.4491,0.4491,0.4491,0.4433,0.4395,0.4683,0.5414,0.6166,0.6495,0.7237,0.7866,0.7715,0.7591,0.7444,0.7255,0.7114,0.7,0.7,0.7,0.7084,0.7342,0.7405,0.7593,0.8172,0.8459,0.8602,0.8602,0.8459,0.8337,0.8337,0.8124,0.7951,0.7951,0.7951,0.7745,0.7258,0.6977,0.6558,0.5954,0.5641,0.5427,0.53,0.5293,0.4874,0.3993,0.3993,0.3548,0.2696,0.2696,0.2696,0.651,0.5637,0.4598,0.4515,0.4491,0.4375,0.3921,0.431,0.4443,0.3315,0.3494,0.3647,0.2937,0.3188,0.3525,0.3566,0.4054,0.4447,0.4484,0.4491,0.4491,0.4491,0.4491,0.4491,0.4491,0.4491,0.4491,0.4491,0.4491,0.4491,0.4491,0.4491,0.4491,0.4491,0.4491,0.4491,0.4491,0.4491,0.4491,0.4491,0.4491,0.4491,0.4491,0.4491,0.4491,0.4491,0.4491,0.4491,0.4491,0.4491,0.4491,0.4436,0.379,0.3929,0.4405,0.3707,0.3901,0.4491,0.4491,0.4491,0.4491,0.4491,0.4491,0.4519,0.4598,0.4625,0.4787,0.5464,0.6009,0.6545,0.7184,0.7679,0.8012,0.7972,0.7756,0.7538,0.752,0.73,0.7147,0.721,0.7231,0.7398,0.7912,0.7995,0.816,0.8622,0.9099,0.9399,0.9399,0.8695,0.8214,0.8214,0.7752,0.7426,0.7426,0.7426,0.7412,0.7328,0.7002,0.6667,0.6368,0.5978,0.5651,0.5414,0.5373,0.4962,0.4149,0.4106,0.363,0.2779,0.2779,0.2746,0.673,0.5982,0.5191,0.4625,0.4491,0.4406,0.4053,0.4614,0.4777,0.3255,0.3573,0.3763,0.255,0.2707,0.3084,0.3309,0.3765,0.4182,0.4457,0.4491,0.4491,0.4491,0.4491,0.4491,0.4491,0.4491,0.4491,0.4491,0.4491,0.4491,0.4491,0.4491,0.4491,0.4491,0.4491,0.4491,0.4491,0.4491,0.4491,0.4491,0.4491,0.4491,0.4491,0.4491,0.4491,0.4491,0.4491,0.4491,0.4491,0.4491,0.4491,0.4491,0.4349,0.4377,0.4491,0.4349,0.4377,0.4491,0.4491,0.4491,0.4491,0.4491,0.4491,0.4598,0.5164,0.5324,0.5487,0.6204,0.6908,0.7467,0.7606,0.8129,0.8597,0.8357,0.807,0.7782,0.7544,0.763,0.787,0.8329,0.8411,0.8431,0.8541,0.8561,0.8594,0.8683,0.8777,0.8837,0.8837,0.9459,0.9883,0.9883,0.9795,0.9726,0.9726,0.9726,0.9549,0.909,0.834,0.7709,0.7208,0.6505,0.6095,0.6041,0.5782,0.5401,0.4905,0.4625,0.4048,0.3196,0.3196,0.3019,0.6804,0.6064,0.5433,0.5109,0.4759,0.446,0.4342,0.4591,0.4434,0.3072,0.3293,0.3418,0.2394,0.2589,0.2936,0.3077,0.3603,0.4072,0.4321,0.4443,0.4491,0.4491,0.4491,0.4491,0.4491,0.4491,0.4491,0.4491,0.4491,0.4491,0.4491,0.4491,0.4491,0.4491,0.4491,0.4491,0.4491,0.4491,0.4491,0.4491,0.4491,0.4491,0.4491,0.4491,0.4267,0.3901,0.4322,0.4267,0.3901,0.4322,0.4491,0.4491,0.4491,0.4491,0.4491,0.4491,0.4491,0.4491,0.4491,0.4732,0.503,0.503,0.503,0.5085,0.5406,0.576,0.6226,0.6961,0.7423,0.7777,0.8182,0.8784,0.9299,0.915,0.899,0.8768,0.8497,0.8384,0.8398,0.8655,0.8695,0.8777,0.9059,0.9119,0.9219,0.9498,0.9538,0.9538,0.9538,0.9981,1.0088,0.9518,0.9459,0.9459,0.9459,0.9459,0.9359,0.9099,0.8689,0.8145,0.7425,0.7027,0.6619,0.6214,0.6037,0.5742,0.5305,0.5145,0.4544,0.3552,0.3552,0.3251,0.7047,0.6308,0.5733,0.5733,0.5113,0.4517,0.4632,0.4474,0.4012,0.2954,0.2967,0.2983,0.2355,0.2499,0.275,0.2909,0.3425,0.3903,0.4157,0.4345,0.4457,0.4487,0.4491,0.4491,0.4491,0.4491,0.4491,0.4491,0.4491,0.4491,0.4491,0.4491,0.4491,0.4491,0.4491,0.4491,0.4491,0.4491,0.4491,0.4491,0.4491,0.4491,0.4491,0.4491,0.407,0.3345,0.4153,0.4042,0.337,0.4181,0.4491,0.4491,0.4491,0.4491,0.4491,0.4491,0.4491,0.4491,0.4491,0.4948,0.5515,0.5515,0.5597,0.576,0.5923,0.6389,0.6993,0.7723,0.7943,0.8096,0.8817,0.9413,0.9825,0.9903,0.9811,0.9664,0.9494,0.9152,0.8898,0.9019,0.9039,0.9179,0.9597,0.9677,0.9814,1.0244,1.0303,1.0303,1.0303,1.0303,0.9981,0.9139,0.9039,0.9039,0.9039,0.9039,0.9039,0.9039,0.8938,0.8523,0.7714,0.7569,0.7146,0.6384,0.6317,0.6096,0.5732,0.567,0.5116,0.4079,0.4079,0.3681,0.7803,0.7074,0.6507,0.6507,0.55,0.4576,0.4819,0.4434,0.3819,0.3043,0.2819,0.2675,0.2424,0.2222,0.2299,0.2973,0.3138,0.3428,0.4097,0.4207,0.4291,0.4474,0.4491,0.4491,0.4491,0.4491,0.4491,0.4491,0.4491,0.4491,0.4491,0.4491,0.4491,0.4491,0.4491,0.4491,0.4491,0.4491,0.4491,0.4491,0.4491,0.4491,0.4491,0.4491,0.407,0.3345,0.4153,0.4042,0.337,0.4181,0.4491,0.4491,0.4491,0.4491,0.4491,0.4491,0.4491,0.4491,0.4491,0.4948,0.5515,0.5515,0.5955,0.661,0.7289,0.753,0.775,0.848,0.8699,0.885,0.9536,0.9762,0.9893,1.0262,1.0005,0.9754,0.9966,0.9717,0.9578,1.0059,1.0157,1.0166,1.0225,1.0225,1.0244,1.0303,1.0303,1.0303,1.0303,1.0303,1.0264,1.0157,1.0157,1.0157,1.0157,1.0157,1.0157,1.0157,0.9696,0.9182,0.8606,0.8105,0.7556,0.6941,0.668,0.6553,0.6488,0.626,0.5728,0.4987,0.4987,0.4593,0.7868,0.7482,0.7262,0.7262,0.6371,0.5592,0.587,0.5121,0.4199,0.3673,0.3226,0.2891,0.2735,0.2449,0.2371,0.2798,0.2934,0.3161,0.3643,0.3863,0.4029,0.4178,0.4277,0.4368,0.4481,0.4491,0.4491,0.4491,0.4491,0.4491,0.4491,0.4491,0.4491,0.4491,0.4491,0.4491,0.4491,0.4491,0.4491,0.4491,0.4491,0.4491,0.4491,0.4491,0.407,0.34,0.4181,0.4042,0.337,0.4181,0.4491,0.4491,0.4491,0.4491,0.4491,0.4491,0.4491,0.4491,0.4491,0.5226,0.6172,0.6172,0.6961,0.7889,0.775,0.8023,0.8427,0.8725,0.8804,0.8956,0.9614,1.0389,1.1157,1.1749,1.1361,1.0872,1.0984,1.0466,1.004,1.0264,1.0303,1.0303,1.0303,1.0303,1.0303,1.0303,1.0303,1.0303,1.0303,1.0303,1.0303,1.0303,1.0303,1.0303,1.0303,1.0303,1.0303,1.0303,1.0098,0.9745,0.9199,0.8978,0.8594,0.8034,0.7606,0.7385,0.7385,0.6915,0.622,0.5341,0.5341,0.4853,0.8081,0.7857,0.775,0.7969,0.7095,0.6278,0.6538,0.5566,0.4487,0.4082,0.3526,0.305,0.2878,0.2572,0.2408,0.2603,0.272,0.2959,0.3458,0.3648,0.3819,0.4035,0.413,0.426,0.4389,0.4464,0.4491,0.4491,0.4491,0.4491,0.4491,0.4491,0.4491,0.4491,0.4491,0.4491,0.4491,0.4491,0.4491,0.4491,0.4491,0.4491,0.4491,0.4491,0.4098,0.3428,0.4181,0.4042,0.337,0.4181,0.4491,0.4491,0.4491,0.4491,0.4491,0.4491,0.4491,0.4491,0.4491,0.5418,0.6588,0.6588,0.7589,0.8699,0.8182,0.8401,0.8804,0.8804,0.9087,0.9536,1.0218,1.125,1.2261,1.2774,1.2328,1.178,1.178,1.1095,1.0469,1.0469,1.0391,1.0303,1.0303,1.0303,1.0303,1.0303,1.0303,1.0303,1.0303,1.0303,1.0303,1.0303,1.0303,1.0303,1.0303,1.0303,1.0303,1.0303,1.0303,1.0059,0.9518,0.9498,0.9239,0.8716,0.8316,0.8139,0.8139,0.7551,0.6814,0.5948,0.577,0.5304,0.8724,0.8262,0.7883,0.8613,0.7492,0.6278,0.6538,0.5566,0.4487,0.4082,0.3526,0.3014,0.2745,0.2426,0.2275,0.2469,0.2501,0.2802,0.3682,0.3692,0.3748,0.414,0.4194,0.4197,0.4197,0.4379,0.4491,0.4491,0.4491,0.4491,0.4491,0.4491,0.4491,0.4491,0.4491,0.4491,0.4491,0.4491,0.4491,0.4491,0.4491,0.4491,0.4491,0.4491,0.4098,0.3428,0.4181,0.4042,0.337,0.4181,0.4491,0.4491,0.4491,0.4491,0.4491,0.4491,0.4491,0.4491,0.4491,0.5418,0.6588,0.6588,0.7589,0.8804,0.8778,0.8804,0.8804,0.8804,0.9762,1.0939,1.1616,1.232,1.2881,1.2905,1.2549,1.2203,1.2203,1.1511,1.0878,1.0878,1.0566,1.0303,1.0303,1.0303,1.0303,1.0303,1.0303,1.0303,1.0303,1.0303,1.0303,1.0303,1.0303,1.0303,1.0303,1.0303,1.0303,1.0303,1.0303,1.0059,0.9518,0.9498,0.9239,0.8716,0.8695,0.8695,0.8695,0.8152,0.7586,0.697,0.6439,0.6076,0.7886,0.7874,0.778,0.762,0.7163,0.6677,0.6389,0.5674,0.4925,0.4382,0.3787,0.3322,0.314,0.2951,0.2863,0.3012,0.297,0.3078,0.3591,0.3713,0.3816,0.4038,0.427,0.4395,0.4395,0.4464,0.4491,0.4491,0.4491,0.4708,0.5164,0.4759,0.4491,0.4491,0.4491,0.4491,0.4491,0.4491,0.4491,0.4491,0.4491,0.4491,0.4491,0.4491,0.4377,0.4153,0.4405,0.4349,0.4153,0.4405,0.4491,0.4491,0.4491,0.4491,0.4491,0.4491,0.4787,0.5109,0.4653,0.5741,0.7262,0.675,0.7589,0.8804,0.8804,0.8804,0.891,0.9361,1.0115,1.0939,1.1641,1.2344,1.2905,1.2905,1.2549,1.2203,1.2203,1.1511,1.0908,1.0908,1.0586,1.0303,1.0303,1.0303,1.0303,1.0303,1.0303,1.0303,1.0303,1.0303,1.0428,1.0734,1.0783,1.0649,1.0322,1.0303,1.0303,1.0303,1.0303,1.0225,1.0059,1.004,0.9961,0.9804,0.9439,0.9239,0.9239,0.8704,0.8051,0.7277,0.7284,0.7058,0.7263,0.7522,0.7635,0.7126,0.7,0.682,0.6164,0.5548,0.4943,0.4375,0.385,0.3441,0.3261,0.3157,0.3066,0.2968,0.2956,0.3075,0.344,0.3568,0.3721,0.4041,0.427,0.4429,0.4484,0.4491,0.4598,0.4866,0.4869,0.5195,0.5869,0.5246,0.4869,0.4869,0.4625,0.4491,0.4491,0.4491,0.4491,0.4491,0.4491,0.4491,0.4491,0.4491,0.4491,0.4491,0.4491,0.4491,0.0,0.4491,0.4491,0.4491,0.4491,0.4491,0.4491,0.4491,0.4921,0.5406,0.4732,0.5905,0.7589,0.6831,0.7589,0.8804,0.8804,0.8804,0.8982,0.9917,1.0491,1.1015,1.1981,1.2559,1.2905,1.2905,1.2676,1.2457,1.2457,1.1892,1.1385,1.1385,1.1064,1.0782,1.0782,1.0645,1.0597,1.0795,1.0683,1.064,1.084,1.0859,1.0973,1.1263,1.13,1.1169,1.0897,1.0668,1.0486,1.0322,1.0303,1.037,1.0563,1.039,1.037,1.0553,1.005,0.9804,0.9804,0.9129,0.8423,0.7705,0.7777,0.77,0.0,0.7157,0.7316,0.6974,0.6893,0.6687,0.5828,0.5192,0.0,0.4113,0.3734,0.3445,0.3253,0.3174,0.3006,0.2638,0.2694,0.292,0.3293,0.3373,0.3594,0.416,0.4217,0.4294,0.4491,0.455,0.4842,0.546,0.5542,0.59,0.6642,0.5982,0.5597,0.5647,0.4948,0.4546,0.4491,0.4491,0.4491,0.4491,0.4491,0.4491,0.4491,0.4491,0.4491,0.4491,0.4491,0.4491,0.4491,0.4491,0.4491,0.4491,0.4491,0.4491,0.4491,0.4491,0.4921,0.5406,0.4732,0.5905,0.7589,0.6966,0.7696,0.8804,0.8804,0.8831,0.9133,1.044,1.0838,1.1174,1.2544,1.2905,1.2905,1.2905,1.2905,1.2905,1.2905,1.2539,1.2203,1.2203,1.1888,1.1606,1.1606,1.1263,1.1174,1.1683,1.1425,1.133,1.1793,1.1867,1.1856,1.1847,1.1847,1.1847,1.1847,1.1356,1.0867,1.0428,1.0419,1.0592,1.1038,1.063,1.0592,1.1,1.0544,1.0303,1.0303,0.9488,0.8807,0.8297,0.808,0.8158,0.612,0.0,0.6377,0.5836,0.5858,0.5834,0.0,0.4907,0.4641,0.4113,0.3734,0.3689,0.4296,0.3855,0.3602,0.4219,0.3958,0.3729,0.3818,0.4056,0.4297,0.4555,0.4484,0.4498,0.4651,0.5023,0.5324,0.5483,0.6036,0.6664,0.7396,0.6745,0.661,0.7176,0.5923,0.503,0.4519,0.4491,0.4491,0.4491,0.4491,0.4491,0.4491,0.4491,0.4491,0.4491,0.4491,0.4491,0.4491,0.4491,0.4491,0.4491,0.4491,0.4491,0.4491,0.4491,0.4921,0.5406,0.4732,0.5905,0.7777,0.8156,0.8507,0.8804,0.8804,0.9159,0.9736,1.0568,1.1166,1.1774,1.2666,1.2905,1.2905,1.2905,1.2905,1.2905,1.2905,1.2539,1.2203,1.2203,1.1888,1.1606,1.1606,1.1895,1.2173,1.2278,1.2616,1.2729,1.2437,1.2411,1.2396,1.2347,1.2347,1.2347,1.2347,1.1891,1.156,1.146,1.1442,1.1497,1.1608,1.1516,1.1311,1.1019,1.0544,1.0303,1.0303,1.0099,0.9713,0.9197,0.9562,0.9534,0.5639,0.6106,0.6495,0.5836,0.5902,0.5925,0.5188,0.4815,0.4456,0.3888,0.363,0.3692,0.4316,0.4256,0.4257,0.477,0.4861,0.4814,0.463,0.4942,0.5188,0.5193,0.549,0.5658,0.5595,0.583,0.6145,0.6492,0.688,0.7423,0.8156,0.7503,0.7289,0.7696,0.6276,0.5324,0.4976,0.4653,0.4491,0.4491,0.4491,0.4491,0.4491,0.4491,0.4491,0.4491,0.4491,0.4491,0.4515,0.4842,0.4787,0.4543,0.4842,0.4948,0.4948,0.4948,0.5628,0.6357,0.5328,0.5928,0.7369,0.8454,0.9008,0.9211,0.8883,0.9684,1.0745,1.0788,1.1291,1.1972,1.2715,1.2905,1.2905,1.2905,1.2905,1.2905,1.2905,1.2695,1.259,1.2876,1.2523,1.2364,1.2922,1.2867,1.2947,1.3493,1.3645,1.3614,1.3321,1.33,1.3172,1.2851,1.282,1.282,1.282,1.2597,1.2264,1.1829,1.1792,1.1902,1.2102,1.1902,1.1664,1.1375,1.0878,1.0611,1.0611,1.0409,1.0157,0.9883,1.0157,1.0137,0.5659,0.6481,0.7206,0.6295,0.6388,0.6455,0.5524,0.4866,0.4302,0.3752,0.3639,0.3796,0.4308,0.4663,0.4948,0.5141,0.5603,0.5853,0.5529,0.584,0.6061,0.5968,0.6601,0.6921,0.6681,0.6717,0.702,0.7643,0.7803,0.8129,0.8778,0.8209,0.7857,0.7857,0.6546,0.5787,0.5678,0.4897,0.4491,0.4491,0.4491,0.4491,0.4491,0.4491,0.4543,0.4653,0.4653,0.4708,0.4873,0.5437,0.5328,0.4873,0.5437,0.5678,0.5678,0.5678,0.647,0.7369,0.6222,0.6253,0.6993,0.8348,0.9263,0.9684,0.914,1.0295,1.169,1.1116,1.1441,1.2104,1.2749,1.2905,1.2905,1.2905,1.2905,1.2929,1.3017,1.3041,1.3224,1.3826,1.3515,1.3501,1.4525,1.4025,1.3795,1.4787,1.4668,1.4423,1.4231,1.4229,1.3972,1.3273,1.3198,1.3198,1.3198,1.3198,1.2873,1.2066,1.2011,1.2192,1.2597,1.2156,1.1866,1.1792,1.1356,1.1075,1.1,1.0687,1.0525,1.0525,1.0448,1.0409,0.7149,0.7833,0.7982,0.6334,0.6519,0.6797,0.5643,0.5054,0.4648,0.4322,0.4256,0.4663,0.597,0.5668,0.5591,0.674,0.6493,0.6215,0.6383,0.6463,0.6566,0.6714,0.6693,0.6721,0.6844,0.7269,0.7589,0.7696,0.8289,0.8672,0.8804,0.8699,0.8619,0.8619,0.7803,0.7069,0.6448,0.5144,0.4491,0.4491,0.4491,0.4491,0.4491,0.4491,0.4814,0.5351,0.5351,0.571,0.6285,0.6394,0.6367,0.6285,0.6394,0.6421,0.6421,0.6421,0.6588,0.6831,0.7235,0.745,0.767,0.8513,0.9263,0.9788,0.9692,1.0636,1.1789,1.169,1.2163,1.2774,1.2881,1.2905,1.2905,1.2905,1.2905,1.3041,1.3552,1.3661,1.3849,1.4445,1.4502,1.4479,1.4675,1.4993,1.528,1.5447,1.5856,1.5799,1.4896,1.479,1.4381,1.3311,1.3198,1.3198,1.3198,1.3198,1.3146,1.2995,1.2995,1.3012,1.3094,1.2632,1.221,1.1811,1.1719,1.1449,1.1,1.1375,1.1571,1.1553,1.1094,1.0886,0.6324,0.7192,0.7918,0.7084,0.7809,0.8528,0.7793,0.6941,0.619,0.5746,0.5363,0.5364,0.6218,0.6305,0.6633,0.7905,0.7492,0.7073,0.7291,0.74,0.7467,0.7453,0.7772,0.7978,0.7921,0.8143,0.8295,0.8295,0.8619,0.8804,0.8804,0.8804,0.8804,0.8804,0.8076,0.753,0.7208,0.5764,0.4869,0.4491,0.4491,0.4491,0.4491,0.4491,0.468,0.4976,0.5351,0.5678,0.6064,0.6853,0.6966,0.6642,0.7047,0.7182,0.7235,0.7643,0.753,0.7289,0.8049,0.8023,0.7883,0.8988,0.9788,1.0338,1.0338,1.1309,1.232,1.1922,1.232,1.2905,1.2905,1.2905,1.2968,1.331,1.3396,1.3552,1.4154,1.4283,1.4468,1.5073,1.4926,1.4903,1.5567,1.5644,1.5698,1.603,1.6315,1.612,1.5035,1.4896,1.4469,1.3323,1.3198,1.3198,1.3198,1.3198,1.3198,1.3198,1.3198,1.3198,1.3198,1.2995,1.2773,1.2561,1.2312,1.2066,1.1818,1.1811,1.1664,1.1356,1.1113,1.0867,0.5837,0.6684,0.7763,0.8065,0.8885,0.9606,0.9549,0.8439,0.7341,0.7089,0.6489,0.6132,0.6526,0.7047,0.7719,0.8657,0.8321,0.8003,0.8086,0.8238,0.8294,0.8116,0.8707,0.9024,0.8831,0.8804,0.8804,0.8804,0.8804,0.8804,0.8804,0.8804,0.8804,0.8804,0.8262,0.7883,0.7696,0.6573,0.5574,0.4732,0.457,0.457,0.4732,0.4732,0.4924,0.5277,0.5787,0.6113,0.6352,0.7503,0.7616,0.7182,0.775,0.7969,0.8023,0.8593,0.8454,0.8049,0.8613,0.8527,0.8375,0.9451,1.0364,1.104,1.104,1.1916,1.2774,1.2212,1.2564,1.3104,1.3104,1.3104,1.3262,1.3873,1.4003,1.419,1.4789,1.4903,1.5085,1.5688,1.5444,1.5433,1.6337,1.6129,1.5974,1.6423,1.65,1.617,1.5211,1.4972,1.4519,1.3534,1.3273,1.325,1.334,1.3267,1.325,1.3357,1.3267,1.3198,1.3198,1.3198,1.3146,1.3042,1.2791,1.2615,1.2508,1.2246,1.192,1.1512,1.1401,1.1169,0.7306,0.7598,0.7978,0.9164,0.8981,0.8712,0.9498,0.8215,0.7082,0.7839,0.7423,0.7086,0.7672,0.8258,0.8704,0.8791,0.8752,0.8732,0.8725,0.8758,0.8758,0.8732,0.8785,0.8831,0.8811,0.8804,0.8804,0.8804,0.8804,0.8804,0.8804,0.8804,0.8804,0.8804,0.8752,0.8401,0.7696,0.7584,0.6821,0.5433,0.4787,0.4814,0.5433,0.5433,0.6167,0.7477,0.753,0.7937,0.856,0.8672,0.8699,0.8646,0.8699,0.8725,0.8725,0.8785,0.8752,0.8725,0.8785,0.9185,0.9658,0.9762,1.0661,1.174,1.174,1.227,1.2881,1.2847,1.3252,1.3732,1.3732,1.3732,1.3897,1.4491,1.4629,1.4789,1.541,1.5543,1.5698,1.6315,1.6402,1.6402,1.65,1.6466,1.6445,1.6488,1.65,1.6287,1.5718,1.5211,1.4689,1.4103,1.3534,1.3374,1.3802,1.3459,1.3391,1.3818,1.3442,1.3198,1.3198,1.3198,1.3007,1.2561,1.2943,1.2943,1.2508,1.2908,1.3082,1.303,1.2597,1.2372,0.6494,0.7096,0.7895,0.8662,0.922,0.9706,1.0164,0.9554,0.896,0.9126,0.8476,0.7929,0.8163,0.8537,0.8804,0.8804,0.8804,0.8804,0.8804,0.8804,0.8804,0.8804,0.8804,0.8804,0.8804,0.8804,0.8804,0.8804,0.8804,0.8804,0.8804,0.8804,0.8804,0.8804,0.8804,0.8672,0.8401,0.7943,0.7423,0.6848,0.615,0.5932,0.6177,0.6177,0.6475,0.7047,0.7503,0.7857,0.8156,0.8619,0.8804,0.8804,0.8804,0.8804,0.8804,0.8804,0.8804,0.8857,0.9283,0.9588,0.9935,1.0762,1.1391,1.1898,1.2344,1.2691,1.2968,1.3348,1.3613,1.3792,1.3792,1.4073,1.4514,1.5118,1.5253,1.541,1.603,1.6173,1.6238,1.6457,1.65,1.65,1.65,1.65,1.65,1.65,1.6774,1.6806,1.6256,1.6314,1.5923,1.4672,1.3722,1.3267,1.3459,1.3564,1.3598,1.3476,1.3301,1.3198,1.3198,1.3198,1.3129,1.2943,1.3112,1.3112,1.2943,1.3112,1.306,1.2756,1.2579,1.2336,0.6526,0.7148,0.8051,0.8633,0.9434,1.0117,1.0224,1.0285,1.03,1.015,0.9267,0.8587,0.8802,0.8826,0.8804,0.8804,0.8804,0.8804,0.8804,0.8804,0.8804,0.8804,0.8804,0.8804,0.8804,0.8982,0.9106,0.9106,0.9106,0.9211,0.9413,0.9237,0.9106,0.9106,0.9106,0.9008,0.8804,0.8295,0.8049,0.8049,0.753,0.7182,0.6939,0.6939,0.7074,0.7316,0.783,0.8049,0.8076,0.8593,0.8804,0.8804,0.8804,0.8804,0.8804,0.8804,0.8929,0.9185,0.964,1.009,1.0593,1.15,1.1956,1.2236,1.2749,1.3041,1.3262,1.3684,1.4063,1.4365,1.4365,1.4664,1.5152,1.5732,1.5886,1.6008,1.6402,1.65,1.65,1.65,1.65,1.65,1.65,1.65,1.65,1.65,1.6816,1.6912,1.6543,1.6678,1.6233,1.4733,1.4032,1.3616,1.3438,1.3719,1.3818,1.3615,1.334,1.3198,1.3198,1.3198,1.3198,1.3198,1.3198,1.3198,1.3198,1.3198,1.303,1.272,1.272,1.2544,0.7817,0.8037,0.86,0.9396,0.9602,0.9601,0.9545,1.0089,1.0657,1.0773,0.9744,0.9008,0.9666,0.9237,0.8804,0.8811,0.8804,0.8804,0.8804,0.8811,0.8804,0.8811,0.8804,0.8804,0.8811,0.9413,0.9814,0.9814,0.9814,1.009,1.0762,1.0167,0.9814,0.9788,0.9788,0.9484,0.8811,0.8804,0.8804,0.8804,0.8804,0.8427,0.7723,0.7723,0.8103,0.8804,0.8804,0.8804,0.8804,0.8804,0.8804,0.8811,0.8804,0.8804,0.8811,0.8811,0.9237,0.9814,0.9814,1.0695,1.1789,1.1816,1.2314,1.2905,1.2905,1.3334,1.3815,1.3815,1.4687,1.561,1.561,1.561,1.5764,1.6358,1.65,1.65,1.65,1.65,1.65,1.65,1.65,1.65,1.65,1.65,1.65,1.65,1.65,1.6522,1.6522,1.6053,1.5299,1.4229,1.4456,1.4471,1.3954,1.3917,1.4068,1.447,1.3698,1.3215,1.3215,1.3198,1.3198,1.3198,1.3198,1.3198,1.3198,1.3198,1.3198,1.3198,1.3198,1.3198,0.6911,0.7783,0.8877,0.9114,1.0566,1.1821,1.149,1.1424,1.1274,1.0719,1.0192,0.9705,0.9201,0.8929,0.8956,0.9439,0.9113,0.914,1.0064,0.9387,0.8982,0.9439,0.9087,0.8982,0.9465,0.9692,0.9987,1.0466,1.0491,1.0585,1.0788,1.061,1.0295,0.9814,0.9788,0.9484,0.8811,0.8804,0.8804,0.8804,0.8804,0.8699,0.848,0.848,0.8593,0.8804,0.8804,0.8804,0.8804,0.8804,0.9087,0.9465,0.8982,0.9087,0.951,0.951,0.964,0.9935,1.0889,1.1466,1.1898,1.2412,1.3021,1.3529,1.3529,1.3944,1.4514,1.496,1.5309,1.5698,1.6117,1.6238,1.6281,1.6457,1.65,1.65,1.65,1.65,1.65,1.65,1.65,1.65,1.65,1.65,1.65,1.65,1.6816,1.7353,1.8086,1.7056,1.6145,1.5815,1.514,1.4471,1.3954,1.4422,1.4549,1.41,1.4374,1.4278,1.3719,1.3374,1.3198,1.3198,1.3198,1.3198,1.3198,1.3198,1.3198,1.3198,1.3198,1.3198,0.8158,0.9092,1.0126,1.0459,1.1477,1.2445,1.2686,1.2229,1.1737,1.1499,1.095,1.0388,1.0051,0.9762,0.9718,1.0141,0.9865,0.9891,1.0695,1.009,0.9736,1.0141,0.984,0.9762,1.0167,1.044,1.0762,1.1166,1.1191,1.1316,1.1617,1.1375,1.1015,1.0618,1.0338,0.9865,0.9211,0.9185,0.9185,0.9211,0.9465,0.9588,0.9588,0.9035,0.8804,0.8804,0.8804,0.8804,0.8831,0.9087,0.9439,0.9762,0.9361,0.9614,1.0167,0.9891,1.0141,1.0712,1.1516,1.2159,1.2682,1.3098,1.3671,1.4167,1.4167,1.4572,1.5118,1.5499,1.5764,1.603,1.6402,1.65,1.65,1.65,1.65,1.65,1.65,1.65,1.65,1.65,1.65,1.65,1.65,1.65,1.65,1.65,1.6774,1.7291,1.8165,1.7416,1.675,1.6523,1.6181,1.5589,1.468,1.5219,1.5466,1.5186,1.5286,1.5186,1.4867,1.4122,1.3547,1.3215,1.3374,1.3391,1.3198,1.3198,1.3198,1.3198,1.3198,1.3301,1.04,1.1066,1.1743,1.2573,1.224,1.2015,1.3184,1.2632,1.2089,1.2724,1.1819,1.1065,1.1616,1.1216,1.0813,1.0889,1.0838,1.0838,1.0973,1.0872,1.0813,1.0889,1.0838,1.0813,1.0889,1.1441,1.1839,1.1898,1.1888,1.2187,1.2847,1.2261,1.1864,1.1789,1.1216,1.0568,0.9891,0.9891,0.9891,0.9891,1.0517,1.0788,1.0762,0.9536,0.8982,0.8982,0.8982,0.8982,0.9035,0.964,0.9917,0.9961,0.9917,1.0287,1.0813,1.0218,1.0737,1.1814,1.1938,1.2793,1.3815,1.3862,1.4283,1.4766,1.4766,1.5208,1.5676,1.5676,1.6073,1.65,1.65,1.65,1.65,1.65,1.65,1.65,1.65,1.65,1.65,1.65,1.65,1.65,1.65,1.6531,1.6573,1.6573,1.6543,1.6701,1.7229,1.7312,1.7108,1.6625,1.7362,1.7343,1.595,1.619,1.6613,1.7072,1.6332,1.5992,1.6243,1.5142,1.4132,1.329,1.3657,1.3648,1.3267,1.3267,1.3284,1.3323,1.3323,1.3547,0.8441,0.9679,1.1182,1.1731,1.225,1.269,1.2974,1.2842,1.2654,1.2598,1.2058,1.1466,1.1091,1.0889,1.0965,1.1491,1.1141,1.12,1.228,1.1509,1.099,1.1516,1.1116,1.1015,1.1541,1.1715,1.2055,1.2608,1.2666,1.2715,1.2881,1.274,1.2393,1.1814,1.1665,1.1266,1.0585,1.0593,1.0593,1.0593,1.0737,1.0788,1.0788,1.0491,1.0364,1.0364,1.0364,1.0364,1.0389,1.0542,1.0889,1.1316,1.0788,1.099,1.1566,1.1416,1.1566,1.1963,1.301,1.3545,1.3886,1.4352,1.4915,1.541,1.541,1.582,1.6315,1.6315,1.6402,1.65,1.65,1.65,1.65,1.65,1.65,1.65,1.65,1.65,1.65,1.65,1.65,1.65,1.65,1.6858,1.7126,1.7126,1.6774,1.6701,1.7229,1.7312,1.727,1.7131,1.7598,1.7609,1.6861,1.7173,1.7322,1.7122,1.7207,1.6835,1.5878,1.5122,1.4472,1.3909,1.355,1.3493,1.3752,1.3752,1.3917,1.4214,1.4214,1.4262,0.9016,1.0215,1.1398,1.2054,1.2563,1.2905,1.2905,1.2905,1.2866,1.273,1.2504,1.2221,1.1866,1.1816,1.1916,1.227,1.2024,1.2049,1.2798,1.2255,1.194,1.2295,1.2015,1.194,1.2295,1.232,1.2476,1.2881,1.2905,1.2905,1.2905,1.2905,1.2715,1.2344,1.1972,1.1641,1.1291,1.1291,1.1291,1.1291,1.1633,1.1816,1.1792,1.1099,1.0788,1.0788,1.0788,1.0788,1.0813,1.1141,1.1491,1.1765,1.1416,1.1699,1.2286,1.1922,1.203,1.2467,1.346,1.398,1.4329,1.4937,1.5533,1.603,1.603,1.6238,1.65,1.65,1.65,1.65,1.65,1.65,1.65,1.65,1.65,1.6573,1.6837,1.6879,1.6951,1.7209,1.7055,1.6879,1.6879,1.7118,1.7394,1.7646,1.7442,1.7463,1.8007,1.8066,1.8079,1.8064,1.8476,1.8527,1.8014,1.8159,1.8282,1.8334,1.8299,1.7967,1.726,1.6695,1.5775,1.4506,1.4862,1.4799,1.4277,1.4533,1.4613,1.4501,1.4501,1.4596,0.9659,1.0743,1.1636,1.2641,1.2905,1.2905,1.2905,1.2905,1.2905,1.2905,1.2905,1.2905,1.2905,1.2905,1.2905,1.2905,1.2905,1.2905,1.2905,1.2905,1.2905,1.2905,1.2905,1.2905,1.2905,1.2905,1.2905,1.2905,1.2905,1.2905,1.2905,1.2905,1.2905,1.2905,1.232,1.1996,1.1996,1.1996,1.1996,1.1996,1.2618,1.2905,1.2856,1.1692,1.1174,1.1174,1.1174,1.1174,1.12,1.1749,1.1996,1.1996,1.1996,1.2369,1.2832,1.2212,1.2442,1.3152,1.3766,1.4352,1.4949,1.5555,1.6095,1.65,1.65,1.65,1.65,1.65,1.6573,1.6637,1.6637,1.671,1.6774,1.6774,1.6774,1.6879,1.7209,1.7374,1.7565,1.8007,1.7747,1.7463,1.7565,1.7504,1.7626,1.8165,1.8165,1.8263,1.8688,1.8836,1.8893,1.8893,1.9387,1.953,1.908,1.9043,1.9225,1.9672,1.9281,1.9006,1.8893,1.8568,1.7458,1.5492,1.6478,1.6391,1.5117,1.5551,1.5478,1.4875,1.4875,1.5005,0.7028,0.8708,1.086,1.2494,1.2905,1.2905,1.2905,1.2905,1.2905,1.2905,1.2905,1.2905,1.2905,1.2905,1.2905,1.2905,1.2905,1.2905,1.2905,1.2905,1.2905,1.2905,1.2905,1.2905,1.2905,1.2905,1.2905,1.2905,1.2905,1.2905,1.2905,1.2905,1.2905,1.2905,1.2798,1.274,1.274,1.274,1.274,1.274,1.2856,1.2905,1.2881,1.27,1.2618,1.2618,1.2618,1.2618,1.2627,1.2725,1.274,1.274,1.274,1.2798,1.2881,1.2798,1.3156,1.3779,1.4376,1.496,1.5565,1.6194,1.6423,1.65,1.65,1.65,1.65,1.65,1.6837,1.7188,1.7188,1.7544,1.7887,1.7887,1.7887,1.7787,1.7394,1.7666,1.8007,1.8086,1.8046,1.8145,1.8612,1.8302,1.8185,1.8708,1.84,1.8145,1.8204,1.8612,1.8893,1.8893,1.9387,1.9672,1.9603,1.9584,1.9621,1.9708,1.9621,1.9387,1.893,1.928,1.892,1.7714,1.6963,1.6655,1.6775,1.6857,1.6723,1.6409,1.6409,1.6143,0.7856,0.9395,1.0996,1.2524,1.2905,1.2905,1.2905,1.2905,1.2905,1.2905,1.2905,1.2905,1.2905,1.2905,1.2905,1.2905,1.2905,1.2905,1.2905,1.2905,1.2905,1.2905,1.2905,1.2905,1.2905,1.2905,1.2905,1.2905,1.2905,1.2905,1.2905,1.2905,1.2905,1.2905,1.2905,1.2905,1.2905,1.2905,1.2905,1.2905,1.2905,1.2905,1.2905,1.2905,1.2905,1.2905,1.2905,1.2905,1.2905,1.2905,1.2905,1.2905,1.2905,1.2905,1.2954,1.3286,1.3576,1.3933,1.4869,1.5387,1.5698,1.6303,1.65,1.65,1.65,1.65,1.65,1.65,1.69,1.7312,1.7312,1.7706,1.8106,1.8106,1.8341,1.8477,1.8263,1.838,1.8554,1.8554,1.8554,1.8612,1.8855,1.8688,1.8727,1.9262,1.9151,1.9006,1.9006,1.9207,1.935,1.935,1.9566,1.9708,1.9708,1.9708,1.9708,1.9708,1.9708,1.9584,1.9369,1.9566,1.9479,1.9006,1.8528,1.8042,1.7557,1.7849,1.7876,1.7654,1.7654,1.7517,0.8129,0.9182,1.0049,1.1914,1.2383,1.2471,1.2827,1.2905,1.2905,1.2905,1.2905,1.2905,1.2905,1.2905,1.2905,1.2905,1.2905,1.2905,1.2905,1.2905,1.2905,1.2905,1.2905,1.2905,1.2905,1.2905,1.2905,1.2905,1.2905,1.2905,1.2905,1.2905,1.2905,1.2905,1.2905,1.2905,1.2905,1.2905,1.2905,1.2905,1.2905,1.2905,1.2905,1.2905,1.2905,1.2905,1.2905,1.2905,1.2905,1.2905,1.2905,1.2929,1.3065,1.3128,1.32,1.3802,1.4143,1.4388,1.5298,1.5698,1.5908,1.6358,1.65,1.6543,1.6659,1.6689,1.6731,1.6879,1.7291,1.7706,1.7706,1.8106,1.8516,1.8516,1.8817,1.9114,1.9114,1.9114,1.9114,1.9114,1.9114,1.9114,1.9114,1.9114,1.9244,1.9639,1.9708,1.9708,1.9708,1.9708,1.9708,1.9708,1.9708,1.9708,1.9708,1.9708,1.9708,1.9708,1.9708,1.9708,1.9708,1.9708,1.9708,1.9708,1.9708,1.9274,1.8364,1.886,1.895,1.8672,1.8764,1.8715,0.5975,0.6318,0.6859,1.0176,1.0995,1.1338,1.2621,1.2905,1.2905,1.2905,1.2905,1.2905,1.2905,1.2905,1.2905,1.2905,1.2905,1.2905,1.2905,1.2905,1.2905,1.2905,1.2905,1.2905,1.2905,1.2905,1.2905,1.2905,1.2905,1.2905,1.2905,1.2905,1.2905,1.2905,1.2905,1.2905,1.2905,1.2905,1.2905,1.2905,1.2905,1.2905,1.2905,1.2905,1.2905,1.2905,1.2905,1.2905,1.2905,1.2905,1.2905,1.2954,1.3529,1.3755,1.3826,1.4422,1.5017,1.5521,1.5588,1.5974,1.6457,1.65,1.65,1.6595,1.7097,1.725,1.7374,1.7867,1.84,1.8817,1.8817,1.9207,1.9621,1.9621,1.9639,1.9657,1.9657,1.9657,1.9657,1.9657,1.9657,1.9657,1.9657,1.9657,1.9672,1.9708,1.9708,1.9708,1.9708,1.9708,1.9708,1.9708,1.9708,1.9708,1.9708,1.9708,1.9708,1.9708,1.9708,1.9708,1.9708,1.9708,1.9708,1.9708,1.9708,1.9675,1.9612,2.0026,1.991,1.9355,1.9734,1.9579,0.5655,0.632,0.7061,0.8838,1.0107,1.1035,1.1504,1.2275,1.2905,1.2905,1.2905,1.2905,1.2905,1.2905,1.2905,1.2905,1.2905,1.2905,1.2905,1.2905,1.2905,1.2905,1.2905,1.2905,1.2905,1.2905,1.3065,1.3443,1.3128,1.3065,1.3467,1.3104,1.2905,1.2905,1.2905,1.2905,1.2905,1.2905,1.3079,1.3481,1.3481,1.3481,1.3481,1.3481,1.3262,1.2905,1.2905,1.2905,1.2905,1.2905,1.3128,1.3505,1.3708,1.405,1.4445,1.505,1.541,1.5654,1.6051,1.6315,1.65,1.65,1.6731,1.7055,1.7229,1.7544,1.7847,1.8046,1.8496,1.8893,1.8893,1.9299,1.9708,1.9708,1.9708,1.9708,1.9708,1.9708,1.9708,1.9708,1.9708,1.9708,1.9708,1.9708,1.9708,1.9708,1.9708,1.9708,1.9708,1.9708,1.9708,1.9708,1.9708,1.9708,1.9708,1.9708,1.9708,1.9708,1.9708,1.9708,1.9708,1.9962,2.0089,2.0089,2.0381,2.0396,2.0089,2.0229,2.049,2.0825,2.0963,2.0892,0.4766,0.5469,0.6367,0.7803,0.8779,0.9728,1.1034,1.1797,1.2367,1.2817,1.2905,1.2905,1.2905,1.2905,1.2905,1.2905,1.3065,1.3128,1.2929,1.3248,1.343,1.3224,1.32,1.3286,1.3478,1.331,1.3443,1.405,1.3529,1.3372,1.3779,1.3224,1.2905,1.2905,1.2905,1.2905,1.2905,1.2905,1.319,1.3792,1.3792,1.3909,1.4097,1.4097,1.3779,1.32,1.32,1.3079,1.2905,1.2905,1.3262,1.3815,1.4027,1.4468,1.5085,1.5688,1.5908,1.5952,1.6358,1.65,1.6543,1.671,1.7013,1.7374,1.7727,1.8086,1.8419,1.8593,1.8893,1.9169,1.9169,1.9424,1.9708,1.9708,1.9708,1.9708,1.9708,1.9818,1.9856,1.9744,1.9818,1.9856,1.9711,1.9708,1.9708,1.9708,1.9708,1.9708,1.9708,1.9708,1.9708,1.9708,1.9836,1.9839,1.9711,1.9821,1.9839,1.9708,1.9708,1.9764,1.9892,2.0158,2.0382,2.0533,2.0845,2.091,2.0748,2.0748,2.1023,2.1597,2.1764,2.1823,0.0,0.0,0.0,0.6992,0.6979,0.7383,1.117,1.1394,1.1201,1.2573,1.2837,1.2846,1.292,1.2929,1.2929,1.2954,1.342,1.36,1.3017,1.3954,1.4491,1.3897,1.3815,1.405,1.4629,1.4167,1.4073,1.4675,1.4167,1.3815,1.3839,1.3286,1.2954,1.2929,1.2929,1.2929,1.2929,1.2929,1.3238,1.3839,1.3839,1.4167,1.4721,1.4721,1.4399,1.3815,1.3815,1.3481,1.2954,1.292,1.3286,1.3909,1.4491,1.5096,1.572,1.6281,1.6522,1.6522,1.6522,1.6522,1.6616,1.7126,1.7333,1.7544,1.8574,1.8912,1.9024,1.9548,1.9708,1.9708,1.9708,1.9708,1.9711,1.9711,1.9744,1.9744,1.9744,2.0037,2.0227,1.98,2.0035,2.0176,1.9782,1.9708,1.9708,1.9708,1.9708,1.9708,1.9708,1.9708,1.9693,1.9726,2.007,2.0158,1.9764,2.0089,2.0158,1.9764,1.9744,1.9909,2.0297,2.0331,2.055,2.1007,2.1039,2.1228,2.1612,2.1613,2.1613,2.1643,2.2092,2.2296,0.3644,0.0,0.0,0.0,0.0,0.0,0.8062,0.8518,0.9185,1.1304,1.1369,1.1548,1.3245,1.3552,1.3695,1.4131,1.399,1.3732,1.3576,1.4224,1.4629,1.4468,1.4445,1.4514,1.4675,1.4537,1.4698,1.5298,1.4778,1.4652,1.5084,1.4537,1.399,1.3552,1.3552,1.3552,1.3552,1.3552,1.4073,1.5107,1.5107,1.5174,1.5343,1.5343,1.5028,1.4445,1.4445,1.4363,1.4177,1.3732,1.4167,1.5107,1.5298,1.5949,1.6799,1.6582,1.6752,1.7013,1.6637,1.6752,1.7097,1.725,1.7827,1.8516,1.8817,1.9169,1.9512,1.9657,1.9708,1.9708,1.9708,1.9927,2.0141,2.0141,2.0398,2.0632,2.0632,2.0959,2.1023,2.0278,2.0212,2.0263,2.0158,1.9892,1.9708,1.9708,1.9708,1.9708,1.9708,1.9708,1.9803,2.0089,2.0229,2.0382,2.0615,2.0747,2.0764,2.0664,2.0632,2.0682,2.0797,2.1086,2.129,2.143,2.1766,2.2005,2.2106,2.1764,2.1779,2.2106,2.2237,2.2296,0.4192,0.446,0.4873,0.5199,0.0,0.0,0.8344,0.8442,0.8898,1.2067,1.2214,1.2251,1.388,1.4167,1.4283,1.4629,1.4618,1.4457,1.4213,1.4926,1.5354,1.5107,1.5085,1.5163,1.5421,1.522,1.532,1.593,1.5421,1.5118,1.5208,1.4903,1.4537,1.419,1.4167,1.4167,1.4167,1.4167,1.4641,1.561,1.561,1.572,1.5986,1.5986,1.5644,1.5085,1.5085,1.5085,1.5062,1.471,1.4971,1.561,1.561,1.6157,1.6951,1.6879,1.7034,1.7291,1.7188,1.7374,1.7666,1.7887,1.84,1.8949,1.9169,1.9442,1.9708,1.9708,1.9708,1.9708,1.9708,2.0,2.0297,2.0297,2.0649,2.0991,2.0991,2.1306,2.1414,2.0715,2.0732,2.0781,2.0616,2.0398,2.0243,2.0243,2.007,2.0017,2.0208,2.007,2.0122,2.055,2.0748,2.0894,2.0991,2.115,2.1181,2.1007,2.0991,2.1087,2.1244,2.1476,2.1688,2.1899,2.2149,2.2296,2.2296,2.2032,2.2032,2.2296,2.2296,2.2296,0.4873,0.5012,0.5481,0.624,0.5412,0.0,0.9893,0.9367,0.9084,1.2997,1.3303,1.3138,1.3994,1.416,1.4193,1.4337,1.4958,1.5288,1.4858,1.5788,1.6303,1.5764,1.5698,1.5908,1.6445,1.5996,1.5908,1.6457,1.6008,1.5466,1.4926,1.4915,1.4858,1.4789,1.4789,1.4789,1.4789,1.4789,1.5096,1.5698,1.5698,1.5986,1.65,1.65,1.6216,1.5698,1.5698,1.5698,1.5698,1.5698,1.5698,1.5698,1.5698,1.6105,1.6731,1.7146,1.7394,1.7544,1.7967,1.8145,1.8283,1.8727,1.8949,1.908,1.9566,1.9708,1.9708,1.9708,1.9708,1.9711,1.9747,2.007,2.0399,2.0433,2.0797,2.115,2.115,2.1431,2.1568,2.1213,2.1384,2.1491,2.1118,2.1039,2.0991,2.0991,2.0633,2.0533,2.0943,2.0633,2.055,2.1023,2.1384,2.1476,2.1182,2.1477,2.1538,2.1166,2.115,2.1291,2.1658,2.1673,2.1884,2.2296,2.2296,2.2296,2.2296,2.2296,2.2296,2.2296,2.2296,2.2296,0.5864,0.574,0.5922,0.5937,0.5871,0.0,0.6215,0.58,0.5867,0.7712,0.7578,0.7873,1.0317,1.0761,1.1062,1.2045,1.3433,1.4632,1.5321,1.6051,1.6457,1.6337,1.6315,1.638,1.65,1.6402,1.638,1.65,1.6402,1.6259,1.6163,1.6151,1.592,1.5432,1.541,1.541,1.541,1.541,1.5732,1.6315,1.6315,1.638,1.65,1.65,1.6445,1.6315,1.6315,1.6315,1.6315,1.6315,1.6315,1.6315,1.6315,1.6917,1.7747,1.7435,1.7847,1.8535,1.8224,1.838,1.8746,1.8874,1.9188,1.9566,1.9672,1.9708,1.9708,1.9708,1.9708,1.9764,2.0089,2.0516,2.0959,2.1259,2.1705,2.2049,2.2049,2.2106,2.2135,2.2063,2.1794,2.1583,2.1491,2.1213,2.0991,2.0991,2.0926,2.0894,2.0991,2.0926,2.1023,2.143,2.1552,2.1718,2.2034,2.212,2.212,2.2049,2.2049,2.2077,2.2149,2.2149,2.2209,2.2296,2.2296,2.2296,2.2296,2.2296,2.2296,2.2296,2.2296,2.2296,0.6602,0.6269,0.639,0.6556,0.6256,0.0,0.0,0.6409,0.6127,0.8537,0.8083,0.7857,0.9871,1.0255,1.0454,1.1053,1.2814,1.3981,1.3655,1.5285,1.65,1.65,1.65,1.65,1.65,1.65,1.65,1.65,1.65,1.65,1.65,1.65,1.6358,1.6051,1.6051,1.6051,1.6051,1.6051,1.6194,1.65,1.65,1.65,1.65,1.65,1.65,1.65,1.65,1.65,1.65,1.65,1.65,1.65,1.65,1.6993,1.7706,1.7706,1.8224,1.8893,1.8893,1.9062,1.9299,1.9299,1.9479,1.9708,1.9708,1.9708,1.9708,1.9708,1.9708,1.98,2.021,2.0649,2.1102,2.1506,2.1974,2.2296,2.2296,2.2296,2.2296,2.2296,2.2106,2.1943,2.1943,2.1781,2.1661,2.1661,2.1446,2.1368,2.1615,2.1446,2.1477,2.1899,2.1943,2.2032,2.2282,2.2296,2.2296,2.2296,2.2296,2.2296,2.2296,2.2296,2.2296,2.2296,2.2296,2.2377,2.25,2.2377,2.2296,2.2296,2.2296,2.2296,0.7435,0.7075,0.7263,0.7369,0.6911,0.6895,0.0,0.0,0.0,0.9777,0.9213,0.8546,0.9566,0.9679,0.9642,0.9742,1.1565,1.2512,1.115,1.3521,1.5422,1.5535,1.6111,1.6375,1.607,1.5923,1.6036,1.6463,1.6099,1.6049,1.6475,1.65,1.65,1.65,1.65,1.65,1.65,1.65,1.6552,1.6659,1.6552,1.6552,1.6659,1.6552,1.65,1.65,1.65,1.6552,1.6659,1.6659,1.671,1.6795,1.6701,1.6972,1.7524,1.8066,1.8593,1.9132,1.9548,1.9708,1.9708,1.9708,1.9708,1.9708,1.9708,1.9708,1.9726,1.98,1.9818,1.9927,2.0433,2.083,2.1213,2.1628,2.2017,2.2296,2.2296,2.2296,2.2296,2.2296,2.2296,2.2296,2.2296,2.2296,2.2296,2.2296,2.1988,2.1884,2.2237,2.1974,2.1884,2.2268,2.2296,2.2296,2.2296,2.2296,2.2296,2.2296,2.2296,2.2296,2.2296,2.2296,2.2296,2.2296,2.2296,2.2477,2.286,2.2571,2.2402,2.2374,2.2321,2.2296,0.8826,0.8801,0.9178,0.7753,0.8416,0.8864,0.6742,0.0,0.6414,0.5871,0.0,0.564,0.6244,0.0,0.0,0.6285,0.7821,0.8889,0.87,1.0219,1.156,1.209,1.4739,1.5944,1.4513,1.3898,1.4394,1.635,1.4682,1.4431,1.64,1.65,1.65,1.65,1.65,1.65,1.65,1.65,1.6731,1.7188,1.6731,1.6752,1.7188,1.671,1.65,1.65,1.65,1.6774,1.7209,1.7209,1.7483,1.7867,1.7394,1.7544,1.8066,1.8612,1.9151,1.9621,1.969,1.9708,1.9708,1.9708,1.9708,1.9708,1.9708,1.9708,1.9764,2.0141,2.0229,2.0433,2.1243,2.1491,2.1643,2.2106,2.2268,2.2296,2.2296,2.2296,2.2296,2.2296,2.2296,2.2296,2.2296,2.2296,2.2296,2.2296,2.2237,2.2237,2.2296,2.2237,2.2237,2.2296,2.2296,2.2296,2.2296,2.2296,2.2296,2.2296,2.2296,2.2296,2.2296,2.2296,2.2296,2.2296,2.2296,2.2664,2.3403,2.3032,2.2768,2.2647,2.2398,2.2296,0.9055,0.9434,0.9939,0.8145,0.8562,0.8793,0.6358,0.5732,0.5632,0.5488,0.0,0.0,0.0,0.0,0.0,0.0,0.6708,0.745,0.6512,0.8612,1.0444,1.1008,1.2027,1.2918,1.3521,1.3353,1.413,1.6325,1.4438,1.4181,1.6375,1.6795,1.6816,1.6522,1.7097,1.7271,1.6972,1.7271,1.7544,1.7767,1.7544,1.7544,1.7767,1.7524,1.7422,1.7422,1.7422,1.7565,1.7767,1.7767,1.7907,1.8125,1.8204,1.838,1.8593,1.8817,1.9244,1.9708,1.9708,1.9708,1.9708,1.9708,1.9708,1.9708,1.9708,1.9856,2.0072,2.0246,2.05,2.0846,2.1445,2.1597,2.1718,2.2194,2.2296,2.2296,2.2296,2.2296,2.2296,2.2296,2.2296,2.2296,2.2296,2.2296,2.2296,2.2296,2.2296,2.2296,2.2296,2.2296,2.2296,2.2296,2.2296,2.2296,2.2296,2.2296,2.2296,2.2296,2.2296,2.2296,2.2296,2.2296,2.2296,2.2296,2.2634,2.3056,2.3511,2.3105,2.2928,2.2984,2.2521,2.2296,1.0399,1.0806,1.1169,0.8547,0.8447,0.8393,0.6122,0.5729,0.5865,0.5926,0.6057,0.0,0.0,0.0,0.524,0.5036,0.0,0.6298,0.494,0.684,0.8558,0.9065,0.9178,1.003,0.0,1.1745,1.2547,1.5384,1.3554,1.3599,1.6557,1.7097,1.7188,1.6951,1.7686,1.7907,1.7524,1.7907,1.8185,1.8322,1.8185,1.8185,1.8322,1.8185,1.8106,1.8106,1.8106,1.8185,1.8322,1.8322,1.8419,1.8574,1.8968,1.9132,1.9132,1.9132,1.9369,1.9708,1.9708,1.9708,1.9708,1.9708,1.9708,1.9711,1.9821,2.007,2.0348,2.0584,2.0894,2.126,2.1673,2.1794,2.1884,2.2223,2.2296,2.2296,2.2296,2.2296,2.2296,2.2296,2.2296,2.2296,2.2296,2.2296,2.2296,2.2296,2.2296,2.2296,2.2296,2.2296,2.2296,2.2296,2.2296,2.2296,2.2296,2.2296,2.2296,2.2296,2.2296,2.2296,2.2296,2.2296,2.2377,2.2531,2.3026,2.3414,2.3692,2.3165,2.3002,2.3177,2.2584,2.2296,1.3757,1.3647,1.3499,0.9016,0.8308,0.8078,0.5669,0.6619,0.7666,0.6523,0.7776,0.8618,0.7146,0.6432,0.0,0.0,0.0,0.0,0.0,0.4331,0.4655,0.5124,0.6545,0.0,0.0,0.8075,0.8615,0.0,1.1259,1.2132,1.7013,1.7291,1.7524,1.8027,1.8086,1.8086,1.8066,1.8086,1.8361,1.8874,1.8361,1.838,1.8855,1.8341,1.8106,1.8106,1.8106,1.84,1.8874,1.8874,1.9188,1.9639,1.9672,1.9672,1.9672,1.9672,1.969,1.9708,1.9708,1.9708,1.9708,1.9708,1.9708,1.9764,2.0158,2.0297,2.0483,2.1321,2.1567,2.1688,2.2166,2.2282,2.2282,2.2296,2.2296,2.2296,2.2296,2.2296,2.2296,2.2296,2.2296,2.2296,2.2296,2.2296,2.2296,2.2296,2.2296,2.2296,2.2296,2.2296,2.2296,2.2296,2.2296,2.2296,2.2296,2.2296,2.2296,2.2296,2.2296,2.2296,2.2296,2.2296,2.2571,2.3153,2.338,2.3714,2.417,2.3318,2.3002,2.3177,2.2584,2.2296,1.596,1.6715,1.6609,1.212,1.1146,1.0252,0.6325,0.6582,0.7272,0.598,0.7572,0.8767,0.7354,0.6658,0.0,0.0,0.0,0.0,0.0,0.4092,0.3876,0.3993,0.0,0.0,0.0,0.0,0.0,0.0,1.2839,0.0,1.712,1.7967,1.8283,1.8125,1.8798,1.8987,1.8631,1.8987,1.9244,1.9424,1.9244,1.9244,1.9424,1.9244,1.9169,1.9169,1.9169,1.9262,1.9424,1.9424,1.9548,1.9708,1.9708,1.9708,1.9708,1.9708,1.9708,1.9708,1.9708,1.9708,1.9747,2.0017,2.0089,2.0176,2.0632,2.0943,2.1228,2.1521,2.1823,2.2106,2.2268,2.2296,2.2296,2.2296,2.2296,2.2296,2.2296,2.2296,2.2296,2.2296,2.2296,2.2296,2.2296,2.2296,2.2296,2.2296,2.2296,2.2296,2.2296,2.245,2.2546,2.2546,2.2755,2.2895,2.2895,2.2895,2.2895,2.2895,2.2695,2.2546,2.2546,2.2643,2.2798,2.2989,2.3639,2.4036,2.419,2.3671,2.3466,2.3522,2.2883,2.2477,1.8216,1.8925,1.8768,1.4694,1.3672,1.2512,0.8071,0.8204,0.8822,0.7308,0.8315,0.9437,0.9451,0.8013,0.0,0.0,0.0,0.0,0.0,0.3905,0.3581,0.0,0.0,0.0,0.0,0.0,0.0,0.0,0.0,0.0,0.0,1.8516,1.8836,1.8669,1.935,1.953,1.9188,1.953,1.9708,1.9708,1.9708,1.9708,1.9708,1.9708,1.9708,1.9708,1.9708,1.9708,1.9708,1.9708,1.9708,1.9708,1.9708,1.9708,1.9708,1.9708,1.9708,1.9711,1.9856,1.9909,1.9982,2.0414,2.055,2.0633,2.1086,2.1384,2.1643,2.1794,2.2077,2.2296,2.2296,2.2296,2.2296,2.2296,2.2296,2.2338,2.2426,2.236,2.2321,2.2426,2.2377,2.2321,2.2426,2.2436,2.2398,2.2307,2.2296,2.2335,2.244,2.2599,2.2746,2.2873,2.3069,2.32,2.32,2.32,2.3224,2.3311,2.3105,2.296,2.2885,2.3038,2.32,2.3352,2.3795,2.4084,2.419,2.3858,2.3703,2.3682,2.3009,2.2612]}]]